[[{"header":{"parameterUnit":"m.s-1","parameterCategory":1,"la1":30.6,"la2":29.2853,"lo1":-89.7004,"lo2":-87.6739,"dy":0.0162,"dx":0.0183,"nx":112,"ny":82,"refTime":"2024-09-12T12:00:00:Z","depth":0,"parameterNumber":2,"parameterNumberName":"U-component_of_WINDS"},"data":[0.0,0.0,0.0,0.0,0.0,0.0,0.0,0.0,0.0,0.0,0.0,0.0,0.0,0.0,0.0,0.0,0.0,0.0,0.0,0.0,0.0,0.0,0.0,0.0,0.0,0.0,0.0,0.0,0.0,0.0,0.0,0.0,0.0,0.0,0.0,0.0,0.0,0.0,0.0,0.0,0.0,0.0,0.0,0.0,0.0,0.0,0.0,0.0,0.0,0.0,0.0,0.0,0.0,0.0,0.0,0.0,0.0,0.0,0.0,0.0,0.0,0.0,0.0,0.0,0.0,0.0,0.0,0.0,0.0,0.0,0.0,0.0,0.0,0.0,0.0,0.0,0.0,0.0,0.0,0.0,0.0,0.0,0.0,0.0,0.0,0.0,0.0,0.0,0.0,0.0,-1.7701,-1.9737,-2.1324,-2.2184,-2.2184,-2.2184,-2.1468,-1.9786,0.0,0.0,0.0,0.0,0.0,0.0,0.0,0.0,0.0,0.0,0.0,0.0,0.0,0.0,0.0,0.0,0.0,0.0,0.0,0.0,0.0,0.0,0.0,0.0,0.0,0.0,0.0,0.0,0.0,0.0,0.0,0.0,0.0,0.0,0.0,0.0,0.0,0.0,0.0,0.0,0.0,0.0,0.0,0.0,0.0,0.0,0.0,0.0,0.0,0.0,0.0,0.0,0.0,0.0,0.0,0.0,0.0,0.0,0.0,0.0,0.0,0.0,0.0,0.0,0.0,0.0,0.0,0.0,0.0,0.0,0.0,0.0,0.0,0.0,0.0,0.0,0.0,0.0,0.0,0.0,0.0,0.0,0.0,0.0,0.0,0.0,0.0,0.0,0.0,0.0,0.0,0.0,0.0,0.0,0.0,0.0,0.0,0.0,0.0,0.0,0.0,0.0,0.0,0.0,-1.8778,-2.0971,-2.145,-2.1606,-2.1606,-2.1606,-2.0916,-1.9246,0.0,0.0,0.0,0.0,0.0,0.0,0.0,0.0,0.0,0.0,0.0,0.0,0.0,0.0,0.0,0.0,0.0,0.0,0.0,0.0,0.0,0.0,0.0,0.0,0.0,0.0,0.0,0.0,0.0,0.0,0.0,0.0,0.0,0.0,0.0,0.0,0.0,0.0,0.0,0.0,0.0,0.0,0.0,0.0,0.0,0.0,0.0,0.0,0.0,0.0,0.0,0.0,0.0,0.0,0.0,0.0,0.0,0.0,0.0,0.0,0.0,0.0,0.0,0.0,0.0,0.0,0.0,0.0,0.0,0.0,0.0,0.0,0.0,0.0,0.0,0.0,0.0,0.0,0.0,0.0,0.0,0.0,0.0,0.0,0.0,0.0,0.0,0.0,0.0,0.0,0.0,0.0,0.0,0.0,0.0,0.0,0.0,0.0,0.0,0.0,0.0,0.0,0.0,-1.8458,-1.9577,-2.0928,-2.1041,-2.1041,-2.1041,-2.1041,-2.0464,-1.912,-1.9246,0.0,0.0,0.0,0.0,0.0,0.0,0.0,0.0,0.0,0.0,0.0,0.0,0.0,0.0,0.0,0.0,0.0,0.0,0.0,0.0,0.0,0.0,0.0,0.0,0.0,0.0,0.0,0.0,0.0,0.0,0.0,0.0,0.0,0.0,0.0,0.0,0.0,0.0,0.0,0.0,0.0,0.0,0.0,0.0,0.0,0.0,0.0,0.0,0.0,0.0,0.0,0.0,0.0,0.0,0.0,0.0,0.0,0.0,0.0,0.0,0.0,0.0,0.0,0.0,0.0,0.0,0.0,0.0,0.0,0.0,0.0,0.0,0.0,0.0,0.0,0.0,0.0,0.0,0.0,0.0,0.0,0.0,0.0,0.0,0.0,0.0,0.0,0.0,0.0,0.0,0.0,0.0,0.0,0.0,0.0,0.0,0.0,0.0,0.0,0.0,0.0,0.0,-1.9534,-1.9974,-2.0413,-2.0517,-2.0517,-2.0517,-2.0351,-1.9861,-1.8845,-1.8719,0.0,0.0,0.0,0.0,0.0,0.0,0.0,0.0,0.0,0.0,0.0,0.0,0.0,0.0,0.0,0.0,0.0,0.0,0.0,0.0,0.0,0.0,0.0,0.0,0.0,0.0,0.0,0.0,0.0,0.0,0.0,0.0,0.0,0.0,0.0,0.0,0.0,0.0,0.0,0.0,0.0,0.0,0.0,0.0,0.0,0.0,0.0,0.0,0.0,0.0,0.0,0.0,0.0,0.0,0.0,0.0,0.0,0.0,0.0,0.0,0.0,0.0,0.0,0.0,0.0,0.0,0.0,0.0,0.0,0.0,0.0,0.0,0.0,0.0,0.0,0.0,0.0,0.0,0.0,0.0,0.0,0.0,0.0,0.0,0.0,0.0,0.0,0.0,0.0,0.0,0.0,0.0,0.0,0.0,0.0,0.0,0.0,0.0,0.0,0.0,0.0,0.0,-1.9158,-1.9823,-1.9861,-1.9861,-1.9861,-1.9861,-1.9422,-1.8894,-1.8304,-1.779,0.0,0.0,0.0,0.0,0.0,0.0,0.0,0.0,0.0,0.0,0.0,0.0,0.0,0.0,0.0,0.0,0.0,0.0,0.0,0.0,0.0,0.0,0.0,0.0,0.0,0.0,0.0,0.0,0.0,0.0,0.0,0.0,0.0,0.0,0.0,0.0,0.0,0.0,0.0,0.0,0.0,0.0,0.0,0.0,0.0,0.0,0.0,0.0,0.0,0.0,0.0,0.0,0.0,0.0,0.0,0.0,0.0,0.0,0.0,0.0,0.0,0.0,0.0,0.0,0.0,0.0,0.0,0.0,0.0,0.0,0.0,0.0,0.0,0.0,0.0,0.0,0.0,0.0,0.0,0.0,0.0,0.0,0.0,0.0,0.0,0.0,0.0,0.0,0.0,0.0,0.0,0.0,0.0,0.0,0.0,0.0,0.0,0.0,0.0,0.0,0.0,0.0,-1.8857,-1.9447,0.0,-1.9798,-1.9798,-1.9798,-1.9623,-1.9133,-1.8267,0.0,0.0,0.0,0.0,0.0,0.0,0.0,0.0,0.0,0.0,0.0,0.0,0.0,0.0,0.0,0.0,0.0,0.0,0.0,0.0,0.0,0.0,0.0,0.0,0.0,0.0,0.0,0.0,0.0,0.0,0.0,0.0,0.0,0.0,0.0,0.0,0.0,0.0,0.0,0.0,0.0,0.0,0.0,0.0,0.0,0.0,0.0,0.0,0.0,0.0,0.0,0.0,0.0,0.0,0.0,0.0,0.0,0.0,0.0,0.0,0.0,0.0,0.0,0.0,0.0,0.0,0.0,0.0,0.0,0.0,0.0,0.0,0.0,0.0,0.0,0.0,0.0,0.0,0.0,0.0,0.0,0.0,0.0,0.0,0.0,0.0,0.0,0.0,0.0,0.0,0.0,0.0,0.0,0.0,0.0,0.0,0.0,0.0,0.0,0.0,0.0,0.0,-1.8154,-1.8832,-1.9409,0.0,-1.9798,-1.9798,-1.9798,-1.9497,-1.8982,-1.8254,0.0,0.0,0.0,0.0,0.0,0.0,0.0,0.0,0.0,0.0,0.0,0.0,0.0,0.0,0.0,0.0,0.0,0.0,0.0,0.0,0.0,0.0,0.0,0.0,0.0,0.0,0.0,0.0,0.0,0.0,0.0,0.0,0.0,0.0,0.0,0.0,0.0,0.0,0.0,0.0,0.0,0.0,0.0,0.0,0.0,0.0,0.0,0.0,0.0,0.0,0.0,0.0,0.0,0.0,0.0,0.0,0.0,0.0,0.0,0.0,0.0,0.0,0.0,0.0,0.0,0.0,0.0,0.0,0.0,0.0,0.0,0.0,0.0,0.0,0.0,0.0,0.0,0.0,0.0,0.0,0.0,0.0,0.0,0.0,0.0,0.0,0.0,0.0,0.0,0.0,0.0,0.0,0.0,0.0,0.0,0.0,0.0,0.0,0.0,0.0,0.0,0.0,-1.8204,-1.9145,-1.9798,-1.9798,-1.9798,-1.9798,-1.9798,-1.8832,-1.8216,0.0,0.0,0.0,0.0,0.0,0.0,0.0,0.0,0.0,0.0,0.0,0.0,0.0,0.0,0.0,0.0,0.0,0.0,0.0,0.0,0.0,0.0,0.0,0.0,0.0,0.0,0.0,0.0,0.0,0.0,0.0,0.0,0.0,0.0,0.0,0.0,0.0,0.0,0.0,0.0,0.0,0.0,0.0,0.0,0.0,0.0,0.0,0.0,0.0,0.0,0.0,0.0,0.0,0.0,0.0,0.0,0.0,0.0,0.0,0.0,0.0,0.0,0.0,0.0,0.0,0.0,0.0,0.0,0.0,0.0,0.0,0.0,0.0,0.0,0.0,0.0,0.0,0.0,0.0,0.0,0.0,0.0,0.0,0.0,0.0,0.0,0.0,0.0,0.0,0.0,0.0,0.0,0.0,0.0,0.0,0.0,0.0,0.0,0.0,0.0,0.0,0.0,0.0,-1.8204,-1.9145,-1.9798,-1.9798,-1.9798,-1.9798,-1.9798,-1.9183,-1.8618,-1.8229,0.0,0.0,0.0,0.0,0.0,0.0,0.0,0.0,0.0,0.0,0.0,0.0,0.0,0.0,0.0,0.0,0.0,0.0,0.0,0.0,0.0,0.0,0.0,0.0,0.0,0.0,0.0,0.0,0.0,0.0,0.0,0.0,0.0,0.0,0.0,0.0,0.0,0.0,0.0,0.0,0.0,0.0,0.0,0.0,0.0,0.0,0.0,0.0,0.0,0.0,0.0,0.0,0.0,0.0,0.0,0.0,0.0,0.0,0.0,0.0,0.0,0.0,0.0,0.0,0.0,0.0,0.0,0.0,0.0,0.0,0.0,0.0,0.0,0.0,0.0,0.0,0.0,0.0,0.0,0.0,0.0,0.0,0.0,0.0,0.0,0.0,0.0,0.0,0.0,0.0,0.0,0.0,0.0,0.0,0.0,0.0,0.0,0.0,0.0,0.0,0.0,0.0,-1.7846,-1.8983,-1.9798,-1.9798,-1.9798,-1.9798,-1.9798,-1.9334,-1.8794,-1.8242,0.0,0.0,0.0,0.0,0.0,0.0,0.0,0.0,0.0,0.0,0.0,0.0,0.0,0.0,0.0,0.0,0.0,0.0,0.0,0.0,0.0,0.0,0.0,0.0,0.0,0.0,0.0,0.0,0.0,0.0,0.0,0.0,0.0,0.0,0.0,0.0,0.0,0.0,0.0,0.0,0.0,0.0,0.0,0.0,0.0,0.0,0.0,0.0,0.0,0.0,0.0,0.0,0.0,0.0,0.0,0.0,0.0,0.0,0.0,0.0,0.0,0.0,0.0,0.0,0.0,0.0,0.0,0.0,0.0,0.0,0.0,0.0,0.0,0.0,0.0,0.0,0.0,0.0,0.0,0.0,0.0,0.0,0.0,0.0,0.0,0.0,0.0,0.0,0.0,0.0,0.0,0.0,0.0,0.0,0.0,0.0,0.0,0.0,0.0,0.0,0.0,0.0,-1.7388,-1.882,-1.9798,-1.9798,-1.9798,-1.9798,-1.9798,-1.9334,-1.8758,-1.8209,0.0,0.0,0.0,0.0,0.0,0.0,0.0,0.0,0.0,0.0,0.0,0.0,0.0,0.0,0.0,0.0,0.0,0.0,0.0,0.0,0.0,0.0,0.0,0.0,0.0,0.0,0.0,0.0,0.0,0.0,0.0,0.0,0.0,0.0,0.0,0.0,0.0,0.0,0.0,0.0,0.0,0.0,0.0,0.0,0.0,0.0,0.0,0.0,0.0,0.0,0.0,0.0,0.0,0.0,0.0,0.0,0.0,0.0,0.0,0.0,-1.2617,0.0,0.0,0.0,0.0,0.0,0.0,0.0,0.0,0.0,0.0,0.0,0.0,0.0,0.0,0.0,0.0,0.0,0.0,0.0,0.0,0.0,0.0,0.0,0.0,0.0,0.0,0.0,0.0,0.0,0.0,0.0,0.0,0.0,0.0,0.0,0.0,0.0,0.0,0.0,0.0,0.0,-1.7954,-1.9033,-1.9798,-1.9798,-1.9798,-1.9798,-1.9798,-1.9334,-1.871,-1.7989,-1.7622,0.0,0.0,0.0,0.0,0.0,0.0,0.0,0.0,0.0,0.0,0.0,0.0,0.0,0.0,0.0,0.0,0.0,0.0,0.0,0.0,0.0,0.0,0.0,0.0,0.0,0.0,0.0,0.0,0.0,0.0,0.0,0.0,0.0,0.0,0.0,0.0,0.0,0.0,0.0,0.0,0.0,0.0,0.0,0.0,0.0,0.0,0.0,0.0,0.0,0.0,0.0,0.0,0.0,0.0,0.0,0.0,0.0,0.0,0.0,0.0,-1.5003,0.0,0.0,0.0,0.0,0.0,0.0,0.0,0.0,0.0,0.0,0.0,0.0,0.0,0.0,0.0,0.0,0.0,0.0,0.0,0.0,0.0,0.0,0.0,0.0,0.0,0.0,0.0,0.0,0.0,0.0,0.0,0.0,0.0,0.0,0.0,0.0,0.0,0.0,0.0,0.0,-1.6715,-1.7918,-1.8715,-1.8715,-1.8715,-1.8715,-1.8715,-1.8477,-1.8059,-1.7427,-1.7193,0.0,0.0,0.0,0.0,0.0,0.0,0.0,0.0,0.0,0.0,0.0,0.0,0.0,0.0,0.0,0.0,0.0,0.0,0.0,0.0,0.0,0.0,0.0,0.0,0.0,0.0,0.0,0.0,0.0,0.0,0.0,0.0,0.0,0.0,0.0,0.0,0.0,0.0,0.0,0.0,0.0,0.0,0.0,0.0,0.0,0.0,0.0,0.0,0.0,0.0,0.0,0.0,0.0,-1.4904,-1.5606,-1.5685,-1.6771,-1.7705,-1.844,-1.7636,-1.7853,-1.8701,0.0,0.0,0.0,0.0,0.0,0.0,0.0,0.0,0.0,0.0,0.0,0.0,0.0,0.0,0.0,0.0,0.0,0.0,0.0,0.0,0.0,0.0,0.0,0.0,0.0,-1.8496,-1.8262,0.0,0.0,0.0,0.0,0.0,0.0,0.0,0.0,0.0,0.0,0.0,0.0,-1.5456,-1.6741,-1.7578,-1.7578,-1.7578,-1.7578,-1.7578,-1.7578,-1.7345,-1.6784,-1.6791,-1.6505,0.0,0.0,0.0,0.0,0.0,0.0,0.0,0.0,0.0,0.0,0.0,0.0,0.0,0.0,0.0,0.0,0.0,0.0,0.0,0.0,0.0,0.0,0.0,0.0,0.0,0.0,0.0,0.0,0.0,0.0,0.0,0.0,-0.554,-0.6135,0.0,0.0,0.0,0.0,0.0,0.0,0.0,0.0,0.0,0.0,0.0,0.0,0.0,-1.3134,-1.3675,-1.5068,-1.5792,-1.5844,-1.7355,-1.8126,-1.8126,-1.9221,-1.9805,-1.997,-2.0761,0.0,-1.9189,-1.9082,0.0,0.0,0.0,0.0,0.0,0.0,0.0,0.0,0.0,0.0,0.0,0.0,0.0,0.0,0.0,0.0,0.0,0.0,0.0,0.0,0.0,0.0,-1.9502,-1.9189,-1.916,-1.9121,0.0,-1.7656,-1.6611,-1.6494,0.0,0.0,0.0,0.0,0.0,0.0,0.0,0.0,-1.653,-1.7178,-1.7578,-1.7578,-1.7578,-1.7578,-1.7578,-1.7578,-1.728,-1.6567,-1.671,-1.6245,-1.5019,-1.5068,0.0,0.0,0.0,0.0,0.0,0.0,0.0,0.0,0.0,0.0,0.0,0.0,0.0,0.0,0.0,0.0,0.0,0.0,0.0,0.0,0.0,0.0,0.0,0.0,0.0,0.0,0.0,0.0,0.0,-0.5291,-0.5752,-0.6127,-0.6088,-0.6219,0.0,0.0,0.0,0.0,0.0,0.0,0.0,0.0,0.0,-1.3316,-1.3774,-1.4148,-1.4576,-1.5886,-1.6635,-1.6815,-1.8891,-1.9957,-2.0158,-2.1087,-2.1513,-2.1504,-2.1806,-2.1455,-2.0732,-2.0478,-2.0117,-1.9678,0.0,0.0,0.0,0.0,-1.8613,-1.8545,-1.9209,-1.9443,0.0,0.0,0.0,0.0,0.0,0.0,0.0,0.0,0.0,0.0,0.0,0.0,0.0,-1.999,-2.001,-1.9941,-1.9697,-1.8867,-1.8027,0.0,-1.6992,-1.6289,-1.5303,0.0,0.0,0.0,0.0,-1.5365,-1.5628,-1.6078,-1.6358,-1.6358,-1.6358,-1.6358,-1.6358,-1.6358,-1.6244,-1.5921,-1.5956,-1.5731,-1.5137,-1.5004,-1.4686,0.0,0.0,0.0,0.0,0.0,0.0,0.0,0.0,0.0,0.0,0.0,0.0,0.0,0.0,0.0,0.0,0.0,0.0,0.0,0.0,0.0,0.0,0.0,0.0,0.0,0.0,0.0,0.0,-0.5752,-0.6165,-0.6108,-0.6813,-0.739,0.0,0.0,0.0,0.0,0.0,0.0,-1.2512,-1.3404,-1.4135,-1.4723,-1.4994,-1.5315,-1.5722,-1.7196,-1.8016,-1.8261,-2.0413,-2.1558,-2.1747,-2.2361,-2.2676,-2.2656,-2.2344,-2.2207,-2.2168,-2.1621,-2.1201,-2.0869,-2.0547,-1.9961,-1.9355,-1.9795,-1.9805,-1.9727,-2.0469,-2.0664,-2.0508,-2.0185,0.0,-1.8691,-1.8066,0.0,0.0,0.0,0.0,-1.9141,-1.9883,-2.0078,-2.0137,-2.0352,-2.04,-2.0283,-1.9844,-1.9424,-1.8936,0.0,-1.7998,-1.7441,-1.6143,0.0,0.0,0.0,0.0,-1.4941,-1.4941,-1.5215,-1.541,-1.541,-1.541,-1.541,-1.541,-1.541,-1.541,-1.541,-1.541,-1.541,-1.541,-1.5107,-1.4893,-1.4785,0.0,0.0,0.0,0.0,0.0,0.0,0.0,0.0,0.0,0.0,0.0,0.0,0.0,0.0,0.0,0.0,0.0,0.0,0.0,0.0,0.0,0.0,0.0,0.0,0.0,0.0,0.0,0.0,0.0,-0.6572,-0.8586,0.0,0.0,0.0,0.0,-1.1714,-1.2593,-1.3473,-1.4316,-1.4376,-1.4743,-1.5337,-1.6497,-1.7189,-1.7546,-1.9884,-2.106,-2.1078,-2.2366,-2.3028,-2.3047,-2.3028,-2.3105,-2.3105,-2.3086,-2.3076,-2.3018,-2.2197,-2.1836,-2.1816,-2.1797,-2.1514,-2.1152,-2.1592,-2.123,-2.0566,-2.1035,-2.0918,-2.0634,-2.0537,-1.9951,-1.9248,-1.9209,-1.8896,0.0,0.0,-1.9541,-1.9961,-2.041,-2.0527,-2.0439,-2.0039,-1.9951,-1.9824,-1.9404,-1.8975,-1.8652,0.0,-1.7959,-1.7393,-1.7305,0.0,-1.6076,-1.6037,-1.5635,-1.5381,-1.5381,-1.54,-1.541,-1.541,-1.541,-1.541,-1.541,-1.541,-1.541,-1.541,-1.541,-1.541,-1.541,-1.5391,-1.5195,-1.4795,-1.4746,0.0,0.0,0.0,0.0,0.0,0.0,0.0,0.0,0.0,0.0,0.0,0.0,0.0,0.0,0.0,0.0,0.0,0.0,0.0,0.0,0.0,0.0,0.0,0.0,0.0,0.0,0.0,0.0,-0.7619,-0.8639,0.0,-1.0343,-1.141,-1.2374,-1.3246,-1.4117,-1.4756,-1.507,-1.5264,-1.5458,-1.5665,-1.6865,-1.7565,-1.7692,-2.0124,-2.1293,-2.1293,-2.2492,-2.3135,-2.3135,-2.3135,-2.3135,-2.3135,-2.3135,-2.3135,-2.3115,-2.2812,-2.2539,-2.2295,-2.2295,-2.2031,-2.167,-2.1826,-2.1855,-2.1807,-2.1689,-2.1553,-2.1318,-2.0752,-2.0361,-2.0117,-2.0117,-2.0,-1.9912,-2.0068,-2.0225,-2.0303,-2.0176,-2.0146,-2.0039,-1.9619,-1.9512,-1.9394,-1.8965,-1.875,-1.8484,-1.8281,-1.7988,-1.7705,-1.7432,-1.6885,-1.6396,-1.6164,-1.5693,-1.541,-1.541,-1.541,-1.541,-1.541,-1.541,-1.541,-1.541,-1.541,-1.5293,-1.5029,-1.5264,-1.5293,-1.5019,-1.5264,-1.5342,-1.5186,-1.4922,-1.4502,0.0,0.0,0.0,0.0,0.0,0.0,0.0,0.0,0.0,0.0,0.0,0.0,0.0,0.0,0.0,0.0,0.0,0.0,0.0,0.0,0.0,0.0,0.0,0.0,0.0,0.0,-0.7342,-0.829,-0.9289,-1.0501,-1.1858,-1.2741,-1.3608,-1.4516,-1.507,-1.5438,-1.5538,-1.5725,-1.6015,-1.6386,-1.7677,-1.8503,-1.8956,-2.0944,-2.1933,-2.1943,-2.2677,-2.3135,-2.3135,-2.3135,-2.3135,-2.3135,-2.3135,-2.3135,-2.3135,-2.3135,-2.2969,-2.2725,-2.2725,-2.2549,-2.2295,-2.2148,-2.2187,-2.2217,-2.1641,-2.1435,-2.1348,-2.0752,-2.0566,-2.0566,-2.0566,-2.0566,-2.0566,-2.0566,-2.0566,-2.0469,-2.0029,-1.9912,-1.9775,-1.9199,-1.9072,-1.8955,-1.8516,-1.8428,-1.834,-1.8057,-1.8008,-1.792,-1.7646,-1.7109,-1.6631,-1.6338,-1.5791,-1.541,-1.541,-1.541,-1.541,-1.541,-1.541,-1.541,-1.541,-1.541,-1.5293,-1.501,-1.5023,-1.4868,-1.4592,-1.4716,-1.4849,-1.4991,-1.4667,-1.4288,-1.3798,0.0,0.0,0.0,0.0,0.0,0.0,0.0,0.0,0.0,0.0,0.0,0.0,0.0,0.0,0.0,0.0,0.0,0.0,0.0,0.0,0.0,0.0,0.0,-0.6051,-0.7363,-0.841,-0.8496,-1.0758,-1.2419,-1.2607,-1.3739,-1.477,-1.5344,-1.5398,-1.5531,-1.5812,-1.5832,-1.6386,-1.7598,-1.8864,-2.0034,-2.1203,-2.2492,-2.3135,-2.3135,-2.3135,-2.3135,-2.3135,-2.3135,-2.3135,-2.3135,-2.3135,-2.3135,-2.3135,-2.3135,-2.3135,-2.3135,-2.3135,-2.3135,-2.3066,-2.2656,-2.2236,-2.1738,-2.0889,-2.0576,-2.0566,-2.0566,-2.0566,-2.0566,-2.0566,-2.0566,-2.0566,-2.0566,-2.0557,-2.0449,-2.001,-1.9883,-1.9658,-1.8747,-1.8543,-1.8426,-1.8027,-1.794,-1.794,-1.794,-1.794,-1.794,-1.792,-1.722,-1.6665,-1.6583,-1.5846,0.0,-1.5352,-1.5352,-1.5352,-1.5352,-1.541,-1.541,-1.5352,-1.5352,-1.5342,-1.5332,-1.456,-1.4154,-1.4154,-1.3803,-1.3794,-1.4181,-1.4052,-1.3743,-1.3244,0.0,0.0,0.0,0.0,0.0,0.0,0.0,0.0,0.0,0.0,0.0,0.0,0.0,0.0,0.0,0.0,0.0,0.0,0.0,0.0,0.0,-0.6149,-0.6515,-0.6515,-0.7694,-0.8994,-0.9899,-1.1384,-1.2681,-1.3568,-1.4368,-1.491,-1.507,-1.5471,-1.5745,-1.5825,-1.5832,-1.592,-1.6292,-1.8403,-1.967,-2.0034,-2.2041,-2.3135,-2.3135,-2.3135,-2.3135,-2.3135,-2.3135,-2.3135,-2.3135,-2.3135,-2.3135,-2.3135,-2.3135,-2.3135,-2.3135,-2.3135,-2.2949,-2.2676,-2.2549,-2.2041,-2.1377,-2.1133,-2.084,-2.0566,-2.0566,-2.0566,-2.0566,-2.0566,-2.0566,-2.0566,-2.0566,-2.0332,-2.0,-1.957,-1.9228,-1.8624,-1.7427,-1.7158,-1.6921,-1.6105,-1.5948,-1.5948,-1.5948,-1.5948,-1.6131,-1.6536,-1.6197,-1.5496,-1.4565,-1.3978,0.0,-1.3666,-1.4154,-1.451,-1.451,-1.505,-1.5167,-1.4569,-1.451,-1.4146,-1.3284,-1.328,-1.3312,-1.3191,-1.3342,-1.3601,-1.3978,-1.3592,-1.3451,0.0,0.0,0.0,0.0,0.0,0.0,0.0,0.0,0.0,0.0,0.0,0.0,0.0,0.0,0.0,0.0,0.0,0.0,0.0,0.0,0.0,0.0,-0.6444,-0.6817,-0.6875,-0.7554,-0.8673,-1.0423,-1.1209,-1.2289,-1.4078,-1.4689,-1.5017,-1.5137,-1.5571,-1.5832,-1.5832,-1.5832,-1.6015,-1.6574,-1.7948,-1.8956,-1.9497,-2.14,-2.2315,-2.2306,-2.2862,-2.3135,-2.3135,-2.3135,-2.3135,0.0,-2.2949,-2.2969,-2.3105,-2.2754,-2.2715,0.0,0.0,0.0,0.0,0.0,-2.1543,-2.0957,-2.0957,-2.0781,-2.0566,-2.0566,-2.0566,-2.0566,-2.0566,-2.0323,-2.0001,-2.0479,-1.9687,-1.8644,-1.8712,-1.8061,-1.7206,-1.6237,-1.6,-1.586,-1.5305,-1.5234,-1.5234,-1.5234,0.0,0.0,-1.479,-1.4884,-1.4608,-1.3722,-1.3232,-1.3009,-1.3009,-1.3433,-1.3726,-1.3726,-1.4145,-1.4213,-1.3726,-1.3726,0.0,0.0,0.0,-1.2602,-1.2484,-1.2883,0.0,0.0,0.0,0.0,0.0,0.0,0.0,0.0,-1.3975,-1.4235,0.0,0.0,0.0,0.0,0.0,0.0,0.0,0.0,0.0,0.0,0.0,0.0,0.0,0.0,0.0,0.0,-0.6671,-0.6997,-0.7122,-0.7139,-0.7921,-1.0178,-1.0611,-1.1732,-1.3996,-1.4648,-1.5037,-1.5324,-1.5618,-1.5792,-1.5832,0.0,0.0,0.0,0.0,-1.8234,-1.9314,-2.0477,-2.1114,-2.1114,-2.2306,-2.2862,-2.2862,-2.3047,-2.3115,-2.3047,-2.2676,-2.2695,-2.2939,-2.2197,-2.208,-2.2363,-2.2363,-2.2363,-2.2266,-2.1293,-2.074,0.0,0.0,0.0,0.0,-2.0235,-2.0235,-2.0235,-2.0235,-1.9599,-1.9027,-1.9944,-1.8578,-1.6943,-1.7503,-1.6729,-1.5624,-1.5166,-1.5021,-1.5021,-1.4879,-1.4846,-1.4822,-1.4822,-1.453,-1.397,-1.2908,-1.3372,-1.377,-1.3339,-1.2959,-1.2704,-1.2704,-1.2826,-1.2887,-1.2887,0.0,0.0,-1.2879,-1.292,-1.2951,-1.314,-1.252,-1.2109,-1.1978,-1.2438,-1.2684,-1.2834,-1.3208,-1.3379,-1.3213,-1.35,-1.3579,-1.3667,-1.3933,-1.438,0.0,0.0,0.0,0.0,0.0,0.0,0.0,0.0,0.0,0.0,0.0,0.0,0.0,0.0,0.0,-0.6566,-0.6888,-0.7109,-0.7136,-0.7139,-0.7665,-0.9061,-1.0869,-1.2174,-1.2661,-1.3889,-1.473,-1.5023,-1.5317,-1.5585,-1.5818,-1.5832,0.0,-1.6204,-1.7131,-1.7777,-1.8056,-1.9222,-1.9852,-1.9852,0.0,0.0,-2.1658,-2.2677,-2.2959,-2.2627,-2.2549,-2.2363,-2.2119,-2.1953,-2.1728,-2.1484,-2.1484,-2.1484,-2.1254,-1.9906,-1.9347,-1.9195,-1.823,-1.79,-1.79,-1.79,-1.79,-1.79,-1.79,-1.7819,0.0,-1.7595,-1.6995,-1.632,-1.6269,-1.5752,-1.5103,-1.4186,-1.3954,-1.381,-1.3018,-1.2683,-1.2508,-1.2508,-1.2256,-1.188,-1.1455,-1.2116,-1.2387,-1.1312,-1.1087,-1.1052,-1.1052,-1.1655,-1.2012,-1.2012,-1.2634,-1.2757,-1.2081,-1.2201,-1.2134,-1.15,-1.1771,-1.197,-1.19,-1.2186,-1.2376,-1.2437,-1.273,-1.2993,-1.3213,-1.35,-1.3768,-1.3995,-1.4084,-1.4186,0.0,0.0,0.0,0.0,0.0,0.0,0.0,0.0,0.0,0.0,0.0,-0.5569,-0.5871,0.0,-0.6464,-0.6766,-0.6997,-0.7139,-0.7139,-0.7078,-0.7494,-0.879,-0.9923,-1.1042,-1.2151,-1.3095,-1.4007,-1.4937,-1.5237,-1.5524,-1.5812,-1.5832,-1.5832,-1.5832,-1.6386,-1.6763,-1.6763,-1.7956,-1.8596,-1.8588,-1.9852,-2.0395,-2.0387,-2.0838,-2.1011,-2.0802,-2.0404,-2.0232,-2.0214,-2.0023,-1.9706,-1.9255,-1.9255,-1.9595,-1.9977,-1.8629,-1.8149,-1.8069,-1.7504,-1.7342,-1.7342,-1.7342,-1.7342,-1.7342,-1.7342,-1.6806,-1.6381,-1.6822,-1.5769,-1.4577,-1.5009,-1.4417,-1.3593,-1.3091,-1.3025,-1.2837,-1.2256,-1.1971,-1.1824,-1.1677,-1.141,-1.1162,-1.1015,-1.1258,-1.1291,-1.0708,-1.0624,-1.0624,-1.0624,-1.0926,-1.1226,-1.1226,-1.1538,-1.1663,-1.1226,-1.1588,-1.1727,-1.1491,-1.1844,-1.2084,-1.2084,-1.2225,-1.2371,-1.2518,-1.2826,-1.3126,-1.3427,-1.3721,-1.3941,-1.4088,-1.4088,-1.4168,0.0,0.0,0.0,0.0,0.0,0.0,0.0,-0.5325,-0.5634,-0.5693,-0.5701,-0.5833,-0.6193,-0.6403,-0.6607,-0.6881,-0.7048,-0.7139,-0.7139,-0.7017,-0.7314,-0.8388,-0.8752,-0.9607,-1.1395,-1.2313,-1.3197,-1.448,-1.5053,-1.5438,-1.5732,-1.5798,-1.5832,-1.5832,-1.5832,-1.5832,-1.5832,-1.685,-1.7318,-1.7318,-1.8517,-1.9058,-1.9123,-1.9051,-1.9029,-1.8899,-1.8178,-1.802,-1.8354,-1.7979,-1.7606,-1.7261,-1.709,-1.7577,-1.8221,-1.7334,-1.7009,-1.6927,-1.6772,-1.669,-1.669,-1.669,-1.669,-1.6675,-1.6611,-1.5832,-1.5108,-1.5905,-1.4473,-1.2961,-1.3783,-1.3135,-1.2305,-1.2305,-1.2305,-1.2225,-1.1931,-1.1824,-1.1697,-1.1396,-1.1109,-1.0909,-1.0909,-1.0715,-1.0624,-1.0624,-1.0624,-1.0624,-1.0624,-1.0624,-1.0624,-1.0624,-1.0624,-1.0672,-1.0722,-1.1209,-1.1637,-1.1937,-1.2171,-1.2305,-1.2305,-1.2305,-1.2412,-1.2728,-1.3026,-1.3327,-1.3561,-1.3915,-1.4088,-1.4088,-1.4088,-1.4215,-0.298,-0.3914,-0.4984,-0.5241,-0.3936,-0.2854,0.0,-0.4899,-0.5519,-0.5879,-0.6098,-0.6213,-0.6254,-0.6488,-0.6729,-0.6902,-0.7048,-0.7139,-0.7139,-0.7017,-0.6932,-0.7121,-0.8052,-0.8806,-0.9056,-1.1113,-1.2567,-1.3009,-1.4289,-1.5137,-1.5431,-1.5691,-1.5832,-1.5832,-1.5832,-1.5832,-1.5832,-1.592,-1.6015,-1.6008,-1.6996,-1.7652,-1.794,-1.8442,-1.8559,-1.844,-1.7714,-1.7425,-1.7458,-1.7416,-1.7375,-1.7172,-1.6273,-1.5944,-1.6026,-1.5944,-1.5861,-1.5703,-1.4817,-1.4496,-1.4496,-1.4496,-1.4496,-1.4364,-1.409,-1.3906,-1.3689,-1.3374,-1.3022,-1.2761,-1.2567,-1.2399,-1.2305,-1.2305,-1.2305,-1.2225,-1.1931,-1.1663,-1.139,-1.1096,-1.0808,-1.0672,-1.0672,-1.0645,-1.0624,-1.0624,-1.0624,-1.0624,-1.0624,-1.0624,-1.0624,-1.0624,-1.0624,-1.0768,-1.1283,-1.163,-1.1944,-1.2231,-1.2285,-1.2305,-1.2305,-1.2305,-1.2318,-1.2351,-1.2919,-1.3227,-1.326,-1.3814,-1.4088,-1.4088,-1.4088,-1.4108,-0.1118,-0.1605,-0.2597,-0.4827,-0.4956,-0.4109,-0.2193,-0.3887,-0.5622,-0.4508,-0.5387,-0.6294,-0.6294,-0.6421,-0.6579,-0.6892,-0.6976,-0.7017,-0.7017,-0.6892,-0.6763,-0.6675,-0.7152,-0.7827,-0.8598,-0.9606,-1.0904,-1.2686,-1.3358,-1.4257,-1.5371,-1.5511,-1.5658,-1.5825,-1.5832,-1.5832,-1.5832,-1.5832,-1.5832,-1.5825,-1.6248,-1.6434,-1.6553,-1.6555,-1.6314,-1.586,-1.5587,-1.547,-1.547,-1.547,-1.547,-1.5387,-1.4977,-1.4734,-1.4734,-1.4734,-1.4734,-1.4734,-1.425,-1.4088,-1.4055,-1.3881,-1.3828,-1.3774,-1.348,-1.3267,-1.3066,-1.2896,-1.2694,-1.2458,-1.2338,-1.2305,-1.2305,-1.2305,-1.2305,-1.2225,-1.1931,-1.177,-1.1597,-1.1303,-1.1009,-1.0815,-1.0815,-1.0675,-1.0678,-1.0788,-1.0668,-1.0624,-1.0624,-1.0624,-1.0624,-1.0624,-1.0715,-1.0982,-1.139,-1.1697,-1.1991,-1.2285,-1.2305,-1.2305,-1.2305,-1.2305,-1.2305,-1.2305,-1.2726,-1.3026,-1.3213,-1.3627,-1.3915,-1.4088,-1.4088,-1.4088,-0.0,-0.0,-0.064,-0.3266,-0.4242,-0.3753,-0.0673,-0.2361,-0.4281,-0.3273,-0.3862,-0.4709,-0.5297,-0.5931,-0.6377,-0.6739,-0.6905,-0.6946,-0.6983,-0.682,-0.6675,-0.6607,-0.662,-0.704,-0.8082,-0.8572,-0.9565,-1.1526,-1.212,-1.2901,-1.4216,-1.4593,-1.4913,-1.5119,-1.5437,-1.5625,-1.5712,-1.5712,-1.5752,-1.5825,-1.5665,-1.5631,-1.5691,-1.5104,-1.4563,-1.4088,-1.4088,-1.4088,-1.4088,-1.4088,-1.4088,-1.4088,-1.4088,-1.4088,-1.4088,-1.4088,-1.4088,-1.4088,-1.4088,-1.4035,-1.3928,-1.3714,-1.3587,-1.3467,-1.3173,-1.2926,-1.2802,-1.2721,-1.2472,-1.2305,-1.2305,-1.2305,-1.2305,-1.2305,-1.2305,-1.2225,-1.1931,-1.187,-1.1784,-1.1483,-1.1256,-1.1109,-1.1109,-1.0942,-1.0868,-1.1082,-1.0935,-1.0768,-1.0688,-1.0672,-1.0624,-1.0624,-1.0895,-1.1196,-1.141,-1.177,-1.2078,-1.2285,-1.2305,-1.2305,-1.2305,-1.2305,-1.2305,-1.2305,-1.2592,-1.2899,-1.3213,-1.35,-1.3622,-1.3561,-1.3561,-1.347,-0.0,-0.0,-0.0,-0.0144,-0.0146,-0.0146,-0.0,-0.0073,-0.0728,-0.2693,-0.1527,-0.0806,-0.2859,-0.487,-0.6393,-0.6592,-0.6851,-0.708,-0.7115,-0.6885,-0.6753,-0.6898,-0.6658,-0.6597,-0.6898,-0.8092,-0.8886,-0.8982,-1.049,-1.137,-1.138,-1.2702,-1.3491,-1.3496,-1.4481,-1.5124,-1.5404,-1.5411,-1.5551,-1.5818,-1.5257,-1.5137,-1.5391,-1.4803,-1.4369,-1.4088,-1.4088,-1.4088,-1.4088,-1.4088,-1.4088,-1.4088,-1.4088,-1.4088,-1.4088,-1.4088,-1.4088,-1.4088,-1.4088,-1.3901,-1.3572,-1.3566,-1.3454,-1.3166,-1.2852,-1.2829,-1.2761,-1.2398,-1.2311,-1.2305,-1.2305,-1.2305,-1.2305,-1.2305,-1.2305,-1.2225,-1.1931,-1.187,-1.1784,-1.1483,-1.1416,-1.141,-1.141,-1.1403,-1.1403,-1.141,-1.1403,-1.1296,-1.1015,-1.0735,-1.0624,-1.0624,-1.1069,-1.1416,-1.1423,-1.1957,-1.2291,-1.2305,-1.2305,-1.2305,-1.2305,-1.2305,-1.2305,-1.2305,-1.2592,-1.2899,-1.3213,-1.35,-1.3195,-1.2328,-1.2328,-1.1724,0.1815,0.0939,-0.0,-0.0,-0.0,-0.0,-0.0,-0.0,-0.0214,-0.087,-0.0496,-0.021,-0.0949,-0.163,-0.2588,-0.4053,-0.5696,-0.6871,-0.7104,-0.7025,-0.6936,-0.6719,-0.6699,-0.6817,-0.6919,-0.7314,0.0,-0.8794,-0.9468,-1.0243,-1.1145,-1.1726,-1.2037,-1.2124,-1.2512,-1.3065,-1.3896,-1.3902,-1.4409,-1.5251,-1.5057,-1.491,-1.481,-1.4609,-1.4362,-1.4088,-1.4088,-1.4088,-1.4088,-1.4088,-1.4088,-1.4088,-1.4088,-1.4088,-1.4088,-1.4088,-1.3961,-1.3794,-1.3794,-1.3728,-1.3581,-1.3173,-1.2986,-1.2846,-1.2538,-1.2452,-1.2432,-1.2331,-1.2305,-1.2305,-1.2305,-1.2305,-1.2305,-1.2305,-1.2305,-1.2278,-1.2178,-1.2158,-1.2131,-1.2024,-1.185,-1.1724,-1.1724,-1.1557,-1.149,-1.169,-1.155,-1.139,-1.1289,-1.1196,-1.1136,-1.1136,-1.1483,-1.1724,-1.1724,-1.2078,-1.2003,-1.1316,-1.1922,-1.1996,-1.1316,-1.1316,-1.1316,-1.1316,-1.0889,-1.0746,-1.0997,-1.1249,-1.1242,-1.1209,-1.1209,-1.095,0.3632,0.2817,0.1793,0.1114,0.0991,0.093,0.0992,0.0978,0.0761,0.0139,-0.0,-0.0,-0.0,-0.0,-0.0437,-0.1736,-0.3265,-0.4699,-0.5717,-0.582,-0.6064,-0.6728,-0.688,-0.7037,-0.7092,-0.7139,0.0,-0.8282,-0.8493,-0.8962,-0.9808,-1.0287,-1.06,-1.0606,-1.0985,-1.1616,-1.2434,-1.2434,-1.28,-1.3613,-1.3613,-1.3654,-1.3732,-1.3732,-1.3821,-1.4088,-1.4088,-1.4088,-1.4088,-1.4088,-1.4088,-1.4088,-1.4088,-1.4088,-1.4088,-1.4088,-1.3901,-1.3559,-1.3559,-1.35,-1.326,-1.2872,-1.2755,-1.2552,-1.2365,-1.2305,-1.2305,-1.2305,-1.2305,-1.2305,-1.2305,-1.2305,-1.2305,-1.2305,-1.2305,-1.2305,-1.2305,-1.2305,-1.2224,-1.1842,-1.1627,-1.1361,-1.0997,-1.0779,-1.0718,-1.0967,-1.0773,-1.0768,-1.1026,-1.0641,-1.0303,-1.0303,-1.0609,-1.0767,-1.0767,-1.1095,-1.095,-1.0265,-1.087,-1.0944,-1.0265,-1.0265,-1.0304,-1.0312,-0.9772,-0.9682,-0.9983,-1.0128,-1.0144,-1.0009,-1.0009,-0.9749,0.5276,0.5389,0.5011,0.3249,0.2853,0.2835,0.2825,0.2809,0.2326,0.0582,0.0193,0.0065,-0.0,-0.0,-0.0,-0.0,-0.0,-0.0824,-0.3105,-0.3384,-0.42,-0.645,-0.6821,-0.7052,-0.738,-0.7512,0.0,-0.7383,0.0,-0.7746,-0.7597,-0.8606,-0.9163,-0.8968,-0.9934,-1.0624,-1.1013,-1.1018,-1.1107,-1.1107,-1.1107,-1.1428,-1.2242,-1.2242,-1.2857,-1.3913,-1.3913,-1.3913,-1.3913,-1.3913,-1.3913,-1.3913,-1.3913,-1.3913,-1.3913,-1.3899,-1.3701,-1.3451,-1.3437,-1.3141,-1.2822,-1.2802,-1.2532,-1.2305,-1.2305,-1.2305,-1.2305,-1.2305,-1.2305,-1.2305,-1.2305,-1.2305,-1.2305,-1.2305,-1.2224,-1.2224,-1.2224,-1.215,-1.1848,-1.0938,-1.0714,-1.0415,-0.9448,-0.9296,-0.9296,-0.9296,-0.9221,-0.9515,-1.0237,-0.9209,-0.8438,-0.8438,-0.8687,-0.8812,-0.8812,-0.909,-0.9301,-0.9221,-0.9296,-0.9301,-0.9221,-0.9231,-0.9331,-0.9453,-0.9399,-0.9616,-1.0036,-1.0045,-0.9648,-0.8803,-0.8803,-0.8193,0.5122,0.5287,0.5229,0.4617,0.4613,0.4727,0.4733,0.471,0.4541,0.3764,0.2593,0.1309,0.0189,-0.0,-0.0,-0.0,-0.0,-0.0254,-0.0796,-0.0888,-0.1155,-0.1697,-0.3395,-0.529,-0.7337,-0.7468,0.0,0.0,-0.7655,-0.7699,-0.7444,-0.7812,-0.793,-0.7645,-0.7856,-0.8468,-0.9481,-1.026,-1.0696,-1.0696,-1.0696,-1.0835,-1.1037,-1.1037,-1.1214,-1.1477,-1.1477,-1.1477,-1.1477,-1.1477,-1.1477,-1.1477,-1.1477,-1.1477,-1.1455,-1.1354,-1.1134,-1.0821,-1.0732,-1.1612,-1.2788,-1.2485,-1.2365,-1.2305,-1.2305,-1.2305,-1.2305,-1.2305,-1.2305,-1.2305,-1.2305,-1.2305,-1.2305,-1.2305,-1.1694,-1.1162,-1.1162,-1.0565,-0.997,-0.9744,-0.9669,-0.9593,-0.9372,-0.9296,-0.9296,-0.9296,-0.8694,-0.8519,-0.944,-0.9309,-0.905,-0.905,-0.91,-0.9205,-0.9205,-0.9261,-0.8998,-0.8237,-0.8917,-0.8993,-0.8237,-0.8294,-0.8313,-0.8357,-0.7835,-0.7597,-0.7769,-0.7801,-0.7796,-0.7577,-0.7577,-0.7401,0.5053,0.5108,0.5155,0.5067,0.5118,0.5165,0.515,0.5195,0.5148,0.5006,0.4096,0.3073,0.217,0.0887,-0.0,-0.0,-0.0,-0.0,-0.0,-0.0,-0.0,-0.0,-0.1172,-0.3445,-0.7218,-0.6584,-0.6368,0.0,-0.7641,-0.7617,-0.7383,-0.7451,-0.739,-0.7146,-0.7139,-0.7404,-0.8105,-0.8707,-0.9048,-0.9048,-0.9048,-0.9314,-0.9836,-0.9836,-1.0096,-1.0611,0.0,-1.0611,-1.0611,-1.0611,-1.0611,-1.0611,-1.0611,-1.055,-1.0529,-1.0401,-1.0157,-0.9782,-0.9744,-1.0412,-1.1223,-1.1073,-1.095,-1.095,-1.095,-1.095,-1.095,-1.095,-1.095,-1.095,-1.095,-1.095,-1.095,-1.095,-1.0571,-1.0115,-1.0115,-0.9669,-0.9145,-0.8689,-0.8313,-0.8012,-0.8012,-0.8012,-0.8012,-0.8012,-0.748,-0.7326,-0.7936,-0.8012,-0.8012,-0.8012,-0.8012,-0.8012,-0.8012,-0.8012,-0.7706,-0.7176,-0.7706,-0.7706,-0.7176,-0.7254,-0.7377,-0.745,-0.7056,-0.6959,-0.7021,-0.7102,-0.7139,-0.7139,-0.7139,-0.7139,0.4952,0.4918,0.4914,0.4894,0.4904,0.4914,0.4894,0.4904,0.4941,0.5038,0.4886,0.4704,0.4516,0.2403,0.0525,0.007,-0.0,-0.0,-0.0,-0.0,-0.0,-0.0,-0.0,-0.1748,-0.6204,-0.5055,-0.5005,-0.7402,-0.7276,-0.7207,-0.738,-0.7373,-0.7299,-0.7146,-0.7139,-0.7139,-0.7139,-0.7139,-0.7139,-0.7139,-0.7139,-0.7665,-0.8627,-0.8627,-0.9231,-1.0178,0.0,0.0,-1.0178,-1.0178,-1.0178,-1.0086,-1.0149,-1.0023,-0.9932,-0.9873,-0.9619,-0.9306,-0.9277,-0.9072,-0.8917,-0.9221,-0.9296,-0.9296,-0.9296,-0.9296,-0.9296,-0.9296,-0.9296,-0.9296,-0.9296,-0.9296,-0.9296,-0.9296,-0.9221,-0.9069,-0.9069,-0.8993,-0.8613,-0.7783,-0.6872,-0.6338,-0.6338,-0.6338,-0.6338,-0.6338,-0.6338,-0.6338,-0.6338,-0.6338,-0.6338,-0.6338,-0.6338,-0.6338,-0.6338,-0.6338,-0.6338,-0.6338,-0.6338,-0.6338,-0.6338,-0.6396,-0.6536,-0.6668,-0.6841,-0.699,-0.7112,-0.7132,-0.7139,-0.7139,-0.7122,-0.7122,0.4925,0.4918,0.4891,0.4762,0.4826,0.4887,0.4758,0.4826,0.4877,0.4783,0.4752,0.466,0.4541,0.4197,0.3103,0.0428,-0.0,-0.0,-0.0,-0.0,-0.0,-0.0,-0.0,-0.0361,-0.1264,-0.2987,0.0,0.0,0.0,-0.5177,-0.7302,-0.738,-0.7299,-0.7146,-0.7139,-0.7139,-0.7139,-0.7139,-0.7139,-0.7139,-0.7139,-0.7228,-0.7404,-0.7404,-0.7489,-0.7749,0.0,0.0,-0.7749,-0.7749,-0.7749,-0.7738,-0.7609,-0.7543,-0.7484,-0.7289,-0.7152,-0.7009,-0.6958,-0.6894,-0.7099,-0.8765,-0.9296,-0.9296,-0.9296,-0.9296,-0.9296,-0.9296,-0.9296,-0.9296,-0.9296,-0.9296,-0.9296,-0.9296,-0.8694,-0.8084,-0.8084,-0.7403,-0.6795,-0.6567,-0.6416,-0.6338,-0.6338,-0.6338,-0.6338,-0.6338,-0.6338,-0.6338,-0.6338,-0.6338,-0.6338,-0.6338,-0.6338,-0.6338,-0.6338,-0.6338,-0.6338,-0.6338,-0.6338,-0.6338,-0.6338,-0.6396,-0.6485,-0.6512,-0.6787,-0.6943,-0.6966,-0.7085,-0.7139,-0.7136,-0.7021,-0.7027,0.4704,0.468,0.4663,0.4589,0.4626,0.4663,0.4589,0.4629,0.466,0.4585,0.4572,0.4551,0.4539,0.4601,0.4232,0.2843,0.1168,-0.0,-0.0,-0.0,-0.0,-0.0,-0.0,-0.0,-0.0,-0.1167,-0.2875,-0.532,0.0,-0.595,-0.7198,-0.7278,-0.7227,-0.7143,-0.7139,-0.7139,-0.7139,-0.7139,-0.7139,-0.7139,-0.7139,-0.7139,-0.7139,-0.7139,-0.7139,-0.7139,-0.7139,0.0,-0.7139,-0.7139,-0.7095,-0.7024,-0.6956,-0.6831,-0.6675,-0.6525,-0.6427,-0.6352,-0.6285,-0.6338,-0.649,-0.7403,-0.7706,-0.7706,-0.7706,-0.7706,-0.7706,-0.7706,-0.7706,-0.7706,-0.7706,-0.7706,-0.7706,-0.7706,-0.7403,-0.7022,-0.7022,-0.6644,-0.6338,-0.6338,-0.6338,-0.6338,-0.6338,-0.6338,-0.6338,-0.6338,-0.6338,-0.6338,-0.6338,-0.6338,-0.6338,-0.6338,-0.6338,-0.6338,-0.6338,-0.6338,-0.6338,-0.6338,-0.6338,-0.6338,-0.6338,-0.6396,-0.6471,-0.6471,-0.6695,-0.681,-0.681,-0.6878,-0.6912,-0.6909,-0.6841,-0.6848,0.4553,0.4519,0.4519,0.4519,0.4519,0.4519,0.4519,0.4519,0.4519,0.4519,0.4519,0.4519,0.4519,0.4539,0.4677,0.4987,0.2922,0.0902,0.0081,-0.0,-0.0,-0.0,-0.0,-0.0,-0.0,-0.0,0.0,-0.2683,0.0,0.0,-0.6331,-0.6802,-0.7064,-0.7102,-0.7126,-0.7139,-0.7139,-0.7139,-0.7139,-0.7139,-0.7109,-0.7095,-0.7095,-0.7061,-0.7044,-0.7048,-0.7082,0.0,0.0,-0.7129,-0.7058,-0.6926,-0.6892,-0.6712,-0.6468,-0.6437,-0.6356,-0.6338,-0.6338,-0.6338,-0.6338,-0.6338,-0.6338,-0.6338,-0.6338,-0.6338,-0.6338,-0.6338,-0.6338,-0.6338,-0.6338,-0.6338,-0.6338,-0.6338,-0.6338,-0.6338,-0.6338,-0.6338,-0.6338,-0.6338,-0.6338,-0.6338,-0.6338,-0.6338,-0.6338,-0.6338,-0.6338,-0.6338,-0.6338,-0.6338,-0.6338,-0.6338,-0.6338,-0.6338,-0.6338,-0.6338,-0.6338,-0.6338,-0.6338,-0.6338,-0.6338,-0.6369,-0.6427,-0.6427,-0.6573,-0.6651,-0.6651,-0.6685,-0.6702,-0.6705,-0.6671,-0.6678,0.4522,0.4519,0.4519,0.4519,0.4519,0.4519,0.4519,0.4519,0.4519,0.4519,0.4519,0.4519,0.4519,0.4714,0.483,0.4851,0.5021,0.3938,0.0498,-0.0,-0.0,-0.0,-0.0,-0.0,-0.0,-0.0,-0.0087,0.0,0.0,0.0,-0.3821,-0.594,-0.7112,-0.7059,-0.7082,-0.7139,-0.7139,-0.7139,-0.7139,-0.7139,-0.701,-0.6949,-0.6943,-0.6803,-0.6742,-0.6749,-0.6888,0.0,0.0,-0.7088,-0.7058,-0.6915,-0.6776,-0.662,-0.6458,-0.6329,-0.6349,-0.6338,-0.6338,-0.6338,-0.6338,-0.6338,-0.6338,-0.6338,-0.6338,-0.6338,-0.6338,-0.6338,-0.6338,-0.6338,-0.6338,-0.6338,-0.6338,-0.6338,-0.6338,-0.6338,-0.6338,-0.6338,-0.6338,-0.6338,-0.6338,-0.6338,-0.6338,-0.6338,-0.6338,-0.6338,-0.6338,-0.6338,-0.6338,-0.6338,-0.6338,-0.6338,-0.6338,-0.6338,-0.6338,-0.6338,-0.6338,-0.6338,-0.6338,-0.6338,-0.6338,-0.6352,-0.6281,-0.6281,-0.642,-0.6491,-0.6495,-0.663,-0.6705,-0.6798,-0.6668,-0.6607,0.4519,0.4519,0.4519,0.4519,0.4519,0.4519,0.4519,0.4519,0.4519,0.4519,0.4519,0.4546,0.4582,0.4701,0.482,0.499,0.5186,0.4912,0.374,0.2811,0.166,0.0175,-0.0,-0.0,-0.0,0.0,-0.0,0.0,0.0,0.0,-0.1419,-0.2295,-0.4114,-0.7007,-0.7144,-0.7128,-0.7131,-0.7121,-0.7024,-0.6934,-0.6873,-0.6881,-0.679,-0.6729,-0.6702,-0.6705,-0.6766,0.0,0.0,-0.6851,-0.679,-0.6647,-0.6586,-0.6474,-0.6339,-0.6281,-0.6338,-0.6338,-0.6338,-0.6338,-0.6338,-0.6338,-0.6338,-0.6338,-0.6338,-0.6338,-0.6338,-0.6338,-0.6338,-0.6338,-0.6338,-0.6338,-0.6338,-0.6338,-0.6338,-0.6338,-0.6338,-0.6338,-0.6338,-0.6338,-0.6338,-0.6338,-0.6338,-0.6338,-0.6338,-0.6338,-0.6338,-0.6338,-0.6338,-0.6338,-0.6338,-0.6338,-0.6338,-0.6338,-0.6338,-0.6338,-0.6338,-0.6338,-0.6338,-0.6338,-0.6338,-0.6338,-0.6338,-0.6338,-0.6322,-0.6356,-0.6356,-0.6424,-0.6461,-0.6461,-0.5105,-0.4547,0.4519,0.4519,0.4519,0.4519,0.4519,0.4519,0.4519,0.4519,0.4529,0.4577,0.4584,0.4575,0.4728,0.4792,0.4891,0.5098,0.5247,0.5456,0.5901,0.5101,0.3926,0.226,0.0887,-0.0,0.0,-0.0,0.0,0.0,0.0,0.0,0.0,-0.0,-0.1566,-0.4911,-0.5705,-0.6027,-0.6034,-0.6108,-0.6364,-0.6888,-0.6837,-0.6756,-0.673,-0.66,-0.6576,-0.6576,0.0,0.0,0.0,-0.6681,-0.661,-0.6471,-0.6471,-0.6386,-0.6338,-0.6338,-0.6338,-0.6338,-0.6338,-0.6338,-0.6338,-0.6338,-0.6338,-0.6338,-0.6338,-0.6338,-0.6338,-0.6338,-0.6338,-0.6338,-0.6338,-0.6338,-0.6338,-0.6338,-0.6338,-0.6338,-0.6338,-0.6338,-0.6338,-0.6338,-0.6338,-0.6338,-0.6338,-0.6338,-0.6338,-0.6338,-0.6338,-0.6338,-0.6338,-0.6338,-0.6338,-0.6338,-0.6264,-0.6264,-0.6338,-0.6338,-0.6338,-0.6338,-0.6264,-0.6268,-0.6268,-0.6271,-0.6291,-0.6335,-0.6302,-0.5983,-0.5381,-0.5349,-0.5659,-0.6227,-0.4787,-0.3366,0.4519,0.4519,0.4519,0.4519,0.4519,0.4519,0.4519,0.4519,0.456,0.4657,0.4687,0.4735,0.4891,0.5033,0.5128,0.5131,0.5504,0.5832,0.5992,0.629,0.6678,0.7002,0.2867,-0.0,-0.0,-0.0,0.0,0.0,0.0,0.0,0.0,-0.0,-0.0,-0.0081,-0.2399,-0.3604,-0.3604,-0.3604,-0.4789,-0.7097,-0.6855,-0.6694,-0.6687,-0.6438,-0.6281,0.0,0.0,0.0,0.0,-0.6637,-0.661,-0.6471,-0.6471,-0.6386,-0.6338,-0.6338,-0.6338,-0.6338,-0.6338,-0.6338,-0.6338,-0.6338,-0.6338,-0.6338,-0.6338,-0.6338,-0.6338,-0.6338,-0.6338,-0.6338,-0.6338,-0.6338,-0.6338,-0.6338,-0.6338,-0.6338,-0.6338,-0.6338,-0.6338,-0.6338,-0.6338,-0.6338,-0.6338,-0.6338,-0.6338,-0.6338,-0.6338,-0.6338,-0.6338,-0.6338,-0.6338,-0.6338,-0.6271,-0.6274,-0.6264,-0.6338,-0.6338,-0.6338,-0.6271,-0.6278,-0.6278,-0.6288,-0.6284,-0.627,-0.6291,-0.5238,-0.3154,-0.3159,-0.4233,-0.6329,-0.625,-0.4014,0.4519,0.4842,0.5058,0.4625,0.4927,0.5261,0.465,0.4623,0.4758,0.4704,0.4772,0.4891,0.5036,0.5101,0.523,0.5538,0.5708,0.5942,0.6274,0.6515,0.6645,0.6766,0.2808,-0.0,0.0,0.0,0.0,0.0,0.0,0.0,0.0,-0.0,-0.0,-0.0,-0.0719,-0.1131,-0.1149,-0.1146,-0.1474,-0.2296,-0.3826,-0.4423,-0.4272,-0.4157,0.0,0.0,0.0,0.0,0.0,-0.6403,-0.639,-0.6339,-0.6339,-0.6305,-0.6338,-0.6338,-0.6338,-0.6338,-0.6338,-0.6338,-0.6338,-0.6338,-0.6338,-0.6338,-0.6338,-0.6338,-0.6338,-0.6338,-0.6338,-0.6338,-0.6338,-0.6338,-0.6338,-0.6338,-0.6338,-0.6338,-0.6338,-0.6338,-0.6338,-0.6338,-0.6338,-0.6338,-0.6338,-0.6338,-0.6338,-0.6338,-0.6268,-0.6274,-0.6274,-0.6281,-0.6285,-0.6285,-0.6288,-0.6285,-0.6274,-0.6281,-0.6281,-0.6274,-0.6278,-0.564,-0.4144,-0.4144,-0.4086,-0.4121,-0.5562,-0.5978,-0.5258,-0.2361,-0.1333,-0.1963,-0.1963,-0.1256,0.4519,0.4787,0.5003,0.4625,0.4919,0.5193,0.465,0.4653,0.4823,0.4782,0.4894,0.5043,0.5192,0.5216,0.5328,0.5667,0.5817,0.6027,0.6347,0.6589,0.6705,0.6873,0.0,0.0,0.0,0.0,0.0,0.0,0.0,0.0,0.0,-0.0,-0.0,-0.0,-0.0,-0.0,-0.0,-0.0,-0.0,-0.0,-0.1521,-0.2143,-0.1955,-0.1954,0.0,0.0,0.0,0.0,0.0,-0.5096,-0.5093,-0.5168,-0.5964,-0.6281,-0.6274,-0.6274,-0.6274,-0.6274,-0.6274,-0.6274,-0.6274,-0.6274,-0.6274,-0.6274,-0.6274,-0.6268,-0.6338,-0.6338,-0.6338,-0.6338,-0.6338,-0.6338,-0.6338,-0.6338,-0.6264,-0.6268,-0.6268,-0.6271,-0.6274,-0.6274,-0.6274,-0.6274,-0.6274,-0.6274,-0.6274,-0.6274,-0.6281,-0.6045,-0.5168,-0.5093,-0.5096,-0.5096,-0.5821,-0.6305,-0.6291,-0.5569,-0.5115,-0.5094,-0.5843,-0.5727,-0.4382,-0.2815,-0.1956,-0.1958,-0.328,-0.3951,-0.3926,-0.1264,-0.0,-0.0,-0.0,-0.0,0.0,0.4519,0.457,0.4519,0.4532,0.4601,0.4536,0.4613,0.0,0.4908,0.5047,0.5199,0.5362,0.5452,0.544,0.5623,0.5881,0.6096,0.6327,0.6612,0.0,0.0,0.2691,0.0,0.0,0.0,0.0,0.0,0.0,0.0,0.0,-0.0,-0.0,-0.0,-0.0,-0.0,-0.0,-0.0,-0.0,-0.0,-0.0,-0.0,-0.0,-0.0,0.0,0.0,0.0,0.0,0.0,-0.289,-0.289,-0.3046,-0.5098,-0.5973,-0.6054,-0.6054,-0.6054,-0.6054,-0.6054,-0.6054,-0.6054,-0.6054,-0.6054,-0.6054,-0.6054,-0.6197,-0.6264,-0.6264,-0.6264,-0.6264,-0.6264,-0.6264,-0.6264,-0.6264,-0.6271,-0.6278,-0.6119,-0.6048,-0.6054,-0.6054,-0.6054,-0.6054,-0.6054,-0.6054,-0.6054,-0.6054,-0.6217,-0.5578,-0.3597,-0.3047,-0.289,-0.289,-0.4964,-0.6267,-0.6267,-0.4233,-0.2843,-0.2849,-0.478,-0.5817,-0.5817,-0.2117,-0.0,-0.0,-0.0,-0.0,-0.0,-0.0,-0.0,-0.0,-0.0,-0.0,0.4519,0.0,0.5164,0.4625,0.5091,0.5479,0.0,0.4931,0.5182,0.5098,0.5203,0.5386,0.565,0.561,0.5694,0.6183,0.6325,0.6478,0.6625,0.685,0.0,0.2065,0.0709,-0.0,0.0,0.0,0.0,0.0,0.0,0.0,0.0,-0.0,-0.0,-0.0,-0.0,-0.0,-0.0,-0.0,-0.0,-0.0,-0.0,-0.0,-0.0,-0.0,0.0,0.0,0.0,0.0,-0.0706,-0.0706,-0.0705,-0.0782,-0.1252,-0.2425,-0.383,-0.383,-0.383,-0.383,-0.383,-0.383,-0.383,-0.383,-0.383,-0.383,-0.383,-0.5015,-0.6288,-0.6288,-0.6288,-0.6288,-0.6288,-0.6288,-0.6288,-0.6288,-0.6291,-0.5811,-0.4222,-0.383,-0.383,-0.383,-0.383,-0.383,-0.383,-0.383,-0.383,-0.383,-0.5268,-0.6081,-0.5599,-0.2746,-0.0706,-0.0706,-0.4084,-0.6312,-0.6341,-0.2887,-0.0708,-0.0713,-0.1181,-0.149,-0.149,-0.0549,-0.0,-0.0,-0.0,-0.0,-0.0,-0.0,-0.0,-0.0,-0.0,-0.0,0.4548,0.4898,0.5124,0.4786,0.5139,0.5478,0.4972,0.5081,0.5233,0.5148,0.5254,0.5433,0.5661,0.5694,0.5837,0.6298,0.6498,0.6622,0.0,0.0,0.2876,0.027,-0.0,0.0,0.0,0.0,0.0,0.0,0.0,0.0,0.0,-0.0,-0.0,-0.0,-0.0,-0.0,-0.0,-0.0,-0.0,-0.0,-0.0,-0.0,-0.0,-0.0,-0.0,0.0,0.0,0.0,-0.0,-0.0,-0.0,-0.0,-0.0,-0.0705,-0.1643,-0.1643,-0.1643,-0.1643,-0.1643,-0.1643,-0.1643,-0.1643,-0.2349,-0.3136,-0.3136,-0.3925,-0.4797,-0.4862,-0.4859,-0.4859,-0.4859,-0.4859,-0.4859,-0.4859,-0.5584,-0.5989,-0.4792,-0.3056,-0.1643,-0.1643,-0.1643,-0.1643,-0.1643,-0.1643,-0.1643,-0.1643,-0.2668,-0.3383,-0.3383,-0.1428,-0.0,-0.0,-0.2041,-0.3425,-0.3405,-0.1331,-0.0,-0.0,-0.0,-0.0,-0.0,-0.0,-0.0,-0.0,-0.0,-0.0,-0.0,-0.0,-0.0,-0.0,-0.0,-0.0,0.4619,0.4793,0.4914,0.4931,0.5043,0.5159,0.5135,0.5148,0.5172,0.5196,0.5304,0.5467,0.5688,0.5738,0.5919,0.6349,0.6466,0.6655,0.7039,0.2971,-0.0,-0.0,-0.0,0.0,0.0,0.0,0.0,0.0,0.0,0.0,0.0,-0.0,-0.0,-0.0,-0.0,-0.0,-0.0,-0.0,-0.0,-0.0,-0.0,-0.0,-0.0,-0.0,-0.0,0.0,0.0,0.0,-0.0,-0.0,-0.0,-0.0,-0.0,-0.0,-0.0,-0.0,-0.0,-0.0,-0.0,-0.0,-0.0,-0.0,-0.1178,-0.2596,-0.2596,-0.2596,-0.2594,-0.2659,-0.2656,-0.2656,-0.2656,-0.2656,-0.2656,-0.2656,-0.4003,-0.5367,-0.5367,-0.2515,-0.0,-0.0,-0.0,-0.0,-0.0,-0.0,-0.0,-0.0,-0.0,-0.0,-0.0,-0.0,-0.0,-0.0,-0.0,-0.0,-0.0,-0.0,-0.0,-0.0,-0.0,-0.0,-0.0,-0.0,-0.0,-0.0,-0.0,-0.0,-0.0,-0.0,-0.0,-0.0,0.0628,0.0942,0.4515,0.4775,0.5045,0.4921,0.5125,0.5291,0.5162,0.5233,0.5362,0.5494,0.5473,0.5587,0.6106,0.5973,0.6089,0.6887,0.6662,0.6483,0.0,0.0,-0.0,-0.0,0.0,0.0,0.0,0.0,0.0,0.0,0.0,0.0,0.0,-0.0,-0.0,-0.0,-0.0,-0.0,-0.0,-0.0,-0.0,-0.0,-0.0,-0.0,-0.0,-0.0,-0.0,0.0,0.0,-0.0,-0.0,-0.0,-0.0,-0.0,-0.0,-0.0,-0.0,-0.0,-0.0,-0.0,-0.0,-0.0,-0.0,-0.0,-0.0236,-0.0471,-0.0471,-0.0471,-0.0471,-0.0471,-0.0471,-0.0471,-0.0471,-0.0471,-0.0471,-0.0471,-0.0706,-0.0942,-0.0942,-0.0471,-0.0,-0.0,-0.0,-0.0,-0.0,-0.0,-0.0,-0.0,-0.0,-0.0,-0.0,-0.0,-0.0,-0.0,-0.0,-0.0,-0.0,-0.0,-0.0,-0.0,-0.0,-0.0,-0.0,-0.0,-0.0,-0.0,-0.0,-0.0,-0.0,-0.0,-0.0,0.0079,0.3692,0.5355,0.4493,0.4001,0.3538,0.3687,0.4685,0.5606,0.5474,0.5467,0.5425,0.5494,0.5529,0.5321,0.4492,0.4223,0.4748,0.6782,0.0,0.5951,0.3557,0.1355,-0.0,0.0,0.0,0.0,0.0,0.0,0.0,0.0,0.0,0.0,0.0,0.0,-0.0,-0.0,-0.0,-0.0,-0.0,-0.0,-0.0,-0.0,-0.0,-0.0,-0.0,-0.0,-0.0,-0.0,0.0,-0.0,-0.0,-0.0,-0.0,-0.0,-0.0,-0.0,-0.0,-0.0,-0.0,-0.0,-0.0,-0.0,-0.0,-0.0,-0.0,-0.0,-0.0,-0.0,-0.0,-0.0,-0.0,-0.0,-0.0,-0.0,-0.0,-0.0,-0.0,-0.0,-0.0,-0.0,-0.0,-0.0,-0.0,-0.0,-0.0,-0.0,-0.0,-0.0,-0.0,-0.0,-0.0,-0.0,-0.0,-0.0,-0.0,-0.0,-0.0,-0.0,-0.0,-0.0,-0.0,-0.0,-0.0,-0.0,-0.0,-0.0,-0.0,-0.0,-0.0,-0.0,0.1178,0.3467,0.5373,0.6318,0.4318,0.3653,0.2736,0.2689,0.3972,0.5181,0.5112,0.4917,0.4736,0.48,0.526,0.5236,0.3775,0.2694,0.0,0.5107,0.5408,0.415,0.0544,0.0,0.0,0.0,0.0,0.0,0.0,0.0,0.0,0.0,0.0,0.0,0.0,0.0,-0.0,-0.0,-0.0,-0.0,-0.0,-0.0,-0.0,-0.0,-0.0,-0.0,-0.0,-0.0,-0.0,-0.0,-0.0,-0.0,-0.0,-0.0,-0.0,-0.0,-0.0,-0.0,-0.0,-0.0,-0.0,-0.0,-0.0,-0.0,-0.0,-0.0,-0.0,-0.0,-0.0,-0.0,-0.0,-0.0,-0.0,-0.0,-0.0,-0.0,-0.0,-0.0,-0.0,-0.0,-0.0,-0.0,-0.0,-0.0,-0.0,-0.0,-0.0,-0.0,-0.0,-0.0,-0.0,-0.0,-0.0,-0.0,-0.0,-0.0,-0.0,-0.0,-0.0,-0.0,-0.0,-0.0,-0.0,-0.0,-0.0,-0.0,-0.0,-0.0,0.11,0.1572,0.1493,0.0943,0.2359,0.5541,0.609,0.6308,0.3711,0.4436,0.4072,0.2986,0.3022,0.3205,0.2993,0.2871,0.2905,0.2879,0.4207,0.5588,0.5969,0.2862,0.0274,0.045,0.0548,0.037,0.0,0.0,0.0,0.0,0.0,0.0,0.0,0.0,0.0,0.0,0.0,0.0,0.0,0.0,0.0,-0.0,-0.0,-0.0,-0.0,-0.0,-0.0,-0.0,-0.0,-0.0,-0.0,-0.0,-0.0,-0.0,-0.0,-0.0,-0.0,-0.0,-0.0,-0.0,-0.0,-0.0,-0.0,-0.0,-0.0,-0.0,-0.0,-0.0,-0.0,-0.0,-0.0,-0.0,-0.0,-0.0,-0.0,-0.0,-0.0,-0.0,-0.0,-0.0,-0.0,-0.0,-0.0,-0.0,-0.0,-0.0,-0.0,-0.0,-0.0,-0.0,-0.0,-0.0,-0.0,-0.0,-0.0,-0.0,-0.0,-0.0,-0.0,-0.0,-0.0,-0.0,-0.0,-0.0,-0.0,-0.0,-0.0,-0.0,-0.0,-0.0,-0.0,-0.0,0.4342,0.6349,0.5861,0.3864,0.3071,0.3387,0.541,0.6268,0.1363,0.3099,0.3951,0.1637,0.1065,0.1116,0.1017,0.104,0.0983,0.1028,0.1568,0.2102,0.2351,0.108,-0.0,-0.0,-0.0,-0.0,0.0,0.0,0.0,0.0,0.0,0.0,0.0,0.0,0.0,0.0,0.0,0.0,0.0,0.0,0.0,-0.0,-0.0,-0.0,-0.0,-0.0,-0.0,-0.0,-0.0,-0.0,-0.0,-0.0,-0.0,-0.0,-0.0,-0.0,-0.0,-0.0,-0.0,-0.0,-0.0,-0.0,-0.0,-0.0,-0.0,-0.0,-0.0,-0.0,-0.0,-0.0,-0.0,-0.0,-0.0,-0.0,-0.0,-0.0,-0.0,-0.0,-0.0,-0.0,-0.0,-0.0,-0.0,-0.0,-0.0,-0.0,-0.0,-0.0,-0.0,-0.0,-0.0,-0.0,-0.0,-0.0,-0.0,-0.0,-0.0,-0.0,-0.0,-0.0,-0.0,-0.0,-0.0,0.2695,0.4405,0.4401,0.1616,0.1329,0.4304,0.4383,0.3692,0.2228,0.4036,0.5494,0.6577,0.5568,0.5096,0.5096,0.5951,0.6338,-0.0,0.1505,0.2611,0.0544,-0.0,-0.0,-0.0,-0.0,-0.0,-0.0,-0.0,-0.0,-0.0,-0.0,0.0,0.0,-0.0,0.0,0.0,0.0,0.0,0.0,0.0,0.0,0.0,0.0,0.0,0.0,0.0,0.0,0.0,0.0,0.0,0.0,-0.0,-0.0,-0.0,-0.0,-0.0,-0.0,-0.0,-0.0,-0.0,-0.0,-0.0,-0.0,-0.0,-0.0,-0.0,-0.0,-0.0,-0.0,-0.0,-0.0,-0.0,-0.0,-0.0,-0.0,-0.0,-0.0,-0.0,-0.0,-0.0,-0.0,-0.0,-0.0,-0.0,-0.0,-0.0,-0.0,-0.0,-0.0,-0.0,-0.0,-0.0,-0.0,-0.0,-0.0,-0.0,-0.0,-0.0,-0.0,-0.0,-0.0,-0.0,-0.0,-0.0,-0.0,-0.0,-0.0,0.0539,0.2066,0.2246,0.1975,0.1165,0.4127,0.6299,0.7022,0.4036,0.3414,0.5882,0.6687,0.6308,0.4759,0.467,0.5374,0.6776,0.6546,0.6419,0.6342,0.6338,0.6338,-0.0,-0.0,-0.0,-0.0,-0.0,-0.0,-0.0,-0.0,-0.0,-0.0,-0.0,-0.0,-0.0,-0.0,0.0,-0.0,0.0,0.0,0.0,0.0,0.0,0.0,0.0,0.0,0.0,0.0,0.0,0.0,0.0,0.0,0.0,0.0,0.0,0.0,-0.0,-0.0,-0.0,-0.0,-0.0,-0.0,-0.0,-0.0,-0.0,-0.0,-0.0,-0.0,-0.0,-0.0,-0.0,-0.0,-0.0,-0.0,-0.0,-0.0,-0.0,-0.0,-0.0,-0.0,-0.0,-0.0,-0.0,-0.0,-0.0,-0.0,-0.0,-0.0,-0.0,-0.0,-0.0,-0.0,-0.0,-0.0,-0.0,-0.0,-0.0,-0.0,-0.0,-0.0,-0.0,-0.0,-0.0,-0.0,-0.0,-0.0,-0.0,0.0084,0.0087,0.009,-0.0,-0.0,0.1797,0.6585,0.7045,0.612,0.384,0.3659,0.4648,0.692,0.7091,0.6014,0.3694,0.5908,0.7139,0.7139,0.7139,0.6959,0.6776,0.6722,0.6666,0.65,0.6342,0.6338,-0.0,-0.0,-0.0,-0.0,-0.0,-0.0,-0.0,-0.0,-0.0,-0.0,-0.0,-0.0,-0.0,-0.0,0.0,0.0,0.0,0.0,0.0,0.0,0.0,0.0,0.0,0.0,0.0,0.0,0.0,0.0,0.0,0.0,0.0,0.0,0.0,0.0,-0.0,-0.0,-0.0,-0.0,-0.0,-0.0,-0.0,-0.0,-0.0,-0.0,-0.0,-0.0,-0.0,-0.0,-0.0,-0.0,-0.0,-0.0,-0.0,-0.0,-0.0,-0.0,-0.0,-0.0,-0.0,-0.0,-0.0,-0.0,-0.0,-0.0,-0.0,-0.0,-0.0,-0.0,-0.0,-0.0,-0.0,-0.0,-0.0,-0.0,-0.0,-0.0,-0.0,-0.0,-0.0,-0.0,-0.0,-0.0,-0.0,-0.0,0.1095,0.4484,0.5,0.4403,0.2772,0.2503,0.304,0.4476,0.6106,0.6834,0.6097,0.6091,0.6361,0.7088,0.7071,0.6802,0.6103,0.6707,0.7139,0.7139,0.7139,0.7051,0.6868,0.6787,0.6664,0.65,0.6342,0.6338,-0.0,-0.1258,-0.2482,-0.2484,-0.2491,-0.2305,-0.1422,-0.1882,-0.2003,-0.035,-0.0688,-0.1527,-0.2315,-0.1788,0.0,0.0,0.0,0.0,0.0,0.0,0.0,0.0,0.0,0.0,0.0,0.0,0.0,0.0,0.0,0.0,0.0,0.0,0.0,0.0,-0.0,-0.0,-0.0,-0.0,-0.0,-0.0,-0.0,-0.0,-0.0,-0.0,-0.0,-0.0,-0.0,-0.0,-0.0,-0.0,-0.0,-0.0,-0.0,-0.0,-0.0,-0.0,-0.0,-0.0,-0.0,-0.0,-0.0,-0.0,-0.0,0.0314,0.1963,0.2515,0.2356,0.1489,0.0627,-0.0,-0.0,-0.0,-0.0,-0.0,-0.0,-0.0,-0.0,-0.0,0.0471,0.22,0.2515,0.2199,0.141,0.1304,0.2438,0.5239,0.6492,0.6551,0.5046,0.4896,0.4991,0.4856,0.6239,0.7091,0.7084,0.7074,0.7071,0.7071,0.7058,0.7058,0.7071,0.7058,0.7139,0.7139,0.7139,0.7051,0.6959,0.6779,0.6665,0.6581,0.6419,0.6338,-0.0528,-0.3233,-0.6001,-0.5979,-0.6185,-0.5778,-0.3814,-0.4939,-0.5173,-0.1351,-0.1895,-0.3753,-0.5883,-0.4705,-0.277,0.0,0.0,0.0,0.0,0.0,0.0,0.0,0.0,0.0,0.0,0.0,0.0,0.0,0.0,0.0,0.0,0.0,0.0,0.0,-0.0,-0.0,-0.0,-0.0,-0.0,0.0,-0.0,-0.0,-0.0,-0.0,-0.0,-0.0,-0.0,-0.0,-0.0,-0.0,-0.0,-0.0,-0.0,-0.0,0.0079,0.0471,0.055,0.055,0.0314,0.0314,0.0314,0.0314,0.0314,0.102,0.4807,0.6165,0.5921,0.3912,0.2032,0.0548,0.0313,0.0314,0.0314,0.0314,0.0157,0.0079,0.0471,0.055,0.1649,0.5286,0.6165,0.5677,0.3754,0.3658,0.3863,0.3876,0.5773,0.7051,0.6747,0.6929,0.7041,0.6804,0.7001,0.7074,0.7143,0.7139,0.7139,0.7139,0.7139,0.7139,0.7139,0.7139,0.7139,0.7139,0.7139,0.7139,0.7139,0.6868,0.6749,0.674,0.6419,0.6338,-0.4794,-0.4397,-0.3783,-0.3768,-0.5084,-0.6141,-0.5749,-0.6006,-0.6049,-0.5121,-0.3957,-0.3753,-0.5874,-0.5955,0.0,0.0,0.0,0.0,0.0,0.0,0.0,0.0,0.0,0.0,0.0,0.0,0.0,0.0,0.0,0.0,0.0,0.0,0.0,-0.0,-0.0,-0.0,-0.0,-0.0,-0.0,0.0,-0.0,-0.0,-0.0,-0.0,-0.0,-0.0,-0.0,-0.0,-0.0,-0.0,-0.0,-0.0,-0.0,-0.0,0.0393,0.3698,0.4967,0.4726,0.3052,0.2422,0.2422,0.2422,0.2422,0.2579,0.3521,0.4943,0.622,0.5736,0.526,0.4548,0.2891,0.2422,0.2422,0.2422,0.1175,0.0942,0.4252,0.4967,0.4724,0.3917,0.5182,0.6139,0.5655,0.5882,0.6132,0.6334,0.6776,0.7071,0.7021,0.7044,0.7051,0.7014,0.7037,0.7058,0.7139,0.7139,0.7139,0.7139,0.7139,0.7139,0.7139,0.7139,0.7139,0.7139,0.7139,0.7139,0.7139,0.6959,0.6837,0.6821,0.6662,0.6578,-0.5531,-0.5238,-0.464,-0.4612,-0.5507,-0.6331,-0.6334,-0.6254,-0.6142,-0.6146,-0.5345,-0.4959,-0.6096,0.0,0.0,0.0,0.0,0.0,0.0,0.0,0.0,0.0,0.0,0.0,0.0,0.0,0.0,0.0,0.0,0.0,0.0,-0.0,-0.0,-0.0,-0.0,-0.0,-0.0,-0.0,-0.0,-0.0,-0.0,-0.0,-0.0,-0.0,-0.0,-0.0,-0.0,-0.0,-0.0,-0.0,-0.0,0.0236,0.22,0.2987,0.3144,0.4321,0.543,0.6149,0.5021,0.4621,0.4621,0.4621,0.4621,0.4621,0.4616,0.5407,0.6288,0.6281,0.6285,0.6045,0.4932,0.4618,0.4621,0.4621,0.3051,0.2115,0.4318,0.559,0.5986,0.4854,0.5565,0.6305,0.6369,0.6634,0.6823,0.7037,0.7068,0.7041,0.7048,0.7099,0.7112,0.7048,0.7099,0.7139,0.7139,0.7139,0.7139,0.7139,0.7139,0.7139,0.7139,0.7139,0.7139,0.7139,0.7139,0.7139,0.7139,0.6959,0.6893,0.6936,0.6767,0.6936,-0.4865,-0.5755,-0.619,-0.6218,-0.6227,-0.622,-0.622,-0.6101,-0.5989,-0.5989,-0.6091,-0.6186,0.0,0.0,0.0,0.0,0.0,0.0,0.0,0.0,0.0,0.0,0.0,0.0,0.0,0.0,0.0,0.0,0.0,0.0,-0.0,-0.0,-0.0,-0.0,-0.0,-0.0,-0.0,-0.0,-0.0,-0.0,-0.0,-0.0,-0.0,-0.0,-0.0,-0.0,-0.0,-0.0,0.0078,0.078,0.1095,0.1413,0.4489,0.6002,0.6081,0.4309,0.4776,0.6291,0.6291,0.6291,0.6291,0.6291,0.6291,0.6288,0.6278,0.6274,0.6274,0.6264,0.6268,0.6274,0.6274,0.6281,0.6291,0.6291,0.4935,0.3671,0.3671,0.5015,0.6288,0.6278,0.6274,0.6325,0.6485,0.6722,0.6946,0.7115,0.7139,0.7099,0.698,0.7068,0.7095,0.6976,0.7068,0.7139,0.7139,0.7139,0.7139,0.7139,0.7139,0.7139,0.7139,0.7139,0.7228,0.7401,0.7228,0.7139,0.7139,0.7221,0.7221,0.7234,0.7323,0.7871,-0.5006,-0.5516,-0.5899,-0.6017,-0.6061,-0.6061,-0.6061,-0.5942,-0.583,0.0,-0.5847,-0.5864,0.0,0.0,0.0,0.0,0.0,0.0,0.0,0.0,0.0,0.0,0.0,0.0,0.0,0.0,0.0,0.0,0.0,0.0,-0.0,-0.0,-0.0,-0.0,-0.0,-0.0,-0.0,-0.0,-0.0,-0.0,-0.0,-0.0,-0.0,-0.0,-0.0,-0.0,-0.0,-0.0,0.0304,0.3967,0.5422,0.5364,0.3999,0.4626,0.6298,0.5964,0.6038,0.6281,0.6271,0.6268,0.6268,0.6268,0.6268,0.6268,0.6264,0.6264,0.6264,0.6338,0.6264,0.6264,0.6264,0.6264,0.6268,0.6268,0.6106,0.5867,0.5876,0.6119,0.6278,0.6268,0.6264,0.6349,0.6624,0.6705,0.6824,0.7099,0.7139,0.7132,0.7112,0.7129,0.7132,0.7112,0.7129,0.7139,0.7139,0.7139,0.7139,0.7139,0.7139,0.7139,0.7139,0.7139,0.7577,0.8627,0.7665,0.7139,0.7139,0.8165,0.8627,0.8697,0.9628,1.0097,-0.502,-0.5363,-0.563,-0.5949,-0.5966,-0.5925,-0.601,-0.585,-0.5684,-0.5684,-0.5613,0.0,0.0,0.0,0.0,0.0,0.0,0.0,0.0,0.0,0.0,0.0,0.0,0.0,0.0,0.0,0.0,0.0,0.0,-0.0,-0.0,-0.0,-0.0,-0.0,-0.0,-0.0,-0.0,-0.0,-0.0,-0.0,0.2087,0.1966,0.0069,0.1026,0.098,0.0146,0.2114,0.301,0.3115,0.393,0.5055,0.619,0.5149,0.5343,0.6285,0.6274,0.6268,0.6268,0.6264,0.6338,0.6338,0.6338,0.6338,0.6338,0.6338,0.6338,0.6338,0.6338,0.6338,0.6338,0.6338,0.6338,0.6338,0.6338,0.6338,0.6264,0.6268,0.6268,0.6268,0.6264,0.6325,0.6447,0.6664,0.677,0.6898,0.7109,0.7071,0.7051,0.7129,0.7071,0.7051,0.7132,0.7139,0.7139,0.7139,0.7139,0.7139,0.7139,0.7139,0.7401,0.8101,0.8105,0.8623,0.9836,0.8711,0.8448,0.9052,0.9589,0.985,0.9836,1.0336,1.095,-0.4918,-0.5159,-0.5393,-0.5766,-0.5803,-0.5779,-0.5891,-0.5718,-0.5532,0.0,0.0,0.0,0.0,0.0,0.0,0.0,0.0,0.0,0.0,0.0,0.0,0.0,0.0,0.0,0.0,0.0,0.0,0.0,0.0,-0.0,-0.0,0.0877,0.1349,0.1347,0.1347,0.0942,-0.0,0.0942,0.1347,0.1414,0.3636,0.3569,0.1413,0.228,0.2194,0.1498,0.3719,0.4968,0.529,0.3963,0.4541,0.6172,0.6037,0.6112,0.6217,0.6251,0.6338,0.6338,0.6338,0.6338,0.6338,0.6338,0.6338,0.6338,0.6338,0.6338,0.6338,0.6338,0.6338,0.6338,0.6338,0.6338,0.6338,0.6338,0.6338,0.6338,0.6338,0.6338,0.6338,0.6338,0.6346,0.6468,0.6617,0.6736,0.6861,0.7007,0.6939,0.6909,0.7014,0.697,0.697,0.7075,0.7119,0.7228,0.7489,0.7577,0.7665,0.8009,0.8009,0.836,0.9323,0.9323,0.9836,1.1042,1.0183,1.0009,1.0611,1.0906,1.1063,1.108,1.1335,1.1928,-0.4667,-0.4921,-0.5182,-0.5355,-0.5498,-0.5603,-0.561,-0.5488,-0.5439,-0.5439,0.0,0.0,0.0,0.0,0.0,0.0,0.0,0.0,0.0,0.0,0.0,0.0,0.0,0.0,0.0,0.0,0.0,0.0,0.0,-0.0,-0.0,0.3248,0.5094,0.5138,0.5138,0.3498,0.0067,0.3431,0.5138,0.5071,0.3558,0.3623,0.5055,0.342,0.356,0.5007,0.3502,0.3832,0.5421,0.5481,0.5637,0.5712,0.5909,0.6034,0.6061,0.6207,0.6338,0.6338,0.6338,0.6338,0.6338,0.6338,0.6338,0.6338,0.6338,0.6338,0.6338,0.6338,0.6338,0.6338,0.6338,0.6338,0.6338,0.6338,0.6338,0.6338,0.6338,0.6338,0.6338,0.6338,0.6345,0.6318,0.6461,0.6491,0.6549,0.6702,0.6715,0.6715,0.6722,0.6844,0.6932,0.6939,0.7058,0.7577,0.8715,0.8803,0.9235,1.0351,1.0438,1.0438,1.0524,1.0524,1.1042,1.2151,1.2151,1.1638,1.0611,1.1643,1.2174,1.2203,1.3392,1.3984,-0.465,-0.4769,-0.4908,-0.5152,-0.5254,-0.5321,-0.542,-0.5466,-0.5428,-0.5428,0.0,0.0,0.0,0.0,0.0,0.0,0.0,0.0,0.0,0.0,0.0,0.0,0.0,0.0,0.0,0.0,0.0,0.0,0.0,0.0,0.2874,0.3378,0.3673,0.3668,0.4809,0.4239,0.174,0.3017,0.4239,0.5403,0.4773,0.4773,0.5396,0.4697,0.4764,0.5382,0.4694,0.4788,0.5396,0.5454,0.5542,0.5611,0.5728,0.5864,0.6037,0.6091,0.6176,0.6338,0.6338,0.6338,0.6338,0.6338,0.6338,0.6338,0.6338,0.6338,0.6338,0.6338,0.6338,0.6338,0.6338,0.6338,0.6338,0.6338,0.6338,0.6338,0.6338,0.6338,0.6338,0.6338,0.6338,0.6305,0.6447,0.6471,0.6525,0.6678,0.6617,0.659,0.6688,0.723,0.769,0.7997,0.8666,0.9348,0.9908,1.0009,1.0183,1.0611,1.0611,1.095,1.1638,1.1724,1.2248,1.347,1.347,1.3209,1.2863,1.3294,1.3476,1.3489,1.3919,1.399,-0.4585,-0.4653,-0.4752,-0.4999,-0.506,-0.5114,-0.5315,-0.5321,-0.5298,-0.5418,0.0,0.0,0.0,0.0,0.0,0.0,0.0,0.0,0.0,0.0,0.0,0.0,0.0,0.0,0.0,0.0,0.0,0.0,0.0,0.0,0.4525,0.371,0.3378,0.3471,0.4727,0.4794,0.3618,0.3618,0.4228,0.5389,0.5379,0.5376,0.5382,0.5369,0.5432,0.5372,0.5432,0.5432,0.5372,0.5432,0.542,0.5518,0.5569,0.5739,0.5959,0.601,0.6129,0.6338,0.6338,0.6338,0.6338,0.6338,0.6338,0.6338,0.6338,0.6338,0.6338,0.6338,0.6338,0.6338,0.6338,0.6338,0.6338,0.6338,0.6338,0.6338,0.6338,0.6338,0.6338,0.6338,0.6338,0.6443,0.6853,0.6946,0.7062,0.7492,0.749,0.7458,0.7576,0.8087,0.8617,0.8964,0.9697,1.0427,1.0995,1.108,1.13,1.1735,1.1735,1.2043,1.2722,1.2802,1.3243,1.3941,1.4035,1.4088,1.4088,1.4088,1.4088,1.4088,1.4088,1.3958,0.0,0.0,0.0,-0.4867,-0.4908,-0.4989,-0.5277,0.0,-0.5169,0.0,0.0,0.0,0.0,0.0,0.0,0.0,0.0,0.0,0.0,0.0,0.0,0.0,0.0,0.0,0.0,0.0,0.0,0.0,0.0,0.4513,0.4501,0.4504,0.469,0.5071,0.5272,0.5413,0.5369,0.5372,0.5372,0.5379,0.5432,0.5428,0.5428,0.5428,0.5428,0.5428,0.5428,0.5428,0.5428,0.5428,0.5428,0.5442,0.5525,0.5674,0.582,0.5969,0.6125,0.6338,0.6338,0.6338,0.6338,0.6338,0.6338,0.6338,0.6338,0.6338,0.6338,0.6338,0.6338,0.6338,0.6338,0.6338,0.6338,0.6338,0.6338,0.6338,0.6416,0.6416,0.6416,0.6338,0.6338,0.6718,0.7706,0.7859,0.8161,0.9145,0.9296,0.9296,0.9296,0.9473,0.9526,0.9531,1.0004,1.0767,1.1852,1.2163,1.2832,1.3977,1.4068,1.3941,1.3572,1.3928,1.3948,1.3579,1.3941,1.4088,1.4088,1.4088,1.4088,1.4088,1.4075,1.3904,-0.4519,0.0,0.0,0.0,0.0,0.0,0.0,0.0,0.0,0.0,0.0,0.0,0.0,0.0,0.0,0.0,0.0,0.0,0.0,0.0,0.0,0.0,0.0,0.0,0.0,0.0,0.0,0.0,0.4508,0.4498,0.4495,0.4588,0.477,0.4975,0.4982,0.5116,0.5199,0.5199,0.5254,0.5432,0.5428,0.5428,0.5428,0.5428,0.5428,0.5428,0.5428,0.5428,0.5428,0.5428,0.5428,0.5432,0.541,0.5579,0.5806,0.5847,0.6034,0.6338,0.6338,0.6338,0.6338,0.6338,0.6338,0.6338,0.6338,0.6338,0.6338,0.6338,0.6338,0.6338,0.6338,0.6338,0.649,0.7176,0.7403,0.7557,0.8313,0.8466,0.8237,0.7553,0.8008,0.8542,0.8841,0.8917,0.8998,0.9221,0.9296,0.9296,0.9296,0.9943,1.0509,1.0695,1.1546,1.2274,1.2814,1.2904,1.3111,1.3454,1.3647,1.3728,1.3566,1.3928,1.4048,1.3968,1.4048,1.4088,1.4088,1.4088,1.4088,1.4082,1.3609,1.3414,-0.4558,-0.4558,-0.4572,-0.4636,0.0,0.0,-0.4772,-0.4806,0.0,0.0,0.0,0.0,0.0,0.0,0.0,0.0,0.0,0.0,0.0,0.0,0.0,0.0,0.0,0.0,0.0,0.0,0.0,0.4507,0.449,0.4477,0.4473,0.4551,0.4667,0.4819,0.4823,0.4894,0.504,0.5043,0.5087,0.5179,0.5237,0.5267,0.5267,0.5332,0.5428,0.5428,0.5428,0.5428,0.5428,0.5428,0.5428,0.5428,0.5428,0.5504,0.5715,0.5715,0.5905,0.6166,0.6166,0.6207,0.6338,0.6338,0.6338,0.6338,0.6338,0.6338,0.6338,0.6338,0.6338,0.6412,0.6795,0.6945,0.7176,0.8161,0.8389,0.8618,0.9145,0.9593,0.9593,0.8618,0.8922,0.9448,0.982,0.9895,1.0045,1.0496,1.0571,1.0571,1.0571,1.1093,1.1459,1.1626,1.2361,1.2896,1.2999,1.3133,1.3213,1.3213,1.3487,1.3587,1.3467,1.3861,1.4028,1.3908,1.4021,1.4088,1.4088,1.4088,1.4088,1.4075,1.3497,1.322,-0.4714,-0.4714,-0.4745,-0.4863,0.0,0.0,-0.485,-0.4789,-0.4752,0.0,0.0,0.0,0.0,0.0,0.0,0.0,0.0,0.0,0.0,0.0,0.0,0.0,0.0,0.0,0.0,0.2693,0.4333,0.4497,0.4484,0.4473,0.4519,0.4519,0.458,0.466,0.4667,0.4738,0.4894,0.4894,0.4901,0.4921,0.5047,0.5114,0.5135,0.5274,0.5411,0.5428,0.5428,0.5428,0.5428,0.5428,0.5428,0.5428,0.5428,0.5454,0.5589,0.5589,0.5776,0.603,0.603,0.6132,0.6338,0.6338,0.6338,0.6338,0.6338,0.6338,0.6338,0.6412,0.6567,0.6872,0.7706,0.7936,0.8237,0.9221,0.9448,0.9523,0.9599,1.0346,1.0714,0.982,0.9599,0.9895,1.0789,1.0938,1.1236,1.215,1.2305,1.2305,1.2305,1.2305,1.2305,1.2305,1.2538,1.2775,1.2775,1.2953,1.3106,1.3106,1.3414,1.3467,1.3173,1.3728,1.3901,1.3601,1.3888,1.4041,1.4041,1.4075,1.4068,1.4028,1.3464,1.338,-0.4874,-0.4874,-0.4853,-0.4758,0.0,0.0,-0.4626,-0.4718,-0.485,0.0,0.0,0.0,0.0,0.0,0.0,0.0,0.0,0.0,0.0,0.0,0.0,0.0,0.0,0.0,0.0,0.2296,0.3188,0.4383,0.4477,0.4519,0.4519,0.4519,0.4532,0.4563,0.4563,0.4579,0.4735,0.4735,0.4799,0.4918,0.4948,0.502,0.5131,0.5162,0.5243,0.5428,0.5428,0.5428,0.5428,0.5428,0.5428,0.5428,0.5428,0.5454,0.5589,0.5589,0.5776,0.603,0.603,0.6132,0.6338,0.6338,0.6338,0.6338,0.6338,0.6338,0.649,0.7249,0.8084,0.8765,0.8917,0.8993,0.9296,1.0265,1.049,1.0714,1.1545,1.1848,1.1922,1.1774,1.17,1.1774,1.1996,1.1996,1.207,1.2305,1.2305,1.2305,1.2305,1.2305,1.2305,1.2305,1.2351,1.2385,1.2385,1.2445,1.2478,1.2478,1.2993,1.316,1.2929,1.3414,1.3594,1.33,1.3581,1.3728,1.3734,1.3968,1.3968,1.3721,1.3326,1.3698,-0.5023,-0.5023,0.0,-0.4931,0.0,0.0,0.0,-0.4636,-0.4691,-0.4691,0.0,0.0,0.0,0.0,0.0,0.0,0.0,0.0,0.0,0.0,0.0,0.0,0.0,0.0,0.0,0.218,0.2841,0.4373,0.4525,0.4519,0.4519,0.4519,0.4519,0.4519,0.4519,0.4556,0.4575,0.4575,0.4616,0.4694,0.4769,0.4843,0.4914,0.5064,0.5172,0.525,0.5328,0.5428,0.5428,0.5428,0.5428,0.5428,0.5428,0.541,0.5477,0.5477,0.5661,0.5915,0.5915,0.6067,0.6338,0.6338,0.6338,0.6338,0.6338,0.6644,0.7249,0.8237,0.8917,0.9448,0.989,1.004,1.0265,1.1316,1.1545,1.1694,1.2224,1.2305,1.2305,1.2305,1.2305,1.2305,1.2305,1.2305,1.2305,1.2305,1.2305,1.2305,1.2305,1.2305,1.2305,1.2305,1.2305,1.2305,1.2305,1.2305,1.2305,1.2305,1.2732,1.2913,1.2829,1.3186,1.336,1.3213,1.3353,1.3736,1.4434,1.4353,1.4353,1.4346,1.4406,1.4864,0.0,0.0,0.0,0.0,0.0,-0.4942,0.0,0.0,0.0,-0.4633,0.0,0.0,0.0,0.0,0.0,0.0,0.0,0.0,0.0,0.0,0.0,0.0,0.0,0.0,0.0,0.2528,0.3198,0.4498,0.4553,0.4529,0.456,0.4532,0.4519,0.4519,0.4519,0.4519,0.4519,0.4519,0.4519,0.4519,0.4585,0.4663,0.4701,0.4969,0.5104,0.5138,0.5294,0.5428,0.5428,0.5428,0.5428,0.5428,0.5428,0.5428,0.5428,0.5428,0.5549,0.58,0.58,0.6152,0.6567,0.6338,0.6416,0.6567,0.6567,0.7399,0.8537,0.9367,0.975,1.0045,1.0864,1.1087,1.1316,1.2077,1.2305,1.2305,1.2305,1.2305,1.2305,1.2305,1.2305,1.2305,1.2305,1.2305,1.2305,1.2305,1.2305,1.2305,1.2305,1.2305,1.2305,1.2305,1.2305,1.2305,1.2305,1.2305,1.2305,1.2305,1.2585,1.2871,1.2962,1.3355,1.3571,1.3571,1.3627,1.423,1.5339,1.5142,1.518,1.5344,1.5619,1.6179,0.0,0.0,0.0,0.0,-0.5128,0.0,0.0,0.0,-0.4796,-0.4541,0.0,0.0,0.0,0.0,0.0,0.0,0.0,0.0,0.0,0.0,0.0,0.0,0.0,0.0,0.0,0.0,0.4402,0.48,0.4616,0.4577,0.4657,0.4591,0.4519,0.4519,0.4519,0.4519,0.4519,0.4519,0.4519,0.4519,0.4536,0.4558,0.4697,0.4867,0.5013,0.5138,0.5294,0.5428,0.5428,0.5428,0.5428,0.5428,0.5428,0.5428,0.5428,0.5428,0.5549,0.58,0.58,0.6589,0.748,0.6567,0.6872,0.7633,0.7633,0.8983,1.0484,1.0565,1.1242,1.2003,1.2077,1.215,1.215,1.2305,1.2305,1.2305,1.2305,1.2305,1.2305,1.2305,1.2305,1.2305,1.2305,1.2305,1.2305,1.2305,1.2305,1.2305,1.2305,1.2305,1.2305,1.2305,1.2305,1.2305,1.2305,1.2305,1.2305,1.2305,1.2585,1.3071,1.3594,1.448,1.5,1.5,1.5235,1.5412,1.5601,1.6379,1.6476,1.6057,1.6127,1.6689,0.0,0.0,0.0,0.0,0.0,0.0,-0.4674,0.0,-0.4643,0.0,0.0,0.0,0.0,0.0,0.0,0.0,0.0,0.0,0.0,0.0,0.0,0.0,0.0,0.0,0.0,0.0,0.0,0.0,0.0,0.466,0.4816,0.4677,0.4596,0.4596,0.4563,0.4519,0.4519,0.4519,0.4519,0.4519,0.4519,0.4553,0.4565,0.4809,0.4952,0.502,0.526,0.5428,0.5428,0.5428,0.5428,0.5428,0.5428,0.5428,0.5428,0.5428,0.5549,0.5871,0.6437,0.7171,0.7859,0.8012,0.8313,0.8765,0.9362,1.011,1.0938,1.1539,1.1996,1.2305,1.2305,1.2305,1.2305,1.2305,1.2305,1.2305,1.2305,1.2305,1.2305,1.2305,1.2305,1.2305,1.2305,1.2305,1.2305,1.2305,1.2305,1.2305,1.2305,1.2305,1.2305,1.2305,1.2305,1.2305,1.2305,1.2305,1.2519,1.3098,1.3792,1.4317,1.453,1.495,1.5234,1.5234,1.5312,1.5783,1.6512,1.6883,1.7451,1.798,1.7743,1.8156,-0.5428,0.0,0.0,0.0,0.0,0.0,0.0,0.0,0.0,0.0,0.0,0.0,0.0,0.0,-0.223,-0.0335,0.0,-0.0,0.0,0.0,0.0,0.0,0.0,0.0,0.0,0.0,0.0,0.0,0.0,0.0,0.4965,0.4836,0.4735,0.4694,0.4582,0.456,0.4519,0.4519,0.4519,0.4519,0.4519,0.4519,0.4529,0.4779,0.4918,0.4935,0.5233,0.5428,0.5428,0.5686,0.562,0.5428,0.5686,0.5624,0.5428,0.5428,0.5751,0.6294,0.707,0.7677,0.8389,0.9367,0.9744,0.982,1.0559,1.1013,1.1391,1.207,1.2305,1.2305,1.2305,1.2305,1.2305,1.2305,1.2305,1.2305,1.2305,1.2305,1.2305,1.2305,1.2305,1.2305,1.2305,1.2305,1.2305,1.2305,1.2305,1.2305,1.2305,1.2305,1.2305,1.2305,1.2519,1.2666,1.2666,1.2952,1.3382,1.4099,1.5021,1.5587,1.5587,1.5799,1.5948,1.5948,1.5948,1.6493,1.7548,1.7548,1.826,1.9453,1.9131,1.9326,0.0,0.0,0.0,-0.4999,0.0,0.0,0.0,0.0,-0.4643,0.0,0.0,0.0,0.0,-0.448,-0.3463,-0.0502,-0.0,0.0,0.0,0.0,0.0,0.0,0.0,0.0,0.0,0.0,0.0,0.0,0.0,0.0,0.5108,0.4989,0.4843,0.4697,0.4684,0.4613,0.4519,0.4519,0.4519,0.4519,0.4519,0.4519,0.4529,0.4779,0.4918,0.4935,0.5233,0.5428,0.5491,0.6334,0.6141,0.5491,0.633,0.6137,0.5428,0.5428,0.6158,0.7279,0.7279,0.8189,0.9448,1.0409,1.0783,1.0783,1.0783,1.1465,1.2224,1.2298,1.2305,1.2305,1.2305,1.2305,1.2305,1.2305,1.2305,1.2305,1.2305,1.2305,1.2305,1.2305,1.2305,1.2305,1.2305,1.2305,1.2305,1.2305,1.2305,1.2305,1.2305,1.2305,1.2305,1.2305,1.3091,1.3673,1.3673,1.4522,1.5092,1.5163,1.6,1.6567,1.6567,1.7432,1.794,1.794,1.794,1.8144,1.8562,1.8562,1.9,1.9893,1.9883,1.9883,0.0,0.0,-0.5315,-0.5111,0.0,0.0,0.0,0.0,0.0,0.0,0.0,0.0,0.0,-0.4487,-0.4154,-0.3142,-0.1287,-0.0,0.0,0.0,0.0,0.0,0.0,0.0,0.0,0.0,0.0,0.0,0.4897,0.0,0.0,0.5142,0.5036,0.4982,0.4891,0.4769,0.4616,0.4613,0.4562,0.4519,0.4519,0.4519,0.4529,0.4779,0.4918,0.4935,0.5233,0.5428,0.5491,0.633,0.6523,0.6268,0.6593,0.685,0.7051,0.6465,0.6691,0.7526,0.9093,1.0347,1.1323,1.1694,1.1774,1.1774,1.1774,1.1996,1.2305,1.2305,1.2305,1.2305,1.2305,1.2305,1.2305,1.2305,1.2305,1.2305,1.2305,1.2305,1.2305,1.2305,1.2305,1.2305,1.2305,1.2806,1.3025,1.2372,1.2305,1.2519,1.3171,1.3237,1.3448,1.4163,1.4522,1.4665,1.4665,1.5579,1.6149,1.6149,1.7001,1.7501,1.7501,1.7862,1.8008,1.8008,1.8008,1.8076,1.8223,1.8789,1.9209,1.9512,2.0078,2.0342,-0.5203,-0.5203,0.0,-0.5013,-0.4904,0.0,-0.4646,0.0,0.0,0.0,0.0,0.0,0.0,-0.4521,-0.4324,-0.3761,-0.2523,-0.1233,0.0,-0.0,0.0,0.0,0.0,0.0,0.0,0.0,0.4584,0.4904,0.4918,0.0,0.0,0.0,0.5186,0.5131,0.5043,0.4921,0.4772,0.4718,0.4812,0.4986,0.4868,0.5007,0.5238,0.5592,0.5751,0.5771,0.6185,0.6338,0.6404,0.7246,0.7437,0.7177,0.7502,0.7762,0.7892,0.7046,0.7315,0.8424,1.0472,1.1621,1.2164,1.2271,1.2305,1.2305,1.2305,1.2305,1.2305,1.2305,1.2305,1.2305,1.2305,1.2305,1.2305,1.2305,1.2305,1.2305,1.2305,1.2305,1.2305,1.2305,1.2305,1.2305,1.2305,1.2806,1.3091,1.2806,1.3091,1.352,1.4171,1.4243,1.4458,1.5163,1.5517,1.5799,1.6158,1.6715,1.707,1.707,1.7647,1.8008,1.8008,1.8008,1.8008,1.8008,1.8008,1.8086,1.8232,1.8789,1.9209,1.9521,2.0078,2.042]},{"header":{"parameterUnit":"m.s-1","parameterCategory":1,"la1":30.6,"la2":29.2853,"lo1":-89.7004,"lo2":-87.6739,"dy":0.0162,"dx":0.0183,"nx":112,"ny":82,"refTime":"2024-09-12T12:00:00:Z","depth":0,"parameterNumber":3,"parameterNumberName":"V-component_of_WINDS"},"data":[0.0,0.0,0.0,0.0,0.0,0.0,0.0,0.0,0.0,0.0,0.0,0.0,0.0,0.0,0.0,0.0,0.0,0.0,0.0,0.0,0.0,0.0,0.0,0.0,0.0,0.0,0.0,0.0,0.0,0.0,0.0,0.0,0.0,0.0,0.0,0.0,0.0,0.0,0.0,0.0,0.0,0.0,0.0,0.0,0.0,0.0,0.0,0.0,0.0,0.0,0.0,0.0,0.0,0.0,0.0,0.0,0.0,0.0,0.0,0.0,0.0,0.0,0.0,0.0,0.0,0.0,0.0,0.0,0.0,0.0,0.0,0.0,0.0,0.0,0.0,0.0,0.0,0.0,0.0,0.0,0.0,0.0,0.0,0.0,0.0,0.0,0.0,0.0,0.0,0.0,-2.5397,-2.5376,-2.5983,-2.6437,-2.6437,-2.6437,-2.5585,-2.358,0.0,0.0,0.0,0.0,0.0,0.0,0.0,0.0,0.0,0.0,0.0,0.0,0.0,0.0,0.0,0.0,0.0,0.0,0.0,0.0,0.0,0.0,0.0,0.0,0.0,0.0,0.0,0.0,0.0,0.0,0.0,0.0,0.0,0.0,0.0,0.0,0.0,0.0,0.0,0.0,0.0,0.0,0.0,0.0,0.0,0.0,0.0,0.0,0.0,0.0,0.0,0.0,0.0,0.0,0.0,0.0,0.0,0.0,0.0,0.0,0.0,0.0,0.0,0.0,0.0,0.0,0.0,0.0,0.0,0.0,0.0,0.0,0.0,0.0,0.0,0.0,0.0,0.0,0.0,0.0,0.0,0.0,0.0,0.0,0.0,0.0,0.0,0.0,0.0,0.0,0.0,0.0,0.0,0.0,0.0,0.0,0.0,0.0,0.0,0.0,0.0,0.0,0.0,0.0,-2.4143,-2.5439,-2.5676,-2.5749,-2.5749,-2.5749,-2.4926,-2.2936,0.0,0.0,0.0,0.0,0.0,0.0,0.0,0.0,0.0,0.0,0.0,0.0,0.0,0.0,0.0,0.0,0.0,0.0,0.0,0.0,0.0,0.0,0.0,0.0,0.0,0.0,0.0,0.0,0.0,0.0,0.0,0.0,0.0,0.0,0.0,0.0,0.0,0.0,0.0,0.0,0.0,0.0,0.0,0.0,0.0,0.0,0.0,0.0,0.0,0.0,0.0,0.0,0.0,0.0,0.0,0.0,0.0,0.0,0.0,0.0,0.0,0.0,0.0,0.0,0.0,0.0,0.0,0.0,0.0,0.0,0.0,0.0,0.0,0.0,0.0,0.0,0.0,0.0,0.0,0.0,0.0,0.0,0.0,0.0,0.0,0.0,0.0,0.0,0.0,0.0,0.0,0.0,0.0,0.0,0.0,0.0,0.0,0.0,0.0,0.0,0.0,0.0,0.0,-2.3625,-2.3855,-2.4941,-2.5076,-2.5076,-2.5076,-2.5076,-2.4388,-2.2787,-2.2936,0.0,0.0,0.0,0.0,0.0,0.0,0.0,0.0,0.0,0.0,0.0,0.0,0.0,0.0,0.0,0.0,0.0,0.0,0.0,0.0,0.0,0.0,0.0,0.0,0.0,0.0,0.0,0.0,0.0,0.0,0.0,0.0,0.0,0.0,0.0,0.0,0.0,0.0,0.0,0.0,0.0,0.0,0.0,0.0,0.0,0.0,0.0,0.0,0.0,0.0,0.0,0.0,0.0,0.0,0.0,0.0,0.0,0.0,0.0,0.0,0.0,0.0,0.0,0.0,0.0,0.0,0.0,0.0,0.0,0.0,0.0,0.0,0.0,0.0,0.0,0.0,0.0,0.0,0.0,0.0,0.0,0.0,0.0,0.0,0.0,0.0,0.0,0.0,0.0,0.0,0.0,0.0,0.0,0.0,0.0,0.0,0.0,0.0,0.0,0.0,0.0,0.0,-2.4016,-2.3804,-2.4328,-2.4343,-2.4343,-2.4343,-2.4253,-2.367,-2.2559,-2.2308,0.0,0.0,0.0,0.0,0.0,0.0,0.0,0.0,0.0,0.0,0.0,0.0,0.0,0.0,0.0,0.0,0.0,0.0,0.0,0.0,0.0,0.0,0.0,0.0,0.0,0.0,0.0,0.0,0.0,0.0,0.0,0.0,0.0,0.0,0.0,0.0,0.0,0.0,0.0,0.0,0.0,0.0,0.0,0.0,0.0,0.0,0.0,0.0,0.0,0.0,0.0,0.0,0.0,0.0,0.0,0.0,0.0,0.0,0.0,0.0,0.0,0.0,0.0,0.0,0.0,0.0,0.0,0.0,0.0,0.0,0.0,0.0,0.0,0.0,0.0,0.0,0.0,0.0,0.0,0.0,0.0,0.0,0.0,0.0,0.0,0.0,0.0,0.0,0.0,0.0,0.0,0.0,0.0,0.0,0.0,0.0,0.0,0.0,0.0,0.0,0.0,0.0,-2.2933,-2.3625,-2.367,-2.367,-2.367,-2.367,-2.3146,-2.2517,-2.1814,-2.1201,0.0,0.0,0.0,0.0,0.0,0.0,0.0,0.0,0.0,0.0,0.0,0.0,0.0,0.0,0.0,0.0,0.0,0.0,0.0,0.0,0.0,0.0,0.0,0.0,0.0,0.0,0.0,0.0,0.0,0.0,0.0,0.0,0.0,0.0,0.0,0.0,0.0,0.0,0.0,0.0,0.0,0.0,0.0,0.0,0.0,0.0,0.0,0.0,0.0,0.0,0.0,0.0,0.0,0.0,0.0,0.0,0.0,0.0,0.0,0.0,0.0,0.0,0.0,0.0,0.0,0.0,0.0,0.0,0.0,0.0,0.0,0.0,0.0,0.0,0.0,0.0,0.0,0.0,0.0,0.0,0.0,0.0,0.0,0.0,0.0,0.0,0.0,0.0,0.0,0.0,0.0,0.0,0.0,0.0,0.0,0.0,0.0,0.0,0.0,0.0,0.0,0.0,-2.2473,-2.3176,0.0,-2.3595,-2.3595,-2.3595,-2.3385,-2.2802,-2.1769,0.0,0.0,0.0,0.0,0.0,0.0,0.0,0.0,0.0,0.0,0.0,0.0,0.0,0.0,0.0,0.0,0.0,0.0,0.0,0.0,0.0,0.0,0.0,0.0,0.0,0.0,0.0,0.0,0.0,0.0,0.0,0.0,0.0,0.0,0.0,0.0,0.0,0.0,0.0,0.0,0.0,0.0,0.0,0.0,0.0,0.0,0.0,0.0,0.0,0.0,0.0,0.0,0.0,0.0,0.0,0.0,0.0,0.0,0.0,0.0,0.0,0.0,0.0,0.0,0.0,0.0,0.0,0.0,0.0,0.0,0.0,0.0,0.0,0.0,0.0,0.0,0.0,0.0,0.0,0.0,0.0,0.0,0.0,0.0,0.0,0.0,0.0,0.0,0.0,0.0,0.0,0.0,0.0,0.0,0.0,0.0,0.0,0.0,0.0,0.0,0.0,0.0,-2.1635,-2.2443,-2.3131,0.0,-2.3595,-2.3595,-2.3595,-2.3236,-2.2622,-2.1754,0.0,0.0,0.0,0.0,0.0,0.0,0.0,0.0,0.0,0.0,0.0,0.0,0.0,0.0,0.0,0.0,0.0,0.0,0.0,0.0,0.0,0.0,0.0,0.0,0.0,0.0,0.0,0.0,0.0,0.0,0.0,0.0,0.0,0.0,0.0,0.0,0.0,0.0,0.0,0.0,0.0,0.0,0.0,0.0,0.0,0.0,0.0,0.0,0.0,0.0,0.0,0.0,0.0,0.0,0.0,0.0,0.0,0.0,0.0,0.0,0.0,0.0,0.0,0.0,0.0,0.0,0.0,0.0,0.0,0.0,0.0,0.0,0.0,0.0,0.0,0.0,0.0,0.0,0.0,0.0,0.0,0.0,0.0,0.0,0.0,0.0,0.0,0.0,0.0,0.0,0.0,0.0,0.0,0.0,0.0,0.0,0.0,0.0,0.0,0.0,0.0,0.0,-2.1695,-2.2817,-2.3595,-2.3595,-2.3595,-2.3595,-2.3595,-2.2443,-2.171,0.0,0.0,0.0,0.0,0.0,0.0,0.0,0.0,0.0,0.0,0.0,0.0,0.0,0.0,0.0,0.0,0.0,0.0,0.0,0.0,0.0,0.0,0.0,0.0,0.0,0.0,0.0,0.0,0.0,0.0,0.0,0.0,0.0,0.0,0.0,0.0,0.0,0.0,0.0,0.0,0.0,0.0,0.0,0.0,0.0,0.0,0.0,0.0,0.0,0.0,0.0,0.0,0.0,0.0,0.0,0.0,0.0,0.0,0.0,0.0,0.0,0.0,0.0,0.0,0.0,0.0,0.0,0.0,0.0,0.0,0.0,0.0,0.0,0.0,0.0,0.0,0.0,0.0,0.0,0.0,0.0,0.0,0.0,0.0,0.0,0.0,0.0,0.0,0.0,0.0,0.0,0.0,0.0,0.0,0.0,0.0,0.0,0.0,0.0,0.0,0.0,0.0,0.0,-2.1695,-2.2817,-2.3595,-2.3595,-2.3595,-2.3595,-2.3595,-2.2862,-2.2188,-2.1724,0.0,0.0,0.0,0.0,0.0,0.0,0.0,0.0,0.0,0.0,0.0,0.0,0.0,0.0,0.0,0.0,0.0,0.0,0.0,0.0,0.0,0.0,0.0,0.0,0.0,0.0,0.0,0.0,0.0,0.0,0.0,0.0,0.0,0.0,0.0,0.0,0.0,0.0,0.0,0.0,0.0,0.0,0.0,0.0,0.0,0.0,0.0,0.0,0.0,0.0,0.0,0.0,0.0,0.0,0.0,0.0,0.0,0.0,0.0,0.0,0.0,0.0,0.0,0.0,0.0,0.0,0.0,0.0,0.0,0.0,0.0,0.0,0.0,0.0,0.0,0.0,0.0,0.0,0.0,0.0,0.0,0.0,0.0,0.0,0.0,0.0,0.0,0.0,0.0,0.0,0.0,0.0,0.0,0.0,0.0,0.0,0.0,0.0,0.0,0.0,0.0,0.0,-2.194,-2.2926,-2.3595,-2.3595,-2.3595,-2.3595,-2.3595,-2.3041,-2.2398,-2.1739,0.0,0.0,0.0,0.0,0.0,0.0,0.0,0.0,0.0,0.0,0.0,0.0,0.0,0.0,0.0,0.0,0.0,0.0,0.0,0.0,0.0,0.0,0.0,0.0,0.0,0.0,0.0,0.0,0.0,0.0,0.0,0.0,0.0,0.0,0.0,0.0,0.0,0.0,0.0,0.0,0.0,0.0,0.0,0.0,0.0,0.0,0.0,0.0,0.0,0.0,0.0,0.0,0.0,0.0,0.0,0.0,0.0,0.0,0.0,0.0,0.0,0.0,0.0,0.0,0.0,0.0,0.0,0.0,0.0,0.0,0.0,0.0,0.0,0.0,0.0,0.0,0.0,0.0,0.0,0.0,0.0,0.0,0.0,0.0,0.0,0.0,0.0,0.0,0.0,0.0,0.0,0.0,0.0,0.0,0.0,0.0,0.0,0.0,0.0,0.0,0.0,0.0,-2.2255,-2.3035,-2.3595,-2.3595,-2.3595,-2.3595,-2.3595,-2.3041,-2.2454,-2.1894,0.0,0.0,0.0,0.0,0.0,0.0,0.0,0.0,0.0,0.0,0.0,0.0,0.0,0.0,0.0,0.0,0.0,0.0,0.0,0.0,0.0,0.0,0.0,0.0,0.0,0.0,0.0,0.0,0.0,0.0,0.0,0.0,0.0,0.0,0.0,0.0,0.0,0.0,0.0,0.0,0.0,0.0,0.0,0.0,0.0,0.0,0.0,0.0,0.0,0.0,0.0,0.0,0.0,0.0,0.0,0.0,0.0,0.0,0.0,0.0,-2.8504,0.0,0.0,0.0,0.0,0.0,0.0,0.0,0.0,0.0,0.0,0.0,0.0,0.0,0.0,0.0,0.0,0.0,0.0,0.0,0.0,0.0,0.0,0.0,0.0,0.0,0.0,0.0,0.0,0.0,0.0,0.0,0.0,0.0,0.0,0.0,0.0,0.0,0.0,0.0,0.0,0.0,-2.1877,-2.2885,-2.3595,-2.3595,-2.3595,-2.3595,-2.3595,-2.3041,-2.2798,-2.3025,-2.1568,0.0,0.0,0.0,0.0,0.0,0.0,0.0,0.0,0.0,0.0,0.0,0.0,0.0,0.0,0.0,0.0,0.0,0.0,0.0,0.0,0.0,0.0,0.0,0.0,0.0,0.0,0.0,0.0,0.0,0.0,0.0,0.0,0.0,0.0,0.0,0.0,0.0,0.0,0.0,0.0,0.0,0.0,0.0,0.0,0.0,0.0,0.0,0.0,0.0,0.0,0.0,0.0,0.0,0.0,0.0,0.0,0.0,0.0,0.0,0.0,-2.9445,0.0,0.0,0.0,0.0,0.0,0.0,0.0,0.0,0.0,0.0,0.0,0.0,0.0,0.0,0.0,0.0,0.0,0.0,0.0,0.0,0.0,0.0,0.0,0.0,0.0,0.0,0.0,0.0,0.0,0.0,0.0,0.0,0.0,0.0,0.0,0.0,0.0,0.0,0.0,0.0,-2.2692,-2.367,-2.4389,-2.4389,-2.4389,-2.4389,-2.4389,-2.4079,-2.3857,-2.3768,-2.292,0.0,0.0,0.0,0.0,0.0,0.0,0.0,0.0,0.0,0.0,0.0,0.0,0.0,0.0,0.0,0.0,0.0,0.0,0.0,0.0,0.0,0.0,0.0,0.0,0.0,0.0,0.0,0.0,0.0,0.0,0.0,0.0,0.0,0.0,0.0,0.0,0.0,0.0,0.0,0.0,0.0,0.0,0.0,0.0,0.0,0.0,0.0,0.0,0.0,0.0,0.0,0.0,0.0,-3.5981,-3.6107,-3.6073,-3.556,-3.5126,-3.468,-3.2651,-3.2042,-3.2391,0.0,0.0,0.0,0.0,0.0,0.0,0.0,0.0,0.0,0.0,0.0,0.0,0.0,0.0,0.0,0.0,0.0,0.0,0.0,0.0,0.0,0.0,0.0,0.0,0.0,-3.2036,-3.163,0.0,0.0,0.0,0.0,0.0,0.0,0.0,0.0,0.0,0.0,0.0,0.0,-2.38,-2.4588,-2.5221,-2.5221,-2.5221,-2.5221,-2.5221,-2.5221,-2.5002,-2.4535,-2.4317,-2.4015,0.0,0.0,0.0,0.0,0.0,0.0,0.0,0.0,0.0,0.0,0.0,0.0,0.0,0.0,0.0,0.0,0.0,0.0,0.0,0.0,0.0,0.0,0.0,0.0,0.0,0.0,0.0,0.0,0.0,0.0,0.0,0.0,-3.0636,-3.2313,0.0,0.0,0.0,0.0,0.0,0.0,0.0,0.0,0.0,0.0,0.0,0.0,0.0,-3.6581,-3.8088,-3.8252,-3.8361,-3.8487,-3.8752,-3.8872,-3.8872,-3.8342,-3.8044,-3.7958,-3.7263,0.0,-3.3237,-3.3051,0.0,0.0,0.0,0.0,0.0,0.0,0.0,0.0,0.0,0.0,0.0,0.0,0.0,0.0,0.0,0.0,0.0,0.0,0.0,0.0,0.0,0.0,-3.3778,-3.3237,-3.3186,-3.3119,0.0,-3.0581,-2.8772,-2.8569,0.0,0.0,0.0,0.0,0.0,0.0,0.0,0.0,-2.4164,-2.4762,-2.5221,-2.5221,-2.5221,-2.5221,-2.5221,-2.5221,-2.5379,-2.5757,-2.4774,-2.4544,-2.5245,-2.4232,0.0,0.0,0.0,0.0,0.0,0.0,0.0,0.0,0.0,0.0,0.0,0.0,0.0,0.0,0.0,0.0,0.0,0.0,0.0,0.0,0.0,0.0,0.0,0.0,0.0,0.0,0.0,0.0,0.0,-2.9629,-3.1808,-3.3467,-3.409,-3.3967,0.0,0.0,0.0,0.0,0.0,0.0,0.0,0.0,0.0,-3.8401,-3.8364,-3.8872,-4.0047,-3.9819,-3.9914,-4.0347,-3.9829,-3.9809,-4.0211,-3.9244,-3.8811,-3.8794,-3.8153,-3.7161,-3.591,-3.547,-3.4844,-3.4083,0.0,0.0,0.0,0.0,-3.2239,-3.2121,-3.3271,-3.3677,0.0,0.0,0.0,0.0,0.0,0.0,0.0,0.0,0.0,0.0,0.0,0.0,0.0,-3.4624,-3.4658,-3.4539,-3.4117,-3.2679,-3.1224,0.0,-2.9431,-2.8213,-2.6505,0.0,0.0,0.0,0.0,-2.5196,-2.5011,-2.5605,-2.6052,-2.6052,-2.6052,-2.6052,-2.6052,-2.6052,-2.6123,-2.6367,-2.5911,-2.5797,-2.6218,-2.5345,-2.4807,0.0,0.0,0.0,0.0,0.0,0.0,0.0,0.0,0.0,0.0,0.0,0.0,0.0,0.0,0.0,0.0,0.0,0.0,0.0,0.0,0.0,0.0,0.0,0.0,0.0,0.0,0.0,0.0,-3.1034,-3.2864,-3.4641,-3.5465,-3.5529,0.0,0.0,0.0,0.0,0.0,0.0,-3.7396,-3.7853,-3.8836,-4.0451,-4.0372,-4.069,-4.1497,-4.0759,-4.0703,-4.1256,-4.0279,-4.0122,-4.0685,-3.9725,-3.9276,-3.9242,-3.87,-3.8464,-3.8396,-3.7449,-3.6721,-3.6146,-3.5588,-3.4573,-3.3525,-3.4286,-3.4303,-3.4167,-3.5453,-3.5791,-3.552,-3.4962,0.0,-3.2374,-3.1292,0.0,0.0,0.0,0.0,-3.3152,-3.4438,-3.4776,-3.4878,-3.525,-3.5334,-3.5131,-3.437,-3.3643,-3.2797,0.0,-3.1173,-3.0209,-2.796,0.0,0.0,0.0,0.0,-2.5879,-2.5879,-2.6353,-2.6691,-2.6691,-2.6691,-2.6691,-2.6691,-2.6691,-2.6691,-2.6691,-2.6691,-2.6691,-2.6691,-2.6167,-2.5795,-2.5609,0.0,0.0,0.0,0.0,0.0,0.0,0.0,0.0,0.0,0.0,0.0,0.0,0.0,0.0,0.0,0.0,0.0,0.0,0.0,0.0,0.0,0.0,0.0,0.0,0.0,0.0,0.0,0.0,0.0,-3.6344,-3.6825,0.0,0.0,0.0,0.0,-3.6322,-3.6316,-3.7268,-3.9601,-3.9766,-4.0506,-4.2139,-4.1615,-4.1756,-4.2623,-4.1454,-4.0891,-4.0926,-4.0349,-4.0087,-4.0121,-4.0087,-4.002,-4.002,-3.9986,-3.9969,-3.9868,-3.8447,-3.7821,-3.7787,-3.7753,-3.7263,-3.6637,-3.7398,-3.6772,-3.5622,-3.6434,-3.6231,-3.556,-3.5571,-3.4556,-3.3339,-3.3271,-3.273,0.0,0.0,-3.3846,-3.4573,-3.5351,-3.5554,-3.5402,-3.4709,-3.4556,-3.4336,-3.3609,-3.2865,-3.2307,0.0,-3.1106,-3.0125,-2.9973,0.0,-2.7705,-2.7637,-2.708,-2.664,-2.664,-2.6674,-2.6691,-2.6691,-2.6691,-2.6691,-2.6691,-2.6691,-2.6691,-2.6691,-2.6691,-2.6691,-2.6691,-2.6657,-2.6319,-2.5625,-2.5541,0.0,0.0,0.0,0.0,0.0,0.0,0.0,0.0,0.0,0.0,0.0,0.0,0.0,0.0,0.0,0.0,0.0,0.0,0.0,0.0,0.0,0.0,0.0,0.0,0.0,0.0,0.0,0.0,-3.7037,-3.7795,0.0,-3.6675,-3.7032,-3.7524,-3.7929,-3.932,-4.0543,-4.1405,-4.1937,-4.247,-4.3039,-4.2541,-4.2405,-4.2711,-4.149,-4.0903,-4.0903,-4.0368,-4.007,-4.007,-4.007,-4.007,-4.007,-4.007,-4.007,-4.0037,-3.9512,-3.9039,-3.8616,-3.8616,-3.8159,-3.7533,-3.7804,-3.7855,-3.777,-3.7567,-3.733,-3.6924,-3.5943,-3.5267,-3.4844,-3.4844,-3.4641,-3.4489,-3.4759,-3.503,-3.5165,-3.4945,-3.4895,-3.4709,-3.3981,-3.3795,-3.3592,-3.2848,-3.2476,-3.2178,-3.1664,-3.1157,-3.0666,-3.0192,-2.9245,-2.8399,-2.7857,-2.7182,-2.6691,-2.6691,-2.6691,-2.6691,-2.6691,-2.6691,-2.6691,-2.6691,-2.6691,-2.6488,-2.6031,-2.6437,-2.6488,-2.6015,-2.6437,-2.6573,-2.6302,-2.5845,-2.5118,0.0,0.0,0.0,0.0,0.0,0.0,0.0,0.0,0.0,0.0,0.0,0.0,0.0,0.0,0.0,0.0,0.0,0.0,0.0,0.0,0.0,0.0,0.0,0.0,0.0,0.0,-3.6495,-3.7393,-3.8324,-3.8516,-3.7608,-3.8637,-3.952,-3.9882,-4.1405,-4.2415,-4.269,-4.3204,-4.341,-4.325,-4.2675,-4.2302,-4.208,-4.1105,-4.0607,-4.0625,-4.0286,-4.007,-4.007,-4.007,-4.007,-4.007,-4.007,-4.007,-4.007,-4.007,-3.9783,-3.936,-3.936,-3.9056,-3.8616,-3.8362,-3.843,-3.8481,-3.7483,-3.7127,-3.6975,-3.5943,-3.5622,-3.5622,-3.5622,-3.5622,-3.5622,-3.5622,-3.5622,-3.5453,-3.4692,-3.4489,-3.4252,-3.3254,-3.3034,-3.2831,-3.207,-3.1918,-3.1765,-3.1275,-3.119,-3.1038,-3.0565,-2.9634,-2.8805,-2.8298,-2.7351,-2.6691,-2.6691,-2.6691,-2.6691,-2.6691,-2.6691,-2.6691,-2.6691,-2.6691,-2.6488,-2.5998,-2.6553,-2.6684,-2.619,-2.6411,-2.665,-2.6906,-2.6461,-2.6179,-2.6087,0.0,0.0,0.0,0.0,0.0,0.0,0.0,0.0,0.0,0.0,0.0,0.0,0.0,0.0,0.0,0.0,0.0,0.0,0.0,0.0,0.0,0.0,0.0,-3.4314,-3.6192,-3.7546,-3.7547,-3.8465,-3.909,-3.9091,-3.9619,-4.0579,-4.2158,-4.2304,-4.2671,-4.3442,-4.3497,-4.325,-4.275,-4.2121,-4.1534,-4.0949,-4.0368,-4.007,-4.007,-4.007,-4.007,-4.007,-4.007,-4.007,-4.007,-4.007,-4.007,-4.007,-4.007,-4.007,-4.007,-4.007,-4.007,-3.9952,-3.9242,-3.8514,-3.7652,-3.618,-3.5639,-3.5622,-3.5622,-3.5622,-3.5622,-3.5622,-3.5622,-3.5622,-3.5622,-3.5605,-3.5419,-3.4658,-3.4438,-3.4049,-3.2635,-3.228,-3.2076,-3.1382,-3.123,-3.123,-3.123,-3.123,-3.123,-3.1196,-2.9976,-2.9011,-2.9013,-2.7725,0.0,-2.6725,-2.6725,-2.6725,-2.6725,-2.6691,-2.6691,-2.6725,-2.6725,-2.6708,-2.6691,-2.7098,-2.7334,-2.7334,-2.6658,-2.664,-2.7386,-2.743,-2.8022,-2.9229,0.0,0.0,0.0,0.0,0.0,0.0,0.0,0.0,0.0,0.0,0.0,0.0,0.0,0.0,0.0,0.0,0.0,0.0,0.0,0.0,0.0,-3.4872,-3.6949,-3.6949,-3.7819,-3.8575,-3.8977,-3.9058,-3.9027,-3.8851,-4.0018,-4.0965,-4.1405,-4.2506,-4.3259,-4.3479,-4.3497,-4.3444,-4.3286,-4.2324,-4.1707,-4.1534,-4.0594,-4.007,-4.007,-4.007,-4.007,-4.007,-4.007,-4.007,-4.007,-4.007,-4.007,-4.007,-4.007,-4.007,-4.007,-4.007,-3.9749,-3.9276,-3.9056,-3.8176,-3.7026,-3.6603,-3.6096,-3.5622,-3.5622,-3.5622,-3.5622,-3.5622,-3.5622,-3.5622,-3.5622,-3.5216,-3.4641,-3.3897,-3.3305,-3.2751,-3.2097,-3.1932,-3.1992,-3.2127,-3.2162,-3.2162,-3.2162,-3.2162,-3.183,-3.0936,-2.9987,-2.9299,-2.9054,-2.8189,0.0,-2.756,-2.7334,-2.7147,-2.7147,-2.6873,-2.6808,-2.7115,-2.7147,-2.703,-2.679,-2.7379,-2.7754,-2.7811,-2.8129,-2.8676,-2.947,-2.8983,-2.9178,0.0,0.0,0.0,0.0,0.0,0.0,0.0,0.0,0.0,0.0,0.0,0.0,0.0,0.0,0.0,0.0,0.0,0.0,0.0,0.0,0.0,0.0,-3.6546,-3.8661,-3.8988,-3.932,-3.9528,-3.9588,-3.9414,-3.9275,-3.9209,-4.0359,-4.1258,-4.1589,-4.2782,-4.3497,-4.3497,-4.3497,-4.341,-4.3178,-4.2541,-4.208,-4.181,-4.0891,-4.0466,-4.0449,-4.0204,-4.007,-4.007,-4.007,-4.007,0.0,-3.9749,-3.9783,-4.002,-3.9411,-3.9343,0.0,0.0,0.0,0.0,0.0,-3.7313,-3.6299,-3.6299,-3.5994,-3.5622,-3.5622,-3.5622,-3.5622,-3.5622,-3.5739,-3.5898,-3.565,-3.5335,-3.4881,-3.3932,-3.3265,-3.2703,-3.2213,-3.2092,-3.2161,-3.2451,-3.2484,-3.2484,-3.2484,0.0,0.0,-3.0835,-3.0182,-2.9621,-2.9094,-2.8375,-2.7897,-2.7897,-2.7695,-2.753,-2.753,-2.7317,-2.7303,-2.753,-2.753,0.0,0.0,0.0,-2.8639,-2.8712,-2.9454,0.0,0.0,0.0,0.0,0.0,0.0,0.0,0.0,-3.3532,-3.3741,0.0,0.0,0.0,0.0,0.0,0.0,0.0,0.0,0.0,0.0,0.0,0.0,0.0,0.0,0.0,0.0,-3.7834,-3.9681,-4.0392,-4.0489,-4.0283,-3.9712,-3.9599,-3.9607,-3.9798,-4.0519,-4.1313,-4.2103,-4.291,-4.3387,-4.3497,0.0,0.0,0.0,0.0,-4.244,-4.1895,-4.1296,-4.0995,-4.0995,-4.0449,-4.0204,-4.0204,-4.0121,-4.0037,-3.9918,-3.9276,-3.9309,-3.9732,-3.8447,-3.8244,-3.8734,-3.8734,-3.8734,-3.8565,-3.7254,-3.6288,0.0,0.0,0.0,0.0,-3.5766,-3.5766,-3.5766,-3.5766,-3.6097,-3.6357,-3.5795,-3.5688,-3.5522,-3.4352,-3.3736,-3.3315,-3.271,-3.2583,-3.2583,-3.2648,-3.2577,-3.2524,-3.2524,-3.1884,-3.1194,-3.0782,-3.0391,-2.9869,-2.91,-2.8436,-2.8037,-2.8037,-2.7982,-2.7954,-2.7954,0.0,0.0,-2.7936,-2.8025,-2.8418,-2.9169,-2.9674,-2.997,-3.0023,-3.0785,-3.1592,-3.2373,-3.3107,-3.4404,-3.6303,-3.7092,-3.7562,-3.7551,-3.4057,-3.4083,0.0,0.0,0.0,0.0,0.0,0.0,0.0,0.0,0.0,0.0,0.0,0.0,0.0,0.0,0.0,-3.7238,-3.9065,-4.0315,-4.0469,-4.0489,-4.0372,-4.0042,-3.9529,-3.9208,-3.9259,-3.9773,-4.0469,-4.1277,-4.2084,-4.2818,-4.3461,-4.3497,0.0,-4.3339,-4.2939,-4.2655,-4.2537,-4.1937,-4.1621,-4.1621,0.0,0.0,-4.0733,-4.0286,-3.9766,-3.9191,-3.9056,-3.8734,-3.8311,-3.8024,-3.7635,-3.7212,-3.7212,-3.7212,-3.7187,-3.6663,-3.6387,-3.6291,-3.6764,-3.6904,-3.6904,-3.6904,-3.6904,-3.6904,-3.6904,-3.6943,0.0,-3.6075,-3.5432,-3.4801,-3.3917,-3.3211,-3.276,-3.3019,-3.3075,-3.3136,-3.3476,-3.304,-3.2584,-3.2584,-3.1928,-3.1151,-3.0435,-2.9989,-2.9539,-2.9089,-2.8883,-2.8791,-2.8791,-2.8489,-2.8298,-2.8298,-2.8047,-2.7992,-2.829,-2.8918,-2.9475,-2.9958,-3.1276,-3.2015,-3.2041,-3.281,-3.3323,-3.3488,-3.4275,-3.5219,-3.6303,-3.7092,-3.7826,-3.845,-3.7668,-3.7692,0.0,0.0,0.0,0.0,0.0,0.0,0.0,0.0,0.0,0.0,0.0,-3.1583,-3.3295,0.0,-3.6661,-3.8373,-3.9681,-4.0489,-4.0489,-4.0142,-3.9948,-4.0063,-3.9797,-3.9481,-3.9133,-3.9713,-4.0394,-4.1038,-4.1864,-4.2653,-4.3442,-4.3497,-4.3497,-4.3497,-4.325,-4.3105,-4.3105,-4.2559,-4.2262,-4.2244,-4.1621,-4.1358,-4.134,-4.0676,-4.0147,-3.9749,-3.8987,-3.8659,-3.8624,-3.8261,-3.7655,-3.6988,-3.6988,-3.6853,-3.6602,-3.676,-3.6803,-3.6843,-3.7114,-3.719,-3.719,-3.719,-3.719,-3.719,-3.719,-3.7093,-3.6792,-3.6075,-3.5418,-3.4763,-3.411,-3.3557,-3.3225,-3.3447,-3.3494,-3.3441,-3.3221,-3.2889,-3.2485,-3.2082,-3.1347,-3.0668,-3.0265,-2.9716,-2.9223,-2.9025,-2.8994,-2.8994,-2.8994,-2.8839,-2.8682,-2.8682,-2.8558,-2.8507,-2.8682,-2.9799,-3.075,-3.1359,-3.254,-3.3201,-3.3201,-3.3587,-3.399,-3.4394,-3.5238,-3.6064,-3.689,-3.7698,-3.8303,-3.8707,-3.8707,-3.8927,0.0,0.0,0.0,0.0,0.0,0.0,0.0,-3.0198,-3.04,-3.1878,-3.2333,-3.3083,-3.5122,-3.6315,-3.7469,-3.9027,-3.9969,-4.0489,-4.0489,-3.9796,-3.9465,-3.9889,-3.9891,-3.9634,-3.9096,-3.9656,-4.0317,-4.0891,-4.164,-4.2415,-4.3222,-4.3406,-4.3497,-4.3497,-4.3497,-4.3497,-4.3497,-4.305,-4.2864,-4.2864,-4.2083,-4.1819,-4.1961,-4.0855,-4.0347,-4.03,-3.8762,-3.8426,-3.8916,-3.8337,-3.7757,-3.7228,-3.7285,-3.7058,-3.6746,-3.7173,-3.7323,-3.736,-3.7451,-3.7487,-3.7487,-3.7487,-3.7487,-3.7452,-3.7309,-3.7073,-3.6699,-3.5934,-3.5377,-3.4897,-3.4329,-3.3996,-3.3807,-3.3807,-3.3807,-3.3587,-3.2779,-3.2485,-3.2137,-3.1311,-3.0522,-2.9971,-2.9971,-2.9439,-2.8994,-2.8994,-2.8994,-2.8994,-2.8994,-2.8994,-2.8994,-2.8994,-2.8994,-2.9122,-2.9457,-3.0797,-3.1971,-3.2797,-3.344,-3.3807,-3.3807,-3.3807,-3.41,-3.4734,-3.5789,-3.6615,-3.7257,-3.823,-3.8707,-3.8707,-3.8707,-3.9056,-2.9596,-2.8758,-2.8632,-3.0906,-3.041,-3.0335,0.0,-3.3787,-3.2979,-3.3769,-3.4584,-3.5238,-3.5468,-3.6796,-3.8161,-3.9142,-3.9969,-4.0489,-4.0489,-3.9796,-3.9315,-3.9381,-3.9141,-3.8918,-3.8841,-3.9076,-3.9556,-4.0337,-4.0917,-4.1589,-4.2396,-4.3112,-4.3497,-4.3497,-4.3497,-4.3497,-4.3497,-4.3444,-4.341,-4.3391,-4.2067,-4.1839,-4.2523,-4.0468,-3.9575,-3.9545,-3.7987,-3.7367,-3.7438,-3.735,-3.7261,-3.7248,-3.7649,-3.779,-3.7755,-3.779,-3.7825,-3.7911,-3.835,-3.8515,-3.8515,-3.8515,-3.8515,-3.8418,-3.7686,-3.7442,-3.7106,-3.5535,-3.5062,-3.4825,-3.4064,-3.3835,-3.3807,-3.3807,-3.3807,-3.3587,-3.2779,-3.2045,-3.1292,-3.0485,-2.9696,-2.9122,-2.9122,-2.9049,-2.8994,-2.8994,-2.8994,-2.8994,-2.8994,-2.8994,-2.8994,-2.8994,-2.8994,-2.9586,-3.0999,-3.1953,-3.2816,-3.3605,-3.3752,-3.3807,-3.3807,-3.3807,-3.3844,-3.3935,-3.5495,-3.634,-3.6431,-3.7955,-3.8707,-3.8707,-3.8707,-3.8762,-3.0135,-3.0622,-3.1259,-3.1823,-3.2199,-3.2869,-3.4618,-3.4115,-3.3595,-3.4827,-3.4998,-3.5243,-3.6155,-3.6887,-3.7791,-3.9084,-3.9565,-3.9796,-3.9796,-3.9084,-3.8354,-3.7853,-3.8124,-3.847,-3.8785,-3.889,-3.9317,-4.0235,-4.0511,-4.1114,-4.2231,-4.2616,-4.302,-4.3479,-4.3497,-4.3497,-4.3497,-4.3497,-4.3497,-4.3479,-4.2885,-4.2813,-4.3123,-4.1234,-3.9878,-3.9009,-3.8339,-3.805,-3.805,-3.805,-3.805,-3.8083,-3.8267,-3.8382,-3.8382,-3.8382,-3.8382,-3.8382,-3.8627,-3.8707,-3.8615,-3.8138,-3.7991,-3.7845,-3.7037,-3.645,-3.5899,-3.5192,-3.4642,-3.4229,-3.3899,-3.3807,-3.3807,-3.3807,-3.3807,-3.3587,-3.2779,-3.2339,-3.1861,-3.1054,-3.0246,-2.9714,-2.9714,-2.9329,-2.914,-2.9641,-2.931,-2.8994,-2.8994,-2.8994,-2.8994,-2.8994,-2.9439,-3.0173,-3.1292,-3.2137,-3.2944,-3.3752,-3.3807,-3.3807,-3.3807,-3.3807,-3.3807,-3.3807,-3.4963,-3.5789,-3.6303,-3.7441,-3.823,-3.8707,-3.8707,-3.8707,-3.0547,-3.168,-3.2591,-3.2434,-3.3344,-3.4268,-3.4251,-3.3765,-3.3654,-3.4788,-3.457,-3.4603,-3.5979,-3.6415,-3.7112,-3.8715,-3.9161,-3.9392,-3.9604,-3.8681,-3.7853,-3.7469,-3.7546,-3.7986,-3.8856,-3.9071,-3.9463,-4.0196,-4.0592,-4.1232,-4.2181,-4.2382,-4.2705,-4.3295,-4.2996,-4.2928,-4.3167,-4.3167,-4.3277,-4.3479,-4.3039,-4.2947,-4.3112,-4.1497,-4.001,-3.8707,-3.8707,-3.8707,-3.8707,-3.8707,-3.8707,-3.8707,-3.8707,-3.8707,-3.8707,-3.8707,-3.8707,-3.8707,-3.8707,-3.856,-3.8267,-3.7679,-3.7331,-3.7,-3.6193,-3.5514,-3.4935,-3.4715,-3.4266,-3.3807,-3.3807,-3.3807,-3.3807,-3.3807,-3.3807,-3.3587,-3.2779,-3.2614,-3.2375,-3.1549,-3.0925,-3.0522,-3.0522,-3.0063,-2.9861,-3.0448,-3.0044,-2.9586,-2.9365,-2.9122,-2.8994,-2.8994,-2.9934,-3.076,-3.1347,-3.2339,-3.3183,-3.3752,-3.3807,-3.3807,-3.3807,-3.3807,-3.3807,-3.3807,-3.4596,-3.544,-3.6303,-3.7092,-3.7941,-3.8833,-3.8833,-3.8844,-3.0664,-3.0937,-3.1367,-3.2968,-3.3398,-3.3418,-3.3359,-3.3379,-3.3371,-3.329,-3.3305,-3.3584,-3.4413,-3.5212,-3.6257,-3.7868,-3.8854,-3.9646,-4.0354,-3.9046,-3.8296,-3.9123,-3.7757,-3.7411,-3.9123,-3.9771,-4.0081,-4.01,-4.1306,-4.2065,-4.2102,-4.2539,-4.2787,-4.2805,-4.176,-4.1552,-4.2323,-4.2341,-4.2727,-4.3461,-4.1919,-4.1589,-4.2286,-4.0671,-3.9478,-3.8707,-3.8707,-3.8707,-3.8707,-3.8707,-3.8707,-3.8707,-3.8707,-3.8707,-3.8707,-3.8707,-3.8707,-3.8707,-3.8707,-3.8193,-3.7544,-3.7526,-3.6964,-3.6174,-3.5312,-3.5009,-3.4825,-3.4064,-3.3825,-3.3807,-3.3807,-3.3807,-3.3807,-3.3807,-3.3807,-3.3587,-3.2779,-3.2614,-3.2375,-3.1549,-3.1366,-3.1347,-3.1347,-3.1329,-3.1329,-3.1347,-3.1329,-3.1035,-3.0265,-2.9494,-2.8994,-2.8994,-3.0411,-3.1366,-3.1384,-3.2852,-3.377,-3.3807,-3.3807,-3.3807,-3.3807,-3.3807,-3.3807,-3.3807,-3.4596,-3.544,-3.6303,-3.7092,-3.805,-3.9099,-3.9099,-3.9264,-2.9671,-3.0747,-3.1777,-3.2324,-3.2949,-3.3398,-3.3379,-3.2969,-3.2734,-3.3231,-3.2477,-3.2128,-3.3463,-3.3926,-3.4826,-3.7005,-3.8112,-3.8969,-3.9781,-3.9339,-3.8839,-3.8599,-3.8484,-3.8661,-3.9238,-3.9465,0.0,-4.0082,-4.1011,-4.1468,-4.1235,-4.1926,-4.2326,-4.228,-4.1902,-4.1754,-4.1834,-4.1853,-4.1846,-4.1901,-4.1368,-4.0965,-4.0689,-4.0139,-3.946,-3.8707,-3.8707,-3.8707,-3.8707,-3.8707,-3.8707,-3.8707,-3.8707,-3.8707,-3.8707,-3.8707,-3.8358,-3.79,-3.79,-3.7716,-3.7312,-3.6193,-3.5679,-3.5293,-3.4449,-3.4211,-3.4156,-3.388,-3.3807,-3.3807,-3.3807,-3.3807,-3.3807,-3.3807,-3.3807,-3.3733,-3.3458,-3.3403,-3.333,-3.3036,-3.2559,-3.221,-3.221,-3.1751,-3.1568,-3.2118,-3.1733,-3.1292,-3.1017,-3.076,-3.0595,-3.0595,-3.1549,-3.221,-3.221,-3.3183,-3.3895,-3.4068,-3.3902,-3.3876,-3.4068,-3.4068,-3.4068,-3.4068,-3.5067,-3.5988,-3.6831,-3.7673,-3.8571,-3.9414,-3.9414,-3.9486,-2.9582,-3.0652,-3.157,-3.1895,-3.2426,-3.278,-3.2465,-3.1997,-3.171,-3.1953,-3.1152,-3.082,-3.2187,-3.2441,-3.3356,-3.615,-3.7318,-3.8267,-3.9431,-3.9535,-3.9399,-3.9153,-3.9523,-3.9912,-4.0219,-4.0489,0.0,-4.0709,-4.1742,-4.2163,-4.1654,-4.2041,-4.2124,-4.176,-4.1359,-4.1186,-4.1314,-4.1314,-4.1222,-4.0982,-4.0982,-4.0515,-3.9601,-3.9601,-3.9301,-3.8707,-3.8707,-3.8707,-3.8707,-3.8707,-3.8707,-3.8707,-3.8707,-3.8707,-3.8707,-3.8707,-3.8193,-3.7507,-3.7507,-3.7092,-3.6431,-3.5367,-3.4807,-3.4486,-3.3972,-3.3807,-3.3807,-3.3807,-3.3807,-3.3807,-3.3807,-3.3807,-3.3807,-3.3807,-3.3807,-3.3807,-3.3807,-3.3807,-3.3815,-3.391,-3.3529,-3.3229,-3.3351,-3.2929,-3.2743,-3.3258,-3.2911,-3.2418,-3.2022,-3.1802,-3.1708,-3.1708,-3.2409,-3.2892,-3.2892,-3.3647,-3.4208,-3.4379,-3.4213,-3.4189,-3.4379,-3.4379,-3.451,-3.4813,-3.5536,-3.6451,-3.7583,-3.8131,-3.8874,-3.9775,-3.9775,-3.984,-3.0306,-3.0564,-3.0766,-3.1572,-3.1806,-3.1611,-3.0749,-3.0574,-3.0399,-2.9643,-2.9452,-2.9707,-3.0605,-3.082,-3.1973,-3.5293,-3.6582,-3.7764,-3.9448,-3.968,-3.9956,-4.0723,-4.0761,-4.1039,-4.1854,-4.2604,0.0,-4.1873,0.0,-4.3932,-4.3085,-4.2776,-4.22,-4.1303,-4.0217,-4.0,-4.0745,-4.0764,-4.074,-4.074,-4.074,-4.0184,-3.9125,-3.9125,-3.899,-3.875,-3.875,-3.875,-3.875,-3.875,-3.875,-3.875,-3.875,-3.875,-3.875,-3.8713,-3.8162,-3.7463,-3.7426,-3.635,-3.499,-3.4935,-3.4431,-3.3807,-3.3807,-3.3807,-3.3807,-3.3807,-3.3807,-3.3807,-3.3807,-3.3807,-3.3807,-3.3807,-3.3815,-3.3815,-3.3815,-3.3842,-3.3928,-3.4171,-3.4242,-3.4334,-3.4653,-3.4694,-3.4694,-3.4694,-3.4714,-3.431,-3.3224,-3.2652,-3.2335,-3.2335,-3.2997,-3.3469,-3.3469,-3.4223,-3.4713,-3.4714,-3.4694,-3.4713,-3.4714,-3.4752,-3.5129,-3.5905,-3.602,-3.6852,-3.8458,-3.8496,-3.906,-4.012,-4.012,-4.0269,-2.9421,-2.9987,-3.0433,-2.9998,-3.0414,-3.0712,-2.9881,-3.0162,-3.0385,-2.9586,-2.8907,-2.8544,-2.8847,-2.9941,-3.1738,-3.4551,-3.6816,-3.8827,-4.0558,-4.0713,-4.0726,-4.0922,-4.0855,-4.087,-4.1088,-4.1819,0.0,0.0,-4.3412,-4.3662,-4.222,-4.267,-4.227,-4.0754,-4.0415,-4.0272,-4.0266,-4.0034,-3.992,-3.992,-3.992,-3.9741,-3.9462,-3.9462,-3.9432,-3.9377,-3.9377,-3.9377,-3.9377,-3.9377,-3.9377,-3.9377,-3.9377,-3.9377,-3.9302,-3.864,-3.789,-3.7127,-3.6522,-3.5739,-3.4899,-3.4302,-3.3972,-3.3807,-3.3807,-3.3807,-3.3807,-3.3807,-3.3807,-3.3807,-3.3807,-3.3807,-3.3807,-3.3807,-3.3961,-3.4099,-3.4099,-3.4288,-3.4486,-3.4551,-3.4572,-3.4593,-3.4674,-3.4694,-3.4694,-3.4694,-3.487,-3.4813,-3.4331,-3.4144,-3.4072,-3.4072,-3.4261,-3.4354,-3.4354,-3.4562,-3.4793,-3.4981,-3.4793,-3.4774,-3.4981,-3.5569,-3.6006,-3.6196,-3.767,-3.8635,-3.9059,-3.967,-4.0109,-4.0389,-4.0389,-4.0422,-2.8659,-2.8967,-2.9236,-2.8736,-2.9025,-2.9294,-2.8841,-2.9091,-2.9198,-2.839,-2.7825,-2.7505,-2.7571,-2.9029,-3.0957,-3.3203,-3.6074,-3.8496,-3.9863,-4.0644,-4.1094,-4.1094,-4.1311,-4.1459,-4.1466,-4.2165,-4.2613,0.0,-4.3335,-4.3201,-4.1873,-4.2258,-4.1912,-4.0527,-4.0489,-4.0441,-4.0286,-4.0101,-3.9985,-3.9985,-3.9985,-3.9944,-3.9819,-3.9819,-3.9754,-3.9599,0.0,-3.9599,-3.9599,-3.9599,-3.9599,-3.9599,-3.9599,-3.9373,-3.8954,-3.8482,-3.7577,-3.6505,-3.605,-3.5435,-3.4797,-3.4333,-3.4208,-3.4208,-3.4208,-3.4208,-3.4208,-3.4208,-3.4208,-3.4208,-3.4208,-3.4208,-3.4208,-3.4208,-3.4307,-3.4423,-3.4423,-3.4572,-3.4734,-3.4851,-3.4963,-3.5053,-3.5053,-3.5053,-3.5053,-3.5053,-3.519,-3.5223,-3.507,-3.5053,-3.5053,-3.5053,-3.5053,-3.5053,-3.5053,-3.5053,-3.5122,-3.5273,-3.5122,-3.5122,-3.5273,-3.6055,-3.6668,-3.7031,-3.8539,-3.9469,-3.9815,-4.0277,-4.0489,-4.0489,-4.0489,-4.0489,-2.8082,-2.789,-2.7871,-2.7755,-2.7813,-2.7871,-2.7755,-2.7813,-2.7668,-2.6856,-2.6685,-2.6678,-2.6631,-2.8179,-3.0073,-3.1953,-3.5098,-3.7676,-3.8789,-4.0254,-4.1191,-4.1191,-4.1758,-4.2151,-4.2143,-4.271,-4.3089,-4.3079,-4.2903,-4.2499,-4.1854,-4.1816,-4.1393,-4.0527,-4.0489,-4.0489,-4.0489,-4.0489,-4.0489,-4.0489,-4.0489,-4.0372,-4.0158,-4.0158,-3.9983,-3.9712,0.0,0.0,-3.9712,-3.9712,-3.9712,-3.9716,-3.9599,-3.9107,-3.8404,-3.8177,-3.7194,-3.5984,-3.5871,-3.5399,-3.4793,-3.4714,-3.4694,-3.4694,-3.4694,-3.4694,-3.4694,-3.4694,-3.4694,-3.4694,-3.4694,-3.4694,-3.4694,-3.4694,-3.4714,-3.4754,-3.4754,-3.4774,-3.487,-3.5105,-3.5354,-3.5493,-3.5493,-3.5493,-3.5493,-3.5493,-3.5493,-3.5493,-3.5493,-3.5493,-3.5493,-3.5493,-3.5493,-3.5493,-3.5493,-3.5493,-3.5493,-3.5493,-3.5493,-3.5493,-3.5493,-3.6276,-3.7065,-3.7815,-3.8796,-3.9642,-4.0335,-4.045,-4.0489,-4.0489,-4.0392,-4.0392,-2.7928,-2.789,-2.7736,-2.7005,-2.7371,-2.7717,-2.6986,-2.7371,-2.7659,-2.6783,-2.661,-2.6428,-2.5755,-2.7672,-3.0153,-3.2673,-3.541,-3.8047,-4.043,-4.1016,-4.1191,-4.1191,-4.1308,-4.1385,-4.1387,-4.1416,0.0,0.0,0.0,-4.1416,-4.1947,-4.1854,-4.1393,-4.0527,-4.0489,-4.0489,-4.0489,-4.0489,-4.0489,-4.0489,-4.0489,-4.0473,-4.0441,-4.0441,-4.0406,-4.0336,0.0,0.0,-4.0336,-4.0336,-4.0336,-4.0279,-3.9608,-3.9262,-3.8955,-3.7501,-3.6792,-3.6481,-3.5795,-3.5469,-3.5289,-3.4832,-3.4694,-3.4694,-3.4694,-3.4694,-3.4694,-3.4694,-3.4694,-3.4694,-3.4694,-3.4694,-3.4694,-3.4694,-3.487,-3.5016,-3.5016,-3.5207,-3.5369,-3.5432,-3.5479,-3.5493,-3.5493,-3.5493,-3.5493,-3.5493,-3.5493,-3.5493,-3.5493,-3.5493,-3.5493,-3.5493,-3.5493,-3.5493,-3.5493,-3.5493,-3.5493,-3.5493,-3.5493,-3.5493,-3.5493,-3.6276,-3.6776,-3.693,-3.8488,-3.9373,-3.9508,-4.0181,-4.0489,-4.0469,-3.9815,-3.9854,-2.6678,-2.6544,-2.6447,-2.6024,-2.6236,-2.6447,-2.6024,-2.6255,-2.6428,-2.6005,-2.5928,-2.5813,-2.5418,-2.7132,-2.9187,-3.0944,-3.3437,-3.6094,-3.875,-3.9531,-4.0176,-4.1094,-4.1191,-4.1191,-4.1191,-4.1136,-4.111,-4.1102,0.0,-4.1036,-4.1351,-4.1277,-4.0989,-4.0508,-4.0489,-4.0489,-4.0489,-4.0489,-4.0489,-4.0489,-4.0489,-4.0489,-4.0489,-4.0489,-4.0489,-4.0489,-4.0489,0.0,-4.0489,-4.0489,-4.0239,-3.9835,-3.945,-3.8738,-3.7853,-3.7007,-3.6449,-3.6026,-3.5641,-3.5493,-3.5446,-3.5207,-3.5122,-3.5122,-3.5122,-3.5122,-3.5122,-3.5122,-3.5122,-3.5122,-3.5122,-3.5122,-3.5122,-3.5122,-3.5207,-3.5304,-3.5304,-3.5417,-3.5493,-3.5493,-3.5493,-3.5493,-3.5493,-3.5493,-3.5493,-3.5493,-3.5493,-3.5493,-3.5493,-3.5493,-3.5493,-3.5493,-3.5493,-3.5493,-3.5493,-3.5493,-3.5493,-3.5493,-3.5493,-3.5493,-3.5493,-3.6276,-3.6699,-3.6699,-3.7969,-3.8623,-3.8623,-3.9008,-3.92,-3.9181,-3.8796,-3.8834,-2.5495,-2.5303,-2.5303,-2.5303,-2.5303,-2.5303,-2.5303,-2.5303,-2.5303,-2.5303,-2.5303,-2.5303,-2.5303,-2.6766,-2.8327,-2.9404,-3.18,-3.4461,-3.7109,-3.8262,-3.9414,-4.1016,-4.1191,-4.1191,-4.1191,-4.1035,0.0,-4.0928,0.0,0.0,-4.0544,-4.0646,-4.0581,-4.0277,-4.0412,-4.0489,-4.0489,-4.0489,-4.0489,-4.0489,-4.0315,-4.0239,-4.0239,-4.0046,-3.995,-3.9969,-4.0162,0.0,0.0,-4.0431,-4.0027,-3.9277,-3.9084,-3.8065,-3.668,-3.6507,-3.6045,-3.5493,-3.5493,-3.5493,-3.5493,-3.5493,-3.5493,-3.5493,-3.5493,-3.5493,-3.5493,-3.5493,-3.5493,-3.5493,-3.5493,-3.5493,-3.5493,-3.5493,-3.5493,-3.5493,-3.5493,-3.5493,-3.5493,-3.5493,-3.5493,-3.5493,-3.5493,-3.5493,-3.5493,-3.5493,-3.5493,-3.5493,-3.5493,-3.5493,-3.5493,-3.5493,-3.5493,-3.5493,-3.5493,-3.5493,-3.5493,-3.5493,-3.5493,-3.5493,-3.5493,-3.6122,-3.6449,-3.6449,-3.7276,-3.7719,-3.7719,-3.7911,-3.8007,-3.8027,-3.7834,-3.7873,-2.5322,-2.5303,-2.5303,-2.5303,-2.5303,-2.5303,-2.5303,-2.5303,-2.5303,-2.5303,-2.5303,-2.5303,-2.5303,-2.6736,-2.848,-3.0199,-3.2624,-3.5249,-3.8004,-3.9082,-4.0,-4.1074,-4.1191,-4.1191,-4.1191,-4.0488,-4.0019,0.0,0.0,0.0,-3.968,-4.0346,-4.0335,-3.9531,-4.0162,-4.0489,-4.0489,-4.0489,-4.0489,-4.0489,-3.9758,-3.9411,-3.9373,-3.8584,-3.8238,-3.8277,-3.9065,0.0,0.0,-4.02,-4.0027,-3.9219,-3.843,-3.7546,-3.6622,-3.5892,-3.5551,-3.5493,-3.5493,-3.5493,-3.5493,-3.5493,-3.5493,-3.5493,-3.5493,-3.5493,-3.5493,-3.5493,-3.5493,-3.5493,-3.5493,-3.5493,-3.5493,-3.5493,-3.5493,-3.5493,-3.5493,-3.5493,-3.5493,-3.5493,-3.5493,-3.5493,-3.5493,-3.5493,-3.5493,-3.5493,-3.5493,-3.5493,-3.5493,-3.5493,-3.5493,-3.5493,-3.5493,-3.5493,-3.5493,-3.5493,-3.5493,-3.5493,-3.5493,-3.5493,-3.5493,-3.557,-3.5622,-3.5622,-3.6411,-3.6815,-3.6834,-3.7603,-3.8027,-3.807,-3.7339,-3.7469,-2.5303,-2.5303,-2.5303,-2.5303,-2.5303,-2.5303,-2.5303,-2.5303,-2.5303,-2.5303,-2.5303,-2.5457,-2.5986,-2.6659,-2.7689,-2.9424,-3.0579,-3.2383,-3.5585,-3.6748,-3.803,-4.0058,-4.0762,-4.0918,-4.0469,0.0,-3.9687,0.0,0.0,0.0,-3.8235,-3.8917,-3.914,-3.8747,-3.9019,-3.9419,-3.9935,-3.9877,-3.9835,-3.9831,-3.9484,-3.9027,-3.8507,-3.8161,-3.8007,-3.8027,-3.8373,0.0,0.0,-3.8854,-3.8507,-3.77,-3.7353,-3.6719,-3.5949,-3.5622,-3.5493,-3.5493,-3.5493,-3.5493,-3.5493,-3.5493,-3.5493,-3.5493,-3.5493,-3.5493,-3.5493,-3.5493,-3.5493,-3.5493,-3.5493,-3.5493,-3.5493,-3.5493,-3.5493,-3.5493,-3.5493,-3.5493,-3.5493,-3.5493,-3.5493,-3.5493,-3.5493,-3.5493,-3.5493,-3.5493,-3.5493,-3.5493,-3.5493,-3.5493,-3.5493,-3.5493,-3.5493,-3.5493,-3.5493,-3.5493,-3.5493,-3.5493,-3.5493,-3.5493,-3.5493,-3.5493,-3.5493,-3.5493,-3.5853,-3.6045,-3.6045,-3.643,-3.6642,-3.6642,-3.6323,-3.6377,-2.5303,-2.5303,-2.5303,-2.5303,-2.5303,-2.5303,-2.5303,-2.5303,-2.536,-2.563,-2.5668,-2.5947,-2.6813,-2.7178,-2.7736,-2.8909,-2.9756,-3.1345,-3.434,-3.5731,-3.7353,-3.9799,-4.0635,-4.0801,0.0,-3.9824,0.0,0.0,0.0,0.0,0.0,-3.7402,-3.776,-3.7945,-3.817,-3.8595,-3.9206,-3.9116,-3.9075,-3.9065,-3.8777,-3.8315,-3.7685,-3.743,-3.7296,-3.7296,0.0,0.0,0.0,-3.7892,-3.7488,-3.6699,-3.6699,-3.6219,-3.5493,-3.5493,-3.5493,-3.5493,-3.5493,-3.5493,-3.5493,-3.5493,-3.5493,-3.5493,-3.5493,-3.5493,-3.5493,-3.5493,-3.5493,-3.5493,-3.5493,-3.5493,-3.5493,-3.5493,-3.5493,-3.5493,-3.5493,-3.5493,-3.5493,-3.5493,-3.5493,-3.5493,-3.5493,-3.5493,-3.5493,-3.5493,-3.5493,-3.5493,-3.5493,-3.5493,-3.5493,-3.5493,-3.5526,-3.5526,-3.5493,-3.5493,-3.5493,-3.5493,-3.5526,-3.5545,-3.5545,-3.5565,-3.568,-3.593,-3.5738,-3.5753,-3.6006,-3.5794,-3.5726,-3.5771,-3.5755,-3.5779,-2.5303,-2.5303,-2.5303,-2.5303,-2.5303,-2.5303,-2.5303,-2.5303,-2.5534,-2.6409,-2.6582,-2.6851,-2.7736,-2.8544,-2.9083,-2.9102,-3.1218,-3.35,-3.5335,-3.7088,-3.8864,-4.075,-4.0994,-4.1055,-4.1172,-3.9629,0.0,0.0,0.0,0.0,0.0,-3.6016,-3.6367,-3.709,-3.7873,-3.8307,-3.8307,-3.8307,-3.8315,-3.8293,-3.7444,-3.7017,-3.6978,-3.6051,-3.5622,0.0,0.0,0.0,0.0,-3.7642,-3.7488,-3.6699,-3.6699,-3.6219,-3.5493,-3.5493,-3.5493,-3.5493,-3.5493,-3.5493,-3.5493,-3.5493,-3.5493,-3.5493,-3.5493,-3.5493,-3.5493,-3.5493,-3.5493,-3.5493,-3.5493,-3.5493,-3.5493,-3.5493,-3.5493,-3.5493,-3.5493,-3.5493,-3.5493,-3.5493,-3.5493,-3.5493,-3.5493,-3.5493,-3.5493,-3.5493,-3.5493,-3.5493,-3.5493,-3.5493,-3.5493,-3.5493,-3.5565,-3.5584,-3.5526,-3.5493,-3.5493,-3.5493,-3.5565,-3.5603,-3.5603,-3.5661,-3.6098,-3.6972,-3.6136,-3.6126,-3.6975,-3.6112,-3.5766,-3.5892,-3.5905,-3.5929,-2.5303,-2.5203,-2.5141,-2.5264,-2.5644,-2.5857,-2.5398,-2.6217,-2.6986,-2.6678,-2.7063,-2.7736,-2.8563,-2.8929,-2.966,-3.141,-3.2372,-3.3699,-3.604,-3.7425,-3.8671,-3.9899,-4.0156,-4.0039,0.0,0.0,0.0,0.0,0.0,0.0,0.0,-3.5996,-3.6113,-3.6348,-3.6594,-3.7014,-3.7619,-3.7521,-3.751,-3.7547,-3.7186,-3.6687,-3.6096,-3.5794,0.0,0.0,0.0,0.0,0.0,-3.6315,-3.6238,-3.5949,-3.5949,-3.5757,-3.5493,-3.5493,-3.5493,-3.5493,-3.5493,-3.5493,-3.5493,-3.5493,-3.5493,-3.5493,-3.5493,-3.5493,-3.5493,-3.5493,-3.5493,-3.5493,-3.5493,-3.5493,-3.5493,-3.5493,-3.5493,-3.5493,-3.5493,-3.5493,-3.5493,-3.5493,-3.5493,-3.5493,-3.5493,-3.5493,-3.5493,-3.5493,-3.5545,-3.5584,-3.5584,-3.5622,-3.5641,-3.5641,-3.5661,-3.5641,-3.5584,-3.5622,-3.5622,-3.5584,-3.5603,-3.5611,-3.5678,-3.5678,-3.5862,-3.6172,-3.667,-3.6704,-3.6261,-3.6016,-3.5932,-3.5962,-3.5962,-3.5974,-2.5303,-2.5214,-2.5152,-2.5264,-2.5606,-2.5811,-2.5398,-2.639,-2.7351,-2.7121,-2.7755,-2.8602,-2.9448,-2.9583,-3.0217,-3.2141,-3.2987,-3.418,-3.6463,-3.7849,-3.9018,-4.0,0.0,0.0,0.0,0.0,0.0,0.0,0.0,0.0,0.0,-3.5996,-3.5996,-3.5996,-3.5996,-3.6269,-3.6797,-3.6738,-3.6719,-3.6758,-3.6668,-3.6343,-3.5806,-3.5786,0.0,0.0,0.0,0.0,0.0,-3.5693,-3.5673,-3.5643,-3.5637,-3.5622,-3.5584,-3.5584,-3.5584,-3.5584,-3.5584,-3.5584,-3.5584,-3.5584,-3.5584,-3.5584,-3.5584,-3.5545,-3.5493,-3.5493,-3.5493,-3.5493,-3.5493,-3.5493,-3.5493,-3.5493,-3.5526,-3.5545,-3.5545,-3.5565,-3.5584,-3.5584,-3.5584,-3.5584,-3.5584,-3.5584,-3.5584,-3.5584,-3.5622,-3.5643,-3.5643,-3.5673,-3.5693,-3.5693,-3.574,-3.5757,-3.568,-3.5662,-3.5828,-3.6245,-3.5875,-3.5656,-3.5689,-3.5768,-3.5825,-3.5864,-3.6572,-3.682,-3.6587,-3.6189,-3.5996,-3.5996,-3.5996,-3.5996,0.0,-2.5303,-2.5274,-2.5303,-2.538,-2.5447,-2.5399,-2.6159,0.0,-2.7832,-2.8621,-2.9486,-3.041,-3.0533,-3.0852,-3.1891,-3.3353,-3.502,-3.6824,-3.8479,0.0,0.0,-4.1064,0.0,0.0,0.0,0.0,0.0,0.0,0.0,0.0,-3.5996,-3.5996,-3.5996,-3.5996,-3.5996,-3.5996,-3.5996,-3.5996,-3.5996,-3.5996,-3.5996,-3.5996,-3.5937,0.0,0.0,0.0,0.0,0.0,-3.5723,-3.5723,-3.571,-3.5712,-3.5695,-3.5701,-3.5701,-3.5701,-3.5701,-3.5701,-3.5701,-3.5701,-3.5701,-3.5701,-3.5701,-3.5701,-3.5597,-3.5526,-3.5526,-3.5526,-3.5526,-3.5526,-3.5526,-3.5526,-3.5526,-3.5565,-3.5603,-3.5611,-3.5663,-3.5701,-3.5701,-3.5701,-3.5701,-3.5701,-3.5701,-3.5701,-3.5701,-3.5713,-3.5719,-3.5718,-3.573,-3.5723,-3.5723,-3.5889,-3.6001,-3.6001,-3.5766,-3.6119,-3.7235,-3.6308,-3.5721,-3.5721,-3.5895,-3.5996,-3.5996,-3.5996,-3.6523,-3.7578,-3.6523,-3.5996,-3.5996,-3.5996,-3.5996,-2.5303,0.0,-2.5099,-2.5264,-2.6189,-2.6929,0.0,-2.7967,-2.939,-2.8909,-2.9506,-3.0544,-3.2045,-3.1814,-3.2295,-3.5064,-3.5872,-3.6738,-3.8556,-3.9865,0.0,-4.112,-4.0599,-3.9785,0.0,0.0,0.0,0.0,0.0,0.0,0.0,-3.5996,-3.5996,-3.5996,-3.5996,-3.5996,-3.5996,-3.5996,-3.5996,-3.5996,-3.5996,-3.5996,-3.5996,-3.5976,0.0,0.0,0.0,0.0,-3.593,-3.593,-3.5891,-3.5851,-3.5857,-3.5797,-3.5693,-3.5693,-3.5693,-3.5693,-3.5693,-3.5693,-3.5693,-3.5693,-3.5693,-3.5693,-3.5693,-3.5684,-3.5661,-3.5661,-3.5661,-3.5661,-3.5661,-3.5661,-3.5661,-3.5661,-3.568,-3.5682,-3.5669,-3.5693,-3.5693,-3.5693,-3.5693,-3.5693,-3.5693,-3.5693,-3.5693,-3.5693,-3.5786,-3.5855,-3.5854,-3.5891,-3.593,-3.593,-3.655,-3.7222,-3.7891,-3.6683,-3.6028,-3.6302,-3.6074,-3.5926,-3.5926,-3.5972,-3.5996,-3.5996,-3.5996,-3.6133,-3.6406,-3.6133,-3.5996,-3.5996,-3.5996,-3.5996,-2.5793,-2.6107,-2.6362,-2.6465,-2.7393,-2.8183,-2.7841,-2.8813,-2.9679,-2.9198,-2.9794,-3.0814,-3.2102,-3.2295,-3.3103,-3.5718,-3.6853,-3.8041,0.0,0.0,-4.113,-4.119,-4.043,0.0,0.0,0.0,0.0,0.0,0.0,0.0,0.0,-3.5996,-3.5996,-3.5996,-3.5996,-3.5996,-3.5996,-3.5996,-3.5996,-3.5996,-3.5996,-3.5996,-3.5996,-3.5996,-3.5996,0.0,0.0,0.0,-3.5996,-3.5996,-3.5976,-3.5957,-3.5957,-3.5891,-3.5841,-3.5841,-3.5841,-3.5841,-3.5841,-3.5841,-3.5841,-3.5841,-3.5841,-3.584,-3.584,-3.584,-3.5833,-3.5725,-3.5706,-3.5706,-3.5706,-3.5706,-3.5706,-3.5706,-3.5758,-3.5791,-3.5794,-3.5827,-3.5841,-3.5841,-3.5841,-3.5841,-3.5841,-3.5841,-3.5841,-3.5841,-3.5897,-3.5954,-3.5954,-3.6339,-3.6601,-3.6601,-3.7386,-3.8186,-3.8914,-3.8102,-3.7793,-3.8359,-3.8398,-3.8398,-3.8398,-3.6855,-3.5996,-3.5996,-3.5996,-3.5996,-3.5996,-3.5996,-3.5996,-3.5996,-3.5996,-3.5996,-2.6534,-2.7535,-2.8228,-2.7967,-2.8602,-2.9256,-2.9121,-2.9198,-2.9333,-2.9467,-3.0083,-3.1006,-3.2256,-3.2961,-3.4,-3.6007,-3.7632,-3.9244,-4.0962,-4.1201,-4.1152,-4.1016,-4.0234,0.0,0.0,0.0,0.0,0.0,0.0,0.0,0.0,-3.5996,-3.5996,-3.5996,-3.5996,-3.5996,-3.5996,-3.5996,-3.5996,-3.5996,-3.5996,-3.5996,-3.5996,-3.5996,-3.5996,0.0,0.0,0.0,-3.5996,-3.5996,-3.5996,-3.5996,-3.5996,-3.5996,-3.5996,-3.5996,-3.5996,-3.5996,-3.5996,-3.5996,-3.5996,-3.5996,-3.5996,-3.6,-3.6,-3.6,-3.5961,-3.578,-3.5741,-3.5741,-3.5741,-3.5741,-3.5741,-3.5741,-3.5832,-3.591,-3.591,-3.5967,-3.5996,-3.5996,-3.5996,-3.5996,-3.5996,-3.5996,-3.5996,-3.5996,-3.5996,-3.5996,-3.5996,-3.6758,-3.7305,-3.7305,-3.8203,-3.8984,-3.9434,-3.9609,-4.0117,-4.1133,-4.1191,-4.0957,-4.043,-3.7578,-3.5996,-3.5996,-3.5996,-3.5996,-3.5996,-3.5996,-3.5996,-3.5996,-3.5971,-3.5964,-2.7345,-2.8925,-2.9751,-2.8266,-2.9063,-3.0006,-2.9275,-2.9679,-3.041,-3.116,-3.1441,-3.2512,-3.5534,-3.5695,-3.6388,-3.9561,-4.0352,-4.0935,0.0,0.0,-4.0937,-4.0195,0.0,0.0,0.0,0.0,0.0,0.0,0.0,0.0,0.0,-3.5996,-3.5996,-3.5996,-3.5996,-3.5996,-3.5996,-3.5996,-3.5996,-3.5996,-3.5996,-3.5996,-3.5996,-3.5996,-3.5996,0.0,0.0,-3.5996,-3.5996,-3.5996,-3.5996,-3.5996,-3.5996,-3.5996,-3.5996,-3.5996,-3.5996,-3.5996,-3.5996,-3.5996,-3.5996,-3.5996,-3.5995,-3.5993,-3.5993,-3.5993,-3.5993,-3.5954,-3.5954,-3.5954,-3.5954,-3.5954,-3.5954,-3.5954,-3.597,-3.5984,-3.5984,-3.5993,-3.5996,-3.5996,-3.5996,-3.5996,-3.5996,-3.5996,-3.5996,-3.5996,-3.5996,-3.5996,-3.5996,-3.6758,-3.7305,-3.7305,-3.873,-3.9726,-3.9824,-4.0508,-4.0996,-4.1191,-4.1191,-3.9883,-3.6914,-3.6289,-3.5996,-3.5996,-3.5996,-3.5996,-3.5996,-3.5996,-3.5996,-3.5996,-3.5885,-3.5832,-2.7586,-2.8924,-2.9889,-3.0028,-3.1351,-3.2627,-3.2709,-3.2671,-3.2856,-3.3735,-3.3947,-3.4573,-3.6581,-3.7065,-3.7986,-4.053,0.0,-4.1687,-4.1704,-4.1404,-4.0879,0.0,0.0,0.0,0.0,0.0,0.0,0.0,0.0,0.0,0.0,0.0,-3.5996,-3.5996,-3.5996,-3.5996,-3.5996,-3.5996,-3.5996,-3.5996,-3.5996,-3.5996,-3.5996,-3.5996,-3.5996,-3.5996,0.0,-3.5996,-3.5996,-3.5996,-3.5996,-3.5996,-3.5996,-3.5996,-3.5996,-3.5996,-3.5996,-3.5996,-3.5996,-3.5996,-3.5996,-3.5996,-3.5996,-3.5996,-3.5996,-3.5996,-3.5996,-3.5996,-3.5996,-3.5996,-3.5996,-3.5996,-3.5996,-3.5996,-3.5996,-3.5996,-3.5996,-3.5996,-3.5996,-3.5996,-3.5996,-3.5996,-3.5996,-3.5996,-3.5996,-3.5996,-3.6406,-3.6699,-3.6699,-3.7871,-3.8691,-3.8691,-3.9844,-4.0605,-4.0605,-4.0976,-4.1191,-4.1191,-4.1191,-3.9648,-3.6133,-3.5996,-3.5996,-3.5996,-3.5996,-3.5996,-3.5996,-3.5996,-3.5996,-3.6005,-3.5948,-3.5834,-2.7653,-2.8714,-2.9777,-3.1526,-3.2945,-3.416,-3.5256,-3.4988,-3.4796,-3.5852,-3.6281,-3.6679,-3.7486,-3.8519,0.0,-4.0854,-4.178,-4.214,-4.1559,0.0,0.0,0.0,0.0,0.0,0.0,0.0,0.0,0.0,0.0,0.0,0.0,0.0,-3.5996,-3.5996,-3.5996,-3.5996,-3.5996,-3.5996,-3.5996,-3.5996,-3.5996,-3.5996,-3.5996,-3.5996,-3.5996,-3.5996,-3.5996,-3.5996,-3.5996,-3.5996,-3.5996,-3.5996,-3.5996,-3.5996,-3.5996,-3.5996,-3.5996,-3.5996,-3.5996,-3.5996,-3.5996,-3.5996,-3.5996,-3.5996,-3.5996,-3.5996,-3.5996,-3.5996,-3.5996,-3.5996,-3.5996,-3.5996,-3.5996,-3.5996,-3.5996,-3.5996,-3.5996,-3.5996,-3.5996,-3.5996,-3.5996,-3.5996,-3.5996,-3.6172,-3.6309,-3.6309,-3.7051,-3.7598,-3.7598,-3.8945,-3.9902,-3.9902,-4.0684,-4.1191,-4.1191,-4.1191,-4.1191,-4.1191,-4.1191,-3.9648,-3.6133,-3.5996,-3.5996,-3.5996,-3.5999,-3.6001,-3.6004,-3.6003,-3.5997,-3.6002,-3.5913,-3.5776,-2.7721,-2.8821,-2.9919,-3.1735,-3.2124,-3.2538,-3.4205,-3.4549,-3.4958,-3.6586,-3.7656,-3.8542,-3.9354,-4.0935,-4.1894,-4.1287,-4.1852,-4.2362,0.0,0.0,0.0,0.0,0.0,0.0,0.0,0.0,0.0,0.0,0.0,0.0,0.0,0.0,0.0,-3.5996,-3.5996,-3.5996,-3.5996,-3.5996,-3.5996,-3.5996,-3.5996,-3.5996,-3.5996,-3.5996,-3.5996,-3.5996,-3.5996,-3.5996,-3.5996,-3.5996,-3.5996,-3.5996,-3.5996,-3.5996,-3.5996,-3.5996,-3.5996,-3.5996,-3.5996,-3.5996,-3.5996,-3.5996,-3.5996,-3.5996,-3.5996,-3.5996,-3.5996,-3.5996,-3.5996,-3.5996,-3.5996,-3.5996,-3.5996,-3.5996,-3.5996,-3.5996,-3.5996,-3.5996,-3.5996,-3.5996,-3.5996,-3.5996,-3.5996,-3.668,-3.7207,-3.7207,-3.7949,-3.8516,-3.8516,-3.9316,-3.9902,-3.9902,-4.0684,-4.1191,-4.1191,-4.1191,-4.1191,-4.1191,-4.1191,-3.9648,-3.6133,-3.5996,-3.5996,-3.5996,-3.6009,-3.6007,-3.5991,-3.6004,-3.6002,-3.5993,-3.5666,-3.5545,-2.7134,-2.8877,-3.0527,-3.1227,-3.2522,-3.4103,-3.5845,-3.6665,-3.7546,-3.9264,-3.9911,-4.0101,-3.9872,-4.1236,-4.1953,-4.0605,-4.1523,-4.2031,0.0,0.0,0.0,0.0,0.0,0.0,0.0,0.0,0.0,0.0,0.0,0.0,0.0,0.0,0.0,-3.5195,-3.4668,-3.4375,-3.4375,-3.4922,-3.5195,-3.5195,-3.5742,-3.5996,-3.5996,-3.5996,-3.5996,-3.5996,-3.5996,-3.5996,-3.5996,-3.5996,-3.5996,-3.5996,-3.5996,-3.5996,-3.5996,-3.5996,-3.5996,-3.5996,-3.5996,-3.5996,-3.5996,-3.5996,-3.5996,-3.5996,-3.5996,-3.5996,-3.5996,-3.5996,-3.5996,-3.5996,-3.5996,-3.5996,-3.5996,-3.5996,-3.5996,-3.5996,-3.5996,-3.5996,-3.5996,-3.5996,-3.5996,-3.5996,-3.5996,-3.6719,-3.7305,-3.7305,-3.8496,-3.9414,-3.9414,-4.0176,-4.0703,-4.0703,-4.0996,-4.1191,-4.1191,-4.1123,-4.1053,-4.1014,-4.114,-4.0603,-3.9296,-3.9228,-3.9241,-3.9234,-3.9226,-3.9088,-3.8782,-3.6709,-3.5693,-3.5693,-3.556,-3.5493,-2.6836,-2.8711,-3.0611,-3.1167,-3.3027,-3.5234,-3.7246,-3.8164,-3.9082,-4.084,-4.0976,-4.0605,-4.0019,-4.084,0.0,0.0,-4.0859,0.0,0.0,0.0,0.0,0.0,0.0,0.0,0.0,0.0,0.0,0.0,0.0,0.0,0.0,0.0,0.0,0.0,-3.3711,-3.3398,-3.3398,-3.4258,-3.4707,-3.4707,-3.5586,-3.5996,-3.5996,-3.5996,-3.5996,-3.5996,-3.5996,-3.5996,-3.5996,-3.5996,-3.5996,-3.5996,-3.5996,-3.5996,-3.5996,-3.5996,-3.5996,-3.5996,-3.5996,-3.5996,-3.5996,-3.5996,-3.5996,-3.5996,-3.5996,-3.5996,-3.5996,-3.5996,-3.5996,-3.5996,-3.5996,-3.5996,-3.5996,-3.5996,-3.5996,-3.5996,-3.5996,-3.5996,-3.5996,-3.5996,-3.5996,-3.5996,-3.5996,-3.6953,-3.7715,-3.7715,-3.9199,-4.0312,-4.0312,-4.082,-4.1188,-4.1139,-4.113,-4.1124,-4.1077,-4.0984,-4.0924,-4.0866,-4.0974,-4.1089,-4.1203,-4.106,-4.0982,-4.0974,-4.0985,-4.082,-4.0492,-3.7123,-3.5498,-3.5512,-3.5493,-3.5493,-2.6992,-2.8281,-3.0039,-3.1777,-3.3476,-3.543,-3.8008,-3.8613,-3.9101,-4.084,-4.0508,-3.9902,-3.9902,-3.9902,0.0,-3.9883,0.0,0.0,0.0,0.0,0.0,0.0,0.0,0.0,0.0,0.0,0.0,0.0,0.0,0.0,0.0,0.0,0.0,0.0,-3.3379,-3.3379,-3.3379,-3.4238,-3.4687,-3.4707,-3.5566,-3.5996,-3.5996,-3.5996,-3.5996,-3.5996,-3.5996,-3.5996,-3.5996,-3.5996,-3.5996,-3.5996,-3.5996,-3.5996,-3.5996,-3.5996,-3.5996,-3.5996,-3.5996,-3.5996,-3.5996,-3.5996,-3.5996,-3.5996,-3.5996,-3.5996,-3.5996,-3.5996,-3.5996,-3.5996,-3.5996,-3.5996,-3.5996,-3.5996,-3.5996,-3.5996,-3.5996,-3.5996,-3.5996,-3.5996,-3.5996,-3.5996,-3.5996,-3.7441,-3.8594,-3.8594,-4.0078,-4.1191,-4.1191,-4.1191,-4.1152,-4.0998,-4.1001,-4.0951,-4.0816,-4.0793,-4.0791,-4.0804,-4.0735,-4.0849,-4.1182,-4.0746,-4.0489,-4.0489,-4.0489,-4.05,-4.0492,-3.7171,-3.5532,-3.5504,-3.5512,-3.5493,-2.6992,-2.918,-3.1543,-3.207,-3.4844,-3.7656,-3.8418,-3.9062,-3.9844,-4.0976,-4.0508,-3.9902,-3.9902,-3.9902,0.0,0.0,0.0,0.0,0.0,0.0,0.0,0.0,0.0,0.0,0.0,0.0,0.0,0.0,0.0,0.0,0.0,0.0,0.0,0.0,-3.1953,-3.1641,-3.1641,-3.2519,-3.3223,-3.3809,-3.4668,-3.541,-3.5996,-3.5996,-3.5996,-3.5996,-3.5996,-3.5996,-3.5996,-3.5996,-3.5996,-3.5996,-3.5996,-3.5996,-3.5996,-3.5996,-3.5996,-3.5996,-3.5996,-3.5996,-3.5996,-3.5996,-3.5996,-3.5996,-3.5996,-3.5996,-3.5996,-3.5996,-3.5996,-3.5996,-3.5996,-3.5996,-3.5996,-3.5996,-3.5996,-3.5996,-3.5996,-3.5996,-3.5996,-3.5996,-3.5996,-3.5996,-3.5996,-3.7441,-3.8598,-3.8608,-4.0001,-4.1034,-4.0922,-4.092,-4.0903,-4.0869,-4.0855,-4.0838,-4.0797,-4.0758,-4.0737,-4.0716,-4.062,-4.0646,-4.0835,-4.0622,-4.0489,-4.0489,-4.0489,-4.0504,-4.0496,-3.9499,-3.7796,-3.5504,-3.5512,-3.5493,-2.832,-3.0325,-3.2444,-3.3423,-3.5616,-3.7683,-3.8333,-3.9173,-3.9891,-4.0116,-3.9408,-3.8857,-3.9248,-3.9002,0.0,0.0,0.0,0.0,0.0,0.0,0.0,0.0,0.0,0.0,0.0,0.0,0.0,0.0,0.0,0.0,0.0,0.0,0.0,0.0,-3.1172,-3.0898,-3.0898,-3.1758,-3.2441,-3.2949,-3.4121,-3.498,-3.5508,-3.584,-3.5996,-3.5996,-3.5996,-3.5996,-3.5996,-3.5996,-3.5996,-3.5996,-3.5996,-3.5996,-3.5996,-3.5996,-3.5996,-3.5996,-3.5996,-3.5996,-3.5996,-3.5996,-3.5996,-3.5995,-3.5962,-3.5967,-3.5938,-3.5907,-3.5912,-3.5957,-3.5957,-3.5976,-3.5996,-3.5996,-3.5996,-3.5996,-3.5996,-3.5996,-3.5993,-3.5968,-3.5967,-3.5948,-3.589,-3.734,-3.8477,-3.8493,-3.9865,-4.0786,-4.0369,-4.0604,-4.0652,-4.0275,-4.0538,-4.0735,-4.0696,-4.0639,-4.062,-4.062,-4.0543,-4.0543,-4.062,-4.0543,-4.0489,-4.0489,-4.0489,-4.0504,-4.05,-4.0511,-3.8787,-3.5508,-3.5498,-3.5493,-3.0249,-3.1416,-3.2775,-3.5258,-3.5996,-3.6479,-3.7875,-3.8828,-3.929,-3.8687,-3.7726,-3.7272,-3.8222,-3.7637,-3.728,0.0,0.0,0.0,0.0,0.0,0.0,0.0,0.0,0.0,0.0,0.0,0.0,0.0,0.0,0.0,0.0,0.0,0.0,0.0,-3.0898,-3.0898,-3.0898,-3.1699,-3.2129,0.0,-3.373,-3.4512,-3.4609,-3.5566,-3.5996,-3.5996,-3.5996,-3.5996,-3.5996,-3.5996,-3.5996,-3.5996,-3.5996,-3.5996,-3.5996,-3.5993,-3.5992,-3.5992,-3.5975,-3.5975,-3.5975,-3.5975,-3.5975,-3.5962,-3.591,-3.588,-3.5862,-3.5724,-3.5782,-3.5875,-3.5877,-3.5936,-3.5975,-3.5975,-3.5996,-3.5996,-3.5993,-3.5992,-3.5978,-3.5902,-3.588,-3.5842,-3.5721,-3.7144,-3.8361,-3.8497,-3.9818,-4.0504,-3.9783,-4.0327,-4.0446,-3.9595,-4.0215,-4.0639,-4.0508,-4.0489,-4.0489,-4.0489,-4.0489,-4.0489,-4.0489,-4.0489,-4.0489,-4.0489,-4.0489,-4.0489,-4.0489,-4.0496,-3.8772,-3.5499,-3.5498,-3.5493,-2.9436,-3.0801,-3.2574,-3.5111,-3.6759,-3.7706,-3.7353,-3.7392,-3.7662,-3.8252,-3.7644,-3.7272,-3.8164,-3.7598,0.0,0.0,0.0,0.0,0.0,0.0,0.0,0.0,0.0,0.0,0.0,0.0,0.0,0.0,0.0,0.0,0.0,0.0,0.0,-3.0898,-3.0898,-3.0898,-3.0898,-3.1094,-3.1523,0.0,-3.2578,-3.3066,-3.373,-3.5293,-3.5996,-3.5996,-3.5996,-3.5996,-3.5996,-3.5996,-3.5996,-3.5996,-3.5996,-3.5996,-3.5994,-3.5943,-3.5908,-3.5901,-3.5788,-3.5758,-3.5758,-3.5758,-3.5758,-3.5766,-3.5745,-3.5734,-3.5732,-3.5714,-3.5728,-3.5747,-3.5743,-3.5758,-3.5758,-3.5758,-3.5899,-3.5984,-3.5921,-3.5908,-3.5882,-3.5763,-3.5739,-3.5726,-3.5707,-3.7135,-3.8717,-3.999,-4.0492,-4.062,-4.0331,-4.0466,-4.0504,-4.0292,-4.0427,-4.0543,-4.0489,-4.0489,-4.0489,-4.0489,-4.0489,-4.0489,-4.0489,-4.0489,-4.0489,-4.0489,-4.0489,-4.0489,-4.0489,-4.05,-3.8777,-3.5503,-3.5513,-3.5489,-2.9486,-3.0887,-3.2502,-3.503,-3.6303,-3.6843,-3.6386,-3.5925,-3.5746,-3.624,-3.6308,-3.6441,-3.6922,0.0,0.0,0.0,0.0,0.0,0.0,0.0,0.0,0.0,0.0,0.0,0.0,0.0,0.0,0.0,0.0,0.0,0.0,-3.0898,-3.0898,-3.0898,-3.0898,-3.0898,-3.0898,-3.0898,-3.1133,-3.1582,-3.1992,-3.2617,-3.3437,-3.4766,-3.5605,-3.5996,-3.5996,-3.5996,-3.5996,-3.5996,-3.5996,-3.5995,-3.5968,-3.595,-3.5937,-3.5834,-3.5801,-3.5784,-3.5723,-3.5698,-3.5698,-3.5698,-3.5698,-3.5698,-3.5659,-3.5647,-3.5661,-3.5622,-3.5641,-3.5643,-3.5657,-3.5679,-3.5698,-3.5698,-3.5768,-3.5856,-3.5815,-3.5797,-3.5772,-3.5667,-3.5642,-3.5757,-3.6122,-3.7623,-3.9196,-4.0427,-4.06,-4.0446,-3.9969,-4.0258,-4.0335,-3.9969,-4.0258,-4.0489,-4.0489,-4.0489,-4.0489,-4.0489,-4.0489,-4.0489,-4.0489,-4.0489,-4.0489,-4.0489,-4.0489,-4.0489,-4.0489,-4.05,-3.96,-3.7886,-3.7896,-3.7886,-2.9464,-3.1053,-3.2601,-3.482,-3.5315,-3.5276,-3.5276,-3.4603,-3.3968,-3.3968,-3.4545,-3.5084,0.0,0.0,0.0,0.0,0.0,0.0,0.0,0.0,0.0,0.0,0.0,0.0,0.0,0.0,0.0,0.0,0.0,0.0,-3.0898,-3.0898,-3.0898,-3.0898,-3.0898,-3.0898,-3.0898,-3.0898,-3.0898,-3.0918,-3.1621,-3.2402,-3.3223,-3.3945,-3.4746,-3.5547,-3.5547,-3.5644,-3.5762,-3.5753,-3.5843,-3.5968,-3.5912,-3.5868,-3.5855,-3.5737,-3.5678,-3.568,-3.568,-3.568,-3.568,-3.568,-3.568,-3.5661,-3.5603,-3.5584,-3.5584,-3.5526,-3.5545,-3.5584,-3.5584,-3.5622,-3.568,-3.568,-3.5676,-3.5671,-3.5671,-3.5684,-3.5661,-3.5603,-3.5584,-3.5872,-3.6776,-3.8123,-3.9392,-4.0354,-4.0489,-4.0258,-3.9585,-4.0085,-4.0239,-3.9565,-4.0085,-4.0489,-4.0489,-4.0489,-4.0489,-4.0489,-4.0489,-4.0489,-4.0489,-4.0489,-4.0473,-4.0422,-4.0473,-4.0489,-4.0489,-4.0434,-4.0434,-4.0511,-4.0495,-4.0492,-2.8033,-3.0501,-3.3032,-3.4122,-3.4372,-3.4372,-3.4372,-3.3699,-3.3064,0.0,-3.316,-3.3256,0.0,0.0,0.0,0.0,0.0,0.0,0.0,0.0,0.0,0.0,0.0,0.0,0.0,0.0,0.0,0.0,0.0,0.0,-3.0898,-3.0898,-3.0898,-3.0898,-3.0898,-3.0898,-3.0898,-3.0898,-3.0898,-3.0898,-3.1016,-3.1523,-3.2363,-3.248,-3.2988,-3.375,-3.375,-3.418,-3.4862,-3.4814,-3.523,-3.589,-3.5793,-3.5737,-3.5718,-3.5637,-3.5605,-3.5622,-3.5565,-3.5545,-3.5545,-3.5545,-3.5545,-3.5545,-3.5526,-3.5526,-3.5526,-3.5493,-3.5526,-3.5526,-3.5526,-3.5526,-3.5545,-3.5545,-3.5534,-3.5534,-3.5592,-3.5611,-3.5603,-3.5545,-3.5526,-3.6007,-3.7565,-3.8027,-3.87,-4.0258,-4.0489,-4.045,-4.0335,-4.0431,-4.045,-4.0335,-4.0431,-4.0489,-4.0489,-4.0489,-4.0489,-4.0489,-4.0489,-4.0489,-4.0489,-4.0489,-4.0389,-4.0158,-4.0372,-4.0489,-4.0489,-4.0135,-4.0158,-4.0482,-4.0492,-4.0498,-2.811,-3.0033,-3.1929,-3.3737,-3.3833,-3.3603,-3.4083,-3.3179,-3.2237,-3.2237,-3.1833,0.0,0.0,0.0,0.0,0.0,0.0,0.0,0.0,0.0,0.0,0.0,0.0,0.0,0.0,0.0,0.0,0.0,0.0,-3.0898,-3.0898,-3.0898,-3.0898,-3.0898,-3.0898,-3.0898,-3.0898,-3.0898,-3.0898,-3.0898,-3.0808,-3.1031,-3.1465,-3.135,-3.2075,-3.3398,-3.3371,-3.3557,-3.39,-3.3835,-3.4337,-3.5103,-3.4974,-3.5222,-3.5641,-3.5584,-3.5545,-3.5545,-3.5526,-3.5493,-3.5493,-3.5493,-3.5493,-3.5493,-3.5493,-3.5493,-3.5493,-3.5493,-3.5493,-3.5493,-3.5493,-3.5493,-3.5493,-3.5493,-3.5493,-3.5526,-3.5545,-3.5545,-3.5545,-3.5526,-3.5872,-3.6565,-3.7796,-3.8392,-3.9123,-4.0315,-4.0104,-3.9988,-4.0431,-4.0104,-3.9988,-4.045,-4.0489,-4.0489,-4.0489,-4.0489,-4.0489,-4.0489,-4.0489,-4.0422,-4.0267,-4.0286,-4.0139,-3.9819,-4.012,-4.0176,-4.0004,-3.9939,-3.9876,-3.9819,-3.9611,-3.9486,-2.789,-2.9256,-3.0583,-3.2699,-3.291,-3.2776,-3.341,-3.2429,-3.1371,0.0,0.0,0.0,0.0,0.0,0.0,0.0,0.0,0.0,0.0,0.0,0.0,0.0,0.0,0.0,0.0,0.0,0.0,0.0,0.0,-3.0898,-3.0898,-3.0905,-3.0888,-3.0849,-3.0849,-3.0845,-3.0859,-3.0845,-3.0849,-3.0846,-3.0723,-3.0731,-3.0827,-3.0677,-3.1369,-3.268,-3.264,-3.275,-3.2937,-3.2867,-3.3364,-3.4134,-3.4237,-3.4661,-3.5257,-3.5449,-3.5493,-3.5493,-3.5493,-3.5493,-3.5493,-3.5493,-3.5493,-3.5493,-3.5493,-3.5493,-3.5493,-3.5493,-3.5493,-3.5493,-3.5493,-3.5493,-3.5493,-3.5493,-3.5493,-3.5493,-3.5493,-3.5493,-3.5493,-3.5493,-3.5988,-3.668,-3.7526,-3.82,-3.8911,-3.9738,-3.9354,-3.9181,-3.9777,-3.9527,-3.9527,-4.0123,-4.0373,-4.0473,-4.0406,-4.0389,-4.0372,-4.0266,-4.0266,-4.0194,-3.9982,-3.9982,-3.9819,-3.9481,-3.9731,-3.9775,-3.9599,-3.9661,-3.9556,-3.9288,-3.8889,-3.8712,-2.6467,-2.7909,-2.939,-3.0371,-3.1179,-3.1775,-3.1814,-3.1121,-3.0456,-3.0456,0.0,0.0,0.0,0.0,0.0,0.0,0.0,0.0,0.0,0.0,0.0,0.0,0.0,0.0,0.0,0.0,0.0,0.0,0.0,-3.0898,-3.0898,-3.0904,-3.0852,-3.0706,-3.0706,-3.07,-3.0703,-3.0707,-3.0706,-3.0717,-3.0634,-3.0607,-3.0621,-3.061,-3.0653,-3.0747,-3.0739,-3.1211,-3.1965,-3.1896,-3.2384,-3.3243,-3.3943,-3.4218,-3.4372,-3.5199,-3.5493,-3.5493,-3.5493,-3.5493,-3.5493,-3.5493,-3.5493,-3.5493,-3.5493,-3.5493,-3.5493,-3.5493,-3.5493,-3.5493,-3.5493,-3.5493,-3.5493,-3.5493,-3.5493,-3.5493,-3.5493,-3.5493,-3.5493,-3.5493,-3.5532,-3.5834,-3.6642,-3.6815,-3.7142,-3.8007,-3.8084,-3.8084,-3.8123,-3.8815,-3.9315,-3.9354,-4.0027,-4.0389,-4.0139,-4.012,-4.0002,-3.9668,-3.9645,-3.9645,-3.9622,-3.9622,-3.9481,-3.9133,-3.9133,-3.9289,-3.9599,-3.9308,-3.9208,-3.9301,-3.8892,-3.8683,-2.637,-2.7044,-2.7832,-2.9217,-2.9794,-3.0179,-3.0737,-3.0609,-3.0398,-3.0398,0.0,0.0,0.0,0.0,0.0,0.0,0.0,0.0,0.0,0.0,0.0,0.0,0.0,0.0,0.0,0.0,0.0,0.0,0.0,0.0,-2.9175,-2.9652,-2.9912,-2.9873,-3.0364,-3.0646,-3.0634,-3.0633,-3.0646,-3.0641,-3.0567,-3.0567,-3.0602,-3.0519,-3.0509,-3.0525,-3.05,-3.0664,-3.0999,-3.0929,-3.1429,-3.223,-3.2487,-3.3256,-3.4237,-3.4545,-3.5026,-3.5493,-3.5493,-3.5493,-3.5493,-3.5493,-3.5493,-3.5493,-3.5493,-3.5493,-3.5493,-3.5493,-3.5493,-3.5493,-3.5493,-3.5493,-3.5493,-3.5493,-3.5493,-3.5493,-3.5493,-3.5493,-3.5493,-3.5493,-3.5493,-3.5757,-3.6565,-3.6699,-3.7007,-3.7873,-3.7526,-3.7373,-3.793,-3.7632,-3.78,-3.8873,-3.909,-3.9314,-3.974,-3.9775,-3.9731,-3.9599,-3.9599,-3.9486,-3.9289,-3.9264,-3.9144,-3.8844,-3.8844,-3.8913,-3.9008,-3.8884,-3.8862,-3.8899,-3.8768,-3.8701,-2.6005,-2.639,-2.6948,-2.8352,-2.8698,-2.9006,-3.014,-3.0179,-3.0044,-3.034,0.0,0.0,0.0,0.0,0.0,0.0,0.0,0.0,0.0,0.0,0.0,0.0,0.0,0.0,0.0,0.0,0.0,0.0,0.0,0.0,-2.8174,-2.8667,-2.9082,-2.9326,-2.9843,-3.0267,-3.0568,-3.0568,-3.0568,-3.0564,-3.0506,-3.0487,-3.0525,-3.0448,-3.0417,-3.0467,-3.0417,-3.0417,-3.0467,-3.0417,-3.0737,-3.1295,-3.1583,-3.2545,-3.3795,-3.4083,-3.4757,-3.5493,-3.5493,-3.5493,-3.5493,-3.5493,-3.5493,-3.5493,-3.5493,-3.5493,-3.5493,-3.5493,-3.5493,-3.5493,-3.5493,-3.5493,-3.5493,-3.5493,-3.5493,-3.5493,-3.5493,-3.5493,-3.5493,-3.5493,-3.5493,-3.5633,-3.6093,-3.6155,-3.6332,-3.6824,-3.6405,-3.6252,-3.6826,-3.6478,-3.6597,-3.7699,-3.8182,-3.8577,-3.8987,-3.9288,-3.9408,-3.9301,-3.9301,-3.9085,-3.8581,-3.8823,-3.8736,-3.8303,-3.856,-3.8707,-3.8707,-3.8707,-3.8707,-3.8707,-3.8707,-3.809,0.0,0.0,0.0,-2.7601,-2.7832,-2.8294,-2.9929,0.0,-2.9313,0.0,0.0,0.0,0.0,0.0,0.0,0.0,0.0,0.0,0.0,0.0,0.0,0.0,0.0,0.0,0.0,0.0,0.0,0.0,0.0,-2.8097,-2.802,-2.8039,-2.8404,-2.9132,-2.9156,-2.9567,-3.0448,-3.0467,-3.0467,-3.0506,-3.0417,-3.0398,-3.0398,-3.0398,-3.0398,-3.0398,-3.0398,-3.0398,-3.0398,-3.0398,-3.0398,-3.0475,-3.1333,-3.2179,-3.3006,-3.3853,-3.4737,-3.5493,-3.5493,-3.5493,-3.5493,-3.5493,-3.5493,-3.5493,-3.5493,-3.5493,-3.5493,-3.5493,-3.5493,-3.5493,-3.5493,-3.5493,-3.5493,-3.5493,-3.5493,-3.5493,-3.5479,-3.5479,-3.5479,-3.5493,-3.5493,-3.5383,-3.5122,-3.5088,-3.4999,-3.4734,-3.4694,-3.4694,-3.4694,-3.5354,-3.5866,-3.5885,-3.7335,-3.8179,-3.7877,-3.8577,-3.8915,-3.8664,-3.8652,-3.8303,-3.7544,-3.8267,-3.8322,-3.7562,-3.8303,-3.8707,-3.8707,-3.8707,-3.8707,-3.8707,-3.867,-3.6943,-2.5303,0.0,0.0,0.0,0.0,0.0,0.0,0.0,0.0,0.0,0.0,0.0,0.0,0.0,0.0,0.0,0.0,0.0,0.0,0.0,0.0,0.0,0.0,0.0,0.0,0.0,0.0,0.0,-2.6237,-2.6179,-2.616,-2.6698,-2.74,-2.8217,-2.8255,-2.8648,-2.9486,-2.9486,-2.9794,-3.0417,-3.0398,-3.0398,-3.0398,-3.0398,-3.0398,-3.0398,-3.0398,-3.0398,-3.0398,-3.0398,-3.0398,-3.0417,-3.0679,-3.1641,-3.2929,-3.316,-3.4218,-3.5493,-3.5493,-3.5493,-3.5493,-3.5493,-3.5493,-3.5493,-3.5493,-3.5493,-3.5493,-3.5493,-3.5493,-3.5493,-3.5493,-3.5493,-3.5446,-3.5273,-3.5207,-3.5174,-3.4963,-3.4926,-3.4981,-3.5155,-3.5034,-3.4908,-3.4813,-3.4793,-3.4793,-3.4714,-3.4694,-3.4694,-3.4694,-3.4677,-3.4918,-3.5535,-3.5801,-3.6157,-3.6694,-3.6952,-3.7024,-3.6964,-3.7496,-3.7716,-3.7526,-3.8267,-3.8597,-3.8377,-3.8597,-3.8707,-3.8707,-3.8707,-3.8707,-3.8689,-3.7904,-3.6853,-2.5851,-2.5851,-2.5928,-2.6294,0.0,0.0,-2.7063,-2.7255,0.0,0.0,0.0,0.0,0.0,0.0,0.0,0.0,0.0,0.0,0.0,0.0,0.0,0.0,0.0,0.0,0.0,0.0,0.0,-2.5563,-2.5466,-2.539,-2.537,-2.5813,-2.6467,-2.7332,-2.7351,-2.7755,-2.8582,-2.8602,-2.8852,-2.9371,-2.9698,-2.9871,-2.9871,-3.0237,-3.0398,-3.0398,-3.0398,-3.0398,-3.0398,-3.0398,-3.0398,-3.0398,-3.0398,-3.1218,-3.241,-3.241,-3.3487,-3.4968,-3.4968,-3.5199,-3.5493,-3.5493,-3.5493,-3.5493,-3.5493,-3.5493,-3.5493,-3.5493,-3.5493,-3.546,-3.5369,-3.532,-3.5273,-3.4999,-3.4944,-3.4889,-3.4734,-3.4593,-3.4593,-3.4889,-3.4812,-3.4653,-3.4529,-3.4508,-3.4464,-3.433,-3.4307,-3.4307,-3.4307,-3.4141,-3.4247,-3.4747,-3.4907,-3.5192,-3.5716,-3.6083,-3.6303,-3.6303,-3.7055,-3.7331,-3.7,-3.8083,-3.8542,-3.8212,-3.8524,-3.8707,-3.8707,-3.8707,-3.8707,-3.867,-3.7592,-3.682,-2.6736,-2.6736,-2.6909,-2.7582,0.0,0.0,-2.7505,-2.7159,-2.6948,0.0,0.0,0.0,0.0,0.0,0.0,0.0,0.0,0.0,0.0,0.0,0.0,0.0,0.0,0.0,0.0,-2.5621,-2.5553,-2.5505,-2.5428,-2.537,-2.5303,-2.5303,-2.5649,-2.6428,-2.6467,-2.6871,-2.7755,-2.7755,-2.7794,-2.7909,-2.8621,-2.9006,-2.9121,-2.991,-3.0302,-3.0398,-3.0398,-3.0398,-3.0398,-3.0398,-3.0398,-3.0398,-3.0398,-3.0929,-3.1698,-3.1698,-3.2756,-3.4199,-3.4199,-3.4776,-3.5493,-3.5493,-3.5493,-3.5493,-3.5493,-3.5493,-3.5493,-3.546,-3.5432,-3.5354,-3.5122,-3.507,-3.4981,-3.4714,-3.4653,-3.4632,-3.4612,-3.4375,-3.4242,-3.4529,-3.4612,-3.4508,-3.4218,-3.4171,-3.4074,-3.3842,-3.3807,-3.3807,-3.3807,-3.3807,-3.3807,-3.3807,-3.4449,-3.4862,-3.4862,-3.5587,-3.6009,-3.6009,-3.6853,-3.7,-3.6193,-3.7716,-3.8193,-3.7367,-3.8157,-3.8579,-3.8579,-3.867,-3.8652,-3.8542,-3.75,-3.6762,-2.764,-2.764,-2.7525,-2.6986,0.0,0.0,-2.6236,-2.6755,-2.7505,0.0,0.0,0.0,0.0,0.0,0.0,0.0,0.0,0.0,0.0,0.0,0.0,0.0,0.0,0.0,0.0,-2.56,-2.5505,-2.5505,-2.539,-2.5303,-2.5303,-2.5303,-2.538,-2.5553,-2.5553,-2.5967,-2.6851,-2.6851,-2.7217,-2.789,-2.8063,-2.8467,-2.9102,-2.9275,-2.9737,-3.0398,-3.0398,-3.0398,-3.0398,-3.0398,-3.0398,-3.0398,-3.0398,-3.0929,-3.1698,-3.1698,-3.2756,-3.4199,-3.4199,-3.4776,-3.5493,-3.5493,-3.5493,-3.5493,-3.5493,-3.5493,-3.5446,-3.5239,-3.5016,-3.4832,-3.4793,-3.4774,-3.4694,-3.4379,-3.4311,-3.4242,-3.4012,-3.3928,-3.3902,-3.3954,-3.3979,-3.3954,-3.3876,-3.3876,-3.385,-3.3807,-3.3807,-3.3807,-3.3807,-3.3807,-3.3807,-3.3807,-3.3935,-3.4027,-3.4027,-3.4192,-3.4284,-3.4284,-3.5697,-3.6156,-3.5284,-3.6853,-3.7349,-3.6541,-3.7312,-3.7716,-3.7734,-3.8377,-3.8377,-3.7698,-3.6864,-3.6394,-2.8486,-2.8486,0.0,-2.7967,0.0,0.0,0.0,-2.6294,-2.6601,-2.6601,0.0,0.0,0.0,0.0,0.0,0.0,0.0,0.0,0.0,0.0,0.0,0.0,0.0,0.0,0.0,-2.6238,-2.5939,-2.5447,-2.5341,-2.5303,-2.5303,-2.5303,-2.5303,-2.5303,-2.5303,-2.5514,-2.5947,-2.5947,-2.6178,-2.6621,-2.7044,-2.7467,-2.7871,-2.8717,-2.9333,-2.9775,-3.0217,-3.0398,-3.0398,-3.0398,-3.0398,-3.0398,-3.0398,-3.0679,-3.1064,-3.1064,-3.2102,-3.3545,-3.3545,-3.441,-3.5493,-3.5493,-3.5493,-3.5493,-3.5493,-3.5417,-3.5239,-3.4981,-3.4793,-3.4653,-3.4489,-3.4445,-3.4379,-3.4068,-3.4012,-3.3961,-3.3815,-3.3807,-3.3807,-3.3807,-3.3807,-3.3807,-3.3807,-3.3807,-3.3807,-3.3807,-3.3807,-3.3807,-3.3807,-3.3807,-3.3807,-3.3807,-3.3807,-3.3807,-3.3807,-3.3807,-3.3807,-3.3807,-3.4981,-3.5477,-3.5009,-3.6229,-3.6707,-3.6303,-3.6688,-3.6985,-3.7116,-3.7148,-3.7148,-3.713,-3.5657,-3.5447,0.0,0.0,0.0,0.0,0.0,-2.8025,0.0,0.0,0.0,-2.6274,0.0,0.0,0.0,0.0,0.0,0.0,0.0,0.0,0.0,0.0,0.0,0.0,0.0,0.0,0.0,-2.6873,-2.6527,-2.5842,-2.5495,-2.536,-2.5534,-2.538,-2.5303,-2.5303,-2.5303,-2.5303,-2.5303,-2.5303,-2.5303,-2.5303,-2.6005,-2.6447,-2.6659,-2.8179,-2.8948,-2.914,-3.0025,-3.0398,-3.0398,-3.0398,-3.0398,-3.0398,-3.0398,-3.0398,-3.0398,-3.0398,-3.1468,-3.2891,-3.2891,-3.4019,-3.5432,-3.5493,-3.5479,-3.5432,-3.5432,-3.5187,-3.4889,-3.4655,-3.4569,-3.4464,-3.4195,-3.4123,-3.4068,-3.3868,-3.3807,-3.3807,-3.3807,-3.3807,-3.3807,-3.3807,-3.3807,-3.3807,-3.3807,-3.3807,-3.3807,-3.3807,-3.3807,-3.3807,-3.3807,-3.3807,-3.3807,-3.3807,-3.3807,-3.3807,-3.3807,-3.3807,-3.3807,-3.3807,-3.4578,-3.4889,-3.4668,-3.525,-3.5586,-3.5586,-3.5732,-3.5895,-3.6137,-3.5457,-3.5547,-3.6368,-3.4672,-3.45,0.0,0.0,0.0,0.0,-2.9083,0.0,0.0,0.0,-2.7198,-2.5755,0.0,0.0,0.0,0.0,0.0,0.0,0.0,0.0,0.0,0.0,0.0,0.0,0.0,0.0,0.0,0.0,-2.7027,-2.7574,-2.6178,-2.563,-2.6409,-2.5707,-2.5303,-2.5303,-2.5303,-2.5303,-2.5303,-2.5303,-2.5303,-2.5303,-2.5399,-2.5851,-2.664,-2.7601,-2.8429,-2.914,-3.0025,-3.0398,-3.0398,-3.0398,-3.0398,-3.0398,-3.0398,-3.0398,-3.0398,-3.0398,-3.1468,-3.2891,-3.2891,-3.3897,-3.519,-3.5432,-3.5354,-3.5157,-3.5157,-3.4736,-3.4292,-3.4288,-3.4093,-3.3895,-3.3868,-3.3842,-3.3842,-3.3807,-3.3807,-3.3807,-3.3807,-3.3807,-3.3807,-3.3807,-3.3807,-3.3807,-3.3807,-3.3807,-3.3807,-3.3807,-3.3807,-3.3807,-3.3807,-3.3807,-3.3807,-3.3807,-3.3807,-3.3807,-3.3807,-3.3807,-3.3807,-3.3807,-3.4578,-3.4501,-3.3436,-3.3104,-3.2915,-3.2915,-3.3624,-3.4015,-3.4036,-3.3582,-3.3969,-3.503,-3.4783,-3.4408,0.0,0.0,0.0,0.0,0.0,0.0,-2.6505,0.0,-2.6332,0.0,0.0,0.0,0.0,0.0,0.0,0.0,0.0,0.0,0.0,0.0,0.0,0.0,0.0,0.0,0.0,0.0,0.0,0.0,0.0,-2.6428,-2.7313,-2.6524,-2.6063,-2.6063,-2.5553,-2.5303,-2.5303,-2.5303,-2.5303,-2.5303,-2.5303,-2.5495,-2.589,-2.7274,-2.8082,-2.8467,-2.9833,-3.0398,-3.0398,-3.0398,-3.0398,-3.0398,-3.0398,-3.0398,-3.0398,-3.0398,-3.1468,-3.2878,-3.2732,-3.3738,-3.5088,-3.5053,-3.4963,-3.4832,-3.4636,-3.4405,-3.4171,-3.3993,-3.3876,-3.3807,-3.3807,-3.3807,-3.3807,-3.3807,-3.3807,-3.3807,-3.3807,-3.3807,-3.3807,-3.3807,-3.3807,-3.3807,-3.3807,-3.3807,-3.3807,-3.3807,-3.3807,-3.3807,-3.3807,-3.3807,-3.3807,-3.3807,-3.3807,-3.3807,-3.3807,-3.3807,-3.3707,-3.3465,-3.3503,-3.3324,-3.2827,-3.2616,-3.2484,-3.2484,-3.2836,-3.3089,-3.3299,-3.3134,-3.3346,-3.3995,-3.3546,-3.3613,-3.0398,0.0,0.0,0.0,0.0,0.0,0.0,0.0,0.0,0.0,0.0,0.0,0.0,0.0,-2.5489,-2.5584,0.0,-2.5684,0.0,0.0,0.0,0.0,0.0,0.0,0.0,0.0,0.0,0.0,0.0,0.0,-2.8159,-2.7428,-2.6851,-2.6621,-2.5986,-2.5534,-2.5303,-2.5303,-2.5303,-2.5303,-2.5303,-2.5303,-2.536,-2.7101,-2.789,-2.7986,-2.9679,-3.0398,-3.0398,-3.0311,-3.0323,-3.0398,-3.0311,-3.0343,-3.0398,-3.0398,-3.1411,-3.276,-3.2562,-3.3587,-3.4944,-3.4655,-3.4551,-3.4529,-3.4269,-3.4147,-3.4043,-3.385,-3.3807,-3.3807,-3.3807,-3.3807,-3.3807,-3.3807,-3.3807,-3.3807,-3.3807,-3.3807,-3.3807,-3.3807,-3.3807,-3.3807,-3.3807,-3.3807,-3.3807,-3.3807,-3.3807,-3.3807,-3.3807,-3.3807,-3.3807,-3.3807,-3.3707,-3.3652,-3.3652,-3.3522,-3.3332,-3.3014,-3.2583,-3.2316,-3.2316,-3.2213,-3.2162,-3.2162,-3.2162,-3.2369,-3.2831,-3.2831,-3.3111,-3.3694,-3.3136,-3.3474,0.0,0.0,0.0,-2.8352,0.0,0.0,0.0,0.0,-2.6332,0.0,0.0,0.0,0.0,-2.5409,-2.5449,-2.5581,-2.5605,0.0,0.0,0.0,0.0,0.0,0.0,0.0,0.0,0.0,0.0,0.0,0.0,0.0,-2.8967,-2.8294,-2.7467,-2.664,-2.6563,-2.6159,-2.5303,-2.5303,-2.5303,-2.5303,-2.5303,-2.5303,-2.536,-2.7101,-2.789,-2.7986,-2.9679,-3.0398,-3.0367,-3.0122,-3.0182,-3.0367,-3.0103,-3.0163,-3.0398,-3.0398,-3.1314,-3.2496,-3.2496,-3.3466,-3.4653,-3.4315,-3.42,-3.42,-3.42,-3.4018,-3.3815,-3.3788,-3.3807,-3.3807,-3.3807,-3.3807,-3.3807,-3.3807,-3.3807,-3.3807,-3.3807,-3.3807,-3.3807,-3.3807,-3.3807,-3.3807,-3.3807,-3.3807,-3.3807,-3.3807,-3.3807,-3.3807,-3.3807,-3.3807,-3.3807,-3.3807,-3.3447,-3.3214,-3.3214,-3.2809,-3.255,-3.2517,-3.2092,-3.1825,-3.1825,-3.1449,-3.123,-3.123,-3.123,-3.1585,-3.2313,-3.2313,-3.3076,-3.4455,-3.4438,-3.4438,0.0,0.0,-3.014,-2.8986,0.0,0.0,0.0,0.0,0.0,0.0,0.0,0.0,0.0,-2.5447,-2.5504,-2.5589,-2.5632,-2.5664,0.0,0.0,0.0,0.0,0.0,0.0,0.0,0.0,0.0,0.0,-2.7775,0.0,0.0,-2.9159,-2.8563,-2.8255,-2.7736,-2.7044,-2.6178,-2.6159,-2.587,-2.5303,-2.5303,-2.5303,-2.536,-2.7101,-2.789,-2.7986,-2.9679,-3.0398,-3.0367,-3.0103,-3.0042,-3.0136,-3.0047,-2.9969,-2.9943,-3.0095,-3.1145,-3.2599,-3.3353,-3.3844,-3.4087,-3.3961,-3.3954,-3.3954,-3.3954,-3.3876,-3.3807,-3.3807,-3.3807,-3.3807,-3.3807,-3.3807,-3.3807,-3.3807,-3.3807,-3.3807,-3.3807,-3.3807,-3.3807,-3.3807,-3.3807,-3.3807,-3.3807,-3.3578,-3.3494,-3.3762,-3.3807,-3.3707,-3.3437,-3.339,-3.3284,-3.2965,-3.2809,-3.2745,-3.2745,-3.2298,-3.2039,-3.2039,-3.164,-3.1411,-3.1411,-3.1252,-3.119,-3.119,-3.119,-3.1309,-3.1562,-3.2544,-3.3271,-3.3795,-3.4776,-3.5233,-2.9506,-2.9506,0.0,-2.8429,-2.7813,0.0,-2.6351,0.0,0.0,0.0,0.0,0.0,0.0,-2.564,-2.5495,-2.5545,-2.5618,-2.5673,0.0,-2.5703,0.0,0.0,0.0,0.0,0.0,0.0,-2.6679,-2.7813,-2.789,0.0,0.0,0.0,-2.941,-2.9102,-2.8602,-2.7909,-2.7063,-2.6755,-2.6282,-2.5653,-2.5337,-2.5171,-2.5184,-2.6885,-2.765,-2.7746,-2.9415,-3.0142,-3.0128,-2.9896,-2.9829,-2.9893,-2.9813,-2.9746,-2.9712,-2.9924,-3.0763,-3.1996,-3.3212,-3.3511,-3.3421,-3.3715,-3.3807,-3.3807,-3.3807,-3.3807,-3.3807,-3.3807,-3.3807,-3.3807,-3.3807,-3.3807,-3.3807,-3.3807,-3.3807,-3.3807,-3.3807,-3.3807,-3.3807,-3.3807,-3.3807,-3.3807,-3.3807,-3.3578,-3.3447,-3.3578,-3.3447,-3.3255,-3.2983,-3.2952,-3.2858,-3.2517,-3.235,-3.2213,-3.2056,-3.177,-3.1603,-3.1603,-3.1351,-3.119,-3.119,-3.119,-3.119,-3.119,-3.119,-3.1326,-3.1579,-3.2544,-3.3271,-3.3812,-3.4776,-3.5368]}]]